﻿<?xml version="1.0" encoding="utf-8"?><gpx creator="Garmin Desktop App" version="1.1" xsi:schemaLocation="http://www.topografix.com/GPX/1/1 http://www.topografix.com/GPX/1/1/gpx.xsd http://www.garmin.com/xmlschemas/WaypointExtension/v1 http://www8.garmin.com/xmlschemas/WaypointExtensionv1.xsd http://www.garmin.com/xmlschemas/TrackPointExtension/v1 http://www.garmin.com/xmlschemas/TrackPointExtensionv1.xsd http://www.garmin.com/xmlschemas/GpxExtensions/v3 http://www8.garmin.com/xmlschemas/GpxExtensionsv3.xsd http://www.garmin.com/xmlschemas/ActivityExtension/v1 http://www8.garmin.com/xmlschemas/ActivityExtensionv1.xsd http://www.garmin.com/xmlschemas/AdventuresExtensions/v1 http://www8.garmin.com/xmlschemas/AdventuresExtensionv1.xsd http://www.garmin.com/xmlschemas/PressureExtension/v1 http://www.garmin.com/xmlschemas/PressureExtensionv1.xsd http://www.garmin.com/xmlschemas/TripExtensions/v1 http://www.garmin.com/xmlschemas/TripExtensionsv1.xsd http://www.garmin.com/xmlschemas/TripMetaDataExtensions/v1 http://www.garmin.com/xmlschemas/TripMetaDataExtensionsv1.xsd http://www.garmin.com/xmlschemas/ViaPointTransportationModeExtensions/v1 http://www.garmin.com/xmlschemas/ViaPointTransportationModeExtensionsv1.xsd http://www.garmin.com/xmlschemas/CreationTimeExtension/v1 http://www.garmin.com/xmlschemas/CreationTimeExtensionsv1.xsd http://www.garmin.com/xmlschemas/AccelerationExtension/v1 http://www.garmin.com/xmlschemas/AccelerationExtensionv1.xsd http://www.garmin.com/xmlschemas/PowerExtension/v1 http://www.garmin.com/xmlschemas/PowerExtensionv1.xsd http://www.garmin.com/xmlschemas/VideoExtension/v1 http://www.garmin.com/xmlschemas/VideoExtensionv1.xsd" xmlns="http://www.topografix.com/GPX/1/1" xmlns:xsi="http://www.w3.org/2001/XMLSchema-instance" xmlns:wptx1="http://www.garmin.com/xmlschemas/WaypointExtension/v1" xmlns:gpxtrx="http://www.garmin.com/xmlschemas/GpxExtensions/v3" xmlns:gpxtpx="http://www.garmin.com/xmlschemas/TrackPointExtension/v1" xmlns:gpxx="http://www.garmin.com/xmlschemas/GpxExtensions/v3" xmlns:trp="http://www.garmin.com/xmlschemas/TripExtensions/v1" xmlns:adv="http://www.garmin.com/xmlschemas/AdventuresExtensions/v1" xmlns:prs="http://www.garmin.com/xmlschemas/PressureExtension/v1" xmlns:tmd="http://www.garmin.com/xmlschemas/TripMetaDataExtensions/v1" xmlns:vptm="http://www.garmin.com/xmlschemas/ViaPointTransportationModeExtensions/v1" xmlns:ctx="http://www.garmin.com/xmlschemas/CreationTimeExtension/v1" xmlns:gpxacc="http://www.garmin.com/xmlschemas/AccelerationExtension/v1" xmlns:gpxpx="http://www.garmin.com/xmlschemas/PowerExtension/v1" xmlns:vidx1="http://www.garmin.com/xmlschemas/VideoExtension/v1">

  <metadata>
    <link href="http://www.garmin.com">
      <text>Garmin International</text>
    </link>
    <time>2020-10-27T07:19:37Z</time>
    <bounds maxlat="51.424393756315112" maxlon="4.413393968716264" minlat="51.358966631814837" minlon="4.331085691228509" />
  </metadata>

  <trk>
    <name>leeuw v vlaanderen de wolf 27  km</name>
    <extensions>
      <gpxx:TrackExtension>
        <gpxx:DisplayColor>Red</gpxx:DisplayColor>
      </gpxx:TrackExtension>
    </extensions>
    <trkseg>
      <trkpt lat="51.369898477569222" lon="4.331087870523334">
        <ele>-4.19</ele>
        <time>2014-11-23T15:09:08Z</time>
      </trkpt>
      <trkpt lat="51.369841815903783" lon="4.331096084788442">
        <ele>-3.71</ele>
        <time>2014-11-23T15:08:55Z</time>
      </trkpt>
      <trkpt lat="51.369788171723485" lon="4.331120811402798">
        <ele>-3.71</ele>
        <time>2014-11-23T15:08:51Z</time>
      </trkpt>
      <trkpt lat="51.369732180610299" lon="4.331142939627171">
        <ele>-3.71</ele>
        <time>2014-11-23T15:08:47Z</time>
      </trkpt>
      <trkpt lat="51.369610475376248" lon="4.331270847469568">
        <ele>-3.23</ele>
        <time>2014-11-23T15:08:39Z</time>
      </trkpt>
      <trkpt lat="51.369729246944189" lon="4.331592544913292">
        <ele>-3.71</ele>
        <time>2014-11-23T15:08:24Z</time>
      </trkpt>
      <trkpt lat="51.369790183380246" lon="4.331638310104609">
        <ele>-3.71</ele>
        <time>2014-11-23T15:08:20Z</time>
      </trkpt>
      <trkpt lat="51.369862351566553" lon="4.331718441098929">
        <ele>-3.71</ele>
        <time>2014-11-23T15:08:15Z</time>
      </trkpt>
      <trkpt lat="51.369959749281406" lon="4.331749621778727">
        <ele>-3.23</ele>
        <time>2014-11-23T15:08:08Z</time>
      </trkpt>
      <trkpt lat="51.370173990726471" lon="4.331903262063861">
        <ele>-3.71</ele>
        <time>2014-11-23T15:07:50Z</time>
      </trkpt>
      <trkpt lat="51.370423268526793" lon="4.332094453275204">
        <ele>-3.23</ele>
        <time>2014-11-23T15:07:33Z</time>
      </trkpt>
      <trkpt lat="51.370529467239976" lon="4.332131082192063">
        <ele>-3.23</ele>
        <time>2014-11-23T15:07:25Z</time>
      </trkpt>
      <trkpt lat="51.370588140562177" lon="4.332147007808089">
        <ele>-3.23</ele>
        <time>2014-11-23T15:07:21Z</time>
      </trkpt>
      <trkpt lat="51.370676485821605" lon="4.332235939800739">
        <ele>-3.23</ele>
        <time>2014-11-23T15:07:11Z</time>
      </trkpt>
      <trkpt lat="51.370873963460326" lon="4.332378767430782">
        <ele>-3.23</ele>
        <time>2014-11-23T15:06:56Z</time>
      </trkpt>
      <trkpt lat="51.37106616050005" lon="4.33259854093194">
        <ele>-3.23</ele>
        <time>2014-11-23T15:06:39Z</time>
      </trkpt>
      <trkpt lat="51.371078649535775" lon="4.332922920584679">
        <ele>-2.75</ele>
        <time>2014-11-23T15:06:25Z</time>
      </trkpt>
      <trkpt lat="51.371077727526426" lon="4.333074549213052">
        <ele>-2.75</ele>
        <time>2014-11-23T15:06:20Z</time>
      </trkpt>
      <trkpt lat="51.371089546009898" lon="4.333202624693513">
        <ele>-2.27</ele>
        <time>2014-11-23T15:06:13Z</time>
      </trkpt>
      <trkpt lat="51.371126594021916" lon="4.333315696567297">
        <ele>-2.27</ele>
        <time>2014-11-23T15:06:07Z</time>
      </trkpt>
      <trkpt lat="51.371177388355136" lon="4.333536811172962">
        <ele>-1.79</ele>
        <time>2014-11-23T15:05:58Z</time>
      </trkpt>
      <trkpt lat="51.371236480772495" lon="4.333843337371945">
        <ele>-2.75</ele>
        <time>2014-11-23T15:05:46Z</time>
      </trkpt>
      <trkpt lat="51.371251316741109" lon="4.333918439224362">
        <ele>-2.27</ele>
        <time>2014-11-23T15:05:42Z</time>
      </trkpt>
      <trkpt lat="51.371283670887351" lon="4.334008963778615">
        <ele>-2.27</ele>
        <time>2014-11-23T15:05:37Z</time>
      </trkpt>
      <trkpt lat="51.371293561533093" lon="4.334174422547221">
        <ele>-2.27</ele>
        <time>2014-11-23T15:05:30Z</time>
      </trkpt>
      <trkpt lat="51.371308229863644" lon="4.334354046732187">
        <ele>-2.27</ele>
        <time>2014-11-23T15:05:23Z</time>
      </trkpt>
      <trkpt lat="51.371277468279004" lon="4.334511123597622">
        <ele>-2.27</ele>
        <time>2014-11-23T15:05:17Z</time>
      </trkpt>
      <trkpt lat="51.371322060003877" lon="4.334854446351528">
        <ele>-2.27</ele>
        <time>2014-11-23T15:05:01Z</time>
      </trkpt>
      <trkpt lat="51.371375871822238" lon="4.335084529593587">
        <ele>-2.27</ele>
        <time>2014-11-23T15:04:51Z</time>
      </trkpt>
      <trkpt lat="51.371387438848615" lon="4.335138760507107">
        <ele>-2.27</ele>
        <time>2014-11-23T15:04:48Z</time>
      </trkpt>
      <trkpt lat="51.371410069987178" lon="4.335464984178543">
        <ele>-1.79</ele>
        <time>2014-11-23T15:04:35Z</time>
      </trkpt>
      <trkpt lat="51.371490871533751" lon="4.335732702165842">
        <ele>-1.79</ele>
        <time>2014-11-23T15:04:26Z</time>
      </trkpt>
      <trkpt lat="51.371527416631579" lon="4.335914924740791">
        <ele>-0.82</ele>
        <time>2014-11-23T15:04:16Z</time>
      </trkpt>
      <trkpt lat="51.371537642553449" lon="4.336103014647961">
        <ele>-0.82</ele>
        <time>2014-11-23T15:04:03Z</time>
      </trkpt>
      <trkpt lat="51.371546359732747" lon="4.336249530315399">
        <ele>-0.82</ele>
        <time>2014-11-23T15:03:57Z</time>
      </trkpt>
      <trkpt lat="51.371588185429573" lon="4.336290517821908">
        <ele>-0.82</ele>
        <time>2014-11-23T15:03:56Z</time>
      </trkpt>
      <trkpt lat="51.371529931202531" lon="4.336487408727408">
        <ele>0.62</ele>
        <time>2014-11-23T15:03:41Z</time>
      </trkpt>
      <trkpt lat="51.371392467990518" lon="4.336550859734416">
        <ele>1.1</ele>
        <time>2014-11-23T15:03:32Z</time>
      </trkpt>
      <trkpt lat="51.371222231537104" lon="4.336607856675983">
        <ele>1.58</ele>
        <time>2014-11-23T15:03:18Z</time>
      </trkpt>
      <trkpt lat="51.371006984263659" lon="4.336650604382157">
        <ele>1.58</ele>
        <time>2014-11-23T15:03:05Z</time>
      </trkpt>
      <trkpt lat="51.370811434462667" lon="4.336730232462287">
        <ele>2.06</ele>
        <time>2014-11-23T15:02:52Z</time>
      </trkpt>
      <trkpt lat="51.37061714194715" lon="4.336818410083652">
        <ele>2.06</ele>
        <time>2014-11-23T15:02:39Z</time>
      </trkpt>
      <trkpt lat="51.370432320982218" lon="4.336878592148423">
        <ele>2.54</ele>
        <time>2014-11-23T15:02:27Z</time>
      </trkpt>
      <trkpt lat="51.370253199711442" lon="4.33694975450635">
        <ele>1.58</ele>
        <time>2014-11-23T15:02:13Z</time>
      </trkpt>
      <trkpt lat="51.370059913024306" lon="4.337021838873625">
        <ele>1.1</ele>
        <time>2014-11-23T15:02:00Z</time>
      </trkpt>
      <trkpt lat="51.369814490899444" lon="4.337110770866275">
        <ele>0.62</ele>
        <time>2014-11-23T15:01:45Z</time>
      </trkpt>
      <trkpt lat="51.369595304131508" lon="4.33723121881485">
        <ele>0.62</ele>
        <time>2014-11-23T15:01:30Z</time>
      </trkpt>
      <trkpt lat="51.369373435154557" lon="4.337303135544062">
        <ele>-0.34</ele>
        <time>2014-11-23T15:01:15Z</time>
      </trkpt>
      <trkpt lat="51.36918936856091" lon="4.337392570450902">
        <ele>0.14</ele>
        <time>2014-11-23T15:01:04Z</time>
      </trkpt>
      <trkpt lat="51.369147961959243" lon="4.337404556572437">
        <ele>0.14</ele>
        <time>2014-11-23T15:01:00Z</time>
      </trkpt>
      <trkpt lat="51.369108567014337" lon="4.337428109720349">
        <ele>0.14</ele>
        <time>2014-11-23T15:00:57Z</time>
      </trkpt>
      <trkpt lat="51.369092725217342" lon="4.337432887405157">
        <ele>0.14</ele>
        <time>2014-11-23T15:00:55Z</time>
      </trkpt>
      <trkpt lat="51.368872113525867" lon="4.337552580982447">
        <ele>0.62</ele>
        <time>2014-11-23T15:00:39Z</time>
      </trkpt>
      <trkpt lat="51.368687711656094" lon="4.337611421942711">
        <ele>0.14</ele>
        <time>2014-11-23T15:00:27Z</time>
      </trkpt>
      <trkpt lat="51.368498783558607" lon="4.337669927626848">
        <ele>-0.34</ele>
        <time>2014-11-23T15:00:13Z</time>
      </trkpt>
      <trkpt lat="51.368121849372983" lon="4.337765732780099">
        <ele>-0.34</ele>
        <time>2014-11-23T14:59:46Z</time>
      </trkpt>
      <trkpt lat="51.367805097252131" lon="4.337899927049875">
        <ele>-0.34</ele>
        <time>2014-11-23T14:59:27Z</time>
      </trkpt>
      <trkpt lat="51.367588425055146" lon="4.337931610643864">
        <ele>-0.34</ele>
        <time>2014-11-23T14:59:12Z</time>
      </trkpt>
      <trkpt lat="51.367359096184373" lon="4.338022721931338">
        <ele>-0.82</ele>
        <time>2014-11-23T14:58:57Z</time>
      </trkpt>
      <trkpt lat="51.367346439510584" lon="4.338032696396112">
        <ele>-0.82</ele>
        <time>2014-11-23T14:58:56Z</time>
      </trkpt>
      <trkpt lat="51.367091294378042" lon="4.338136380538344">
        <ele>-0.82</ele>
        <time>2014-11-23T14:58:41Z</time>
      </trkpt>
      <trkpt lat="51.366968164220452" lon="4.33813956566155">
        <ele>-0.82</ele>
        <time>2014-11-23T14:58:34Z</time>
      </trkpt>
      <trkpt lat="51.366905551403761" lon="4.338158760219812">
        <ele>-0.34</ele>
        <time>2014-11-23T14:58:29Z</time>
      </trkpt>
      <trkpt lat="51.366735147312284" lon="4.338180553168058">
        <ele>-0.82</ele>
        <time>2014-11-23T14:58:16Z</time>
      </trkpt>
      <trkpt lat="51.366478577256203" lon="4.338292200118303">
        <ele>-0.82</ele>
        <time>2014-11-23T14:57:58Z</time>
      </trkpt>
      <trkpt lat="51.366207674145699" lon="4.338429244235158">
        <ele>-0.34</ele>
        <time>2014-11-23T14:57:42Z</time>
      </trkpt>
      <trkpt lat="51.365888155996799" lon="4.338586488738656">
        <ele>0.62</ele>
        <time>2014-11-23T14:57:27Z</time>
      </trkpt>
      <trkpt lat="51.365686319768429" lon="4.338655639439821">
        <ele>0.62</ele>
        <time>2014-11-23T14:57:16Z</time>
      </trkpt>
      <trkpt lat="51.365530416369438" lon="4.338654717430472">
        <ele>0.62</ele>
        <time>2014-11-23T14:57:01Z</time>
      </trkpt>
      <trkpt lat="51.365354815497994" lon="4.338689250871539">
        <ele>0.62</ele>
        <time>2014-11-23T14:56:45Z</time>
      </trkpt>
      <trkpt lat="51.365185836330056" lon="4.338738285005093">
        <ele>0.14</ele>
        <time>2014-11-23T14:56:30Z</time>
      </trkpt>
      <trkpt lat="51.365148955956101" lon="4.338789917528629">
        <ele>0.14</ele>
        <time>2014-11-23T14:56:27Z</time>
      </trkpt>
      <trkpt lat="51.365022640675306" lon="4.338822020217776">
        <ele>0.14</ele>
        <time>2014-11-23T14:56:18Z</time>
      </trkpt>
      <trkpt lat="51.364735141396523" lon="4.338839873671532">
        <ele>-0.34</ele>
        <time>2014-11-23T14:56:02Z</time>
      </trkpt>
      <trkpt lat="51.364530706778169" lon="4.338961998000741">
        <ele>0.14</ele>
        <time>2014-11-23T14:55:49Z</time>
      </trkpt>
      <trkpt lat="51.364393662661314" lon="4.33906895108521">
        <ele>0.14</ele>
        <time>2014-11-23T14:55:41Z</time>
      </trkpt>
      <trkpt lat="51.364366924390197" lon="4.339079428464174">
        <ele>-0.34</ele>
        <time>2014-11-23T14:55:39Z</time>
      </trkpt>
      <trkpt lat="51.364161819219589" lon="4.339090241119266">
        <ele>0.62</ele>
        <time>2014-11-23T14:55:22Z</time>
      </trkpt>
      <trkpt lat="51.364095183089375" lon="4.339109268039465">
        <ele>0.62</ele>
        <time>2014-11-23T14:55:16Z</time>
      </trkpt>
      <trkpt lat="51.363864680752158" lon="4.339157296344638">
        <ele>0.14</ele>
        <time>2014-11-23T14:55:01Z</time>
      </trkpt>
      <trkpt lat="51.363799134269357" lon="4.339153608307242">
        <ele>0.14</ele>
        <time>2014-11-23T14:54:56Z</time>
      </trkpt>
      <trkpt lat="51.363625712692738" lon="4.339205743744969">
        <ele>-0.34</ele>
        <time>2014-11-23T14:54:41Z</time>
      </trkpt>
      <trkpt lat="51.363496212288737" lon="4.339281097054482">
        <ele>-0.82</ele>
        <time>2014-11-23T14:54:32Z</time>
      </trkpt>
      <trkpt lat="51.3634342700243" lon="4.339331807568669">
        <ele>-0.34</ele>
        <time>2014-11-23T14:54:28Z</time>
      </trkpt>
      <trkpt lat="51.363260261714458" lon="4.339352678507567">
        <ele>-0.34</ele>
        <time>2014-11-23T14:54:15Z</time>
      </trkpt>
      <trkpt lat="51.363178873434663" lon="4.339390648528934">
        <ele>0.14</ele>
        <time>2014-11-23T14:54:09Z</time>
      </trkpt>
      <trkpt lat="51.36297594755888" lon="4.339466840028763">
        <ele>0.62</ele>
        <time>2014-11-23T14:53:55Z</time>
      </trkpt>
      <trkpt lat="51.362898331135511" lon="4.339499110355973">
        <ele>0.14</ele>
        <time>2014-11-23T14:53:51Z</time>
      </trkpt>
      <trkpt lat="51.362718874588609" lon="4.339546132832766">
        <ele>0.62</ele>
        <time>2014-11-23T14:53:39Z</time>
      </trkpt>
      <trkpt lat="51.362516535446048" lon="4.339624000713229">
        <ele>0.14</ele>
        <time>2014-11-23T14:53:24Z</time>
      </trkpt>
      <trkpt lat="51.362434308975935" lon="4.33963380753994">
        <ele>0.14</ele>
        <time>2014-11-23T14:53:20Z</time>
      </trkpt>
      <trkpt lat="51.362378066405654" lon="4.33964747004211">
        <ele>0.14</ele>
        <time>2014-11-23T14:53:17Z</time>
      </trkpt>
      <trkpt lat="51.362172374501824" lon="4.33975693769753">
        <ele>-0.34</ele>
        <time>2014-11-23T14:53:02Z</time>
      </trkpt>
      <trkpt lat="51.361962407827377" lon="4.339841594919562">
        <ele>-0.82</ele>
        <time>2014-11-23T14:52:46Z</time>
      </trkpt>
      <trkpt lat="51.361885210499167" lon="4.339860118925571">
        <ele>-0.82</ele>
        <time>2014-11-23T14:52:42Z</time>
      </trkpt>
      <trkpt lat="51.361748166382313" lon="4.339927844703198">
        <ele>0.14</ele>
        <time>2014-11-23T14:52:33Z</time>
      </trkpt>
      <trkpt lat="51.361733078956604" lon="4.339936058968306">
        <ele>-2.75</ele>
        <time>2014-11-23T14:52:32Z</time>
      </trkpt>
      <trkpt lat="51.361714890226722" lon="4.339947961270809">
        <ele>1.58</ele>
        <time>2014-11-23T14:52:31Z</time>
      </trkpt>
      <trkpt lat="51.361694438382983" lon="4.339962797239423">
        <ele>-3.71</ele>
        <time>2014-11-23T14:52:30Z</time>
      </trkpt>
      <trkpt lat="51.361429067328572" lon="4.340055249631405">
        <ele>-1.3</ele>
        <time>2014-11-23T14:52:12Z</time>
      </trkpt>
      <trkpt lat="51.361223962157965" lon="4.340091543272138">
        <ele>-1.3</ele>
        <time>2014-11-23T14:52:00Z</time>
      </trkpt>
      <trkpt lat="51.361176269128919" lon="4.340116437524557">
        <ele>-1.3</ele>
        <time>2014-11-23T14:51:56Z</time>
      </trkpt>
      <trkpt lat="51.361036207526922" lon="4.340200591832399">
        <ele>-1.3</ele>
        <time>2014-11-23T14:51:47Z</time>
      </trkpt>
      <trkpt lat="51.360829006880522" lon="4.340219451114535">
        <ele>-0.82</ele>
        <time>2014-11-23T14:51:33Z</time>
      </trkpt>
      <trkpt lat="51.360669750720263" lon="4.340289356186986">
        <ele>0.14</ele>
        <time>2014-11-23T14:51:20Z</time>
      </trkpt>
      <trkpt lat="51.360474955290556" lon="4.340323889628053">
        <ele>0.62</ele>
        <time>2014-11-23T14:51:06Z</time>
      </trkpt>
      <trkpt lat="51.360279573127627" lon="4.340374516323209">
        <ele>0.62</ele>
        <time>2014-11-23T14:50:54Z</time>
      </trkpt>
      <trkpt lat="51.360083436593413" lon="4.340440900996327">
        <ele>0.14</ele>
        <time>2014-11-23T14:50:41Z</time>
      </trkpt>
      <trkpt lat="51.359853353351355" lon="4.340493204072118">
        <ele>-0.34</ele>
        <time>2014-11-23T14:50:25Z</time>
      </trkpt>
      <trkpt lat="51.359618073329329" lon="4.340533101931214">
        <ele>-0.34</ele>
        <time>2014-11-23T14:50:09Z</time>
      </trkpt>
      <trkpt lat="51.359364856034517" lon="4.340559924021363">
        <ele>-0.82</ele>
        <time>2014-11-23T14:49:53Z</time>
      </trkpt>
      <trkpt lat="51.359217250719666" lon="4.34059982188046">
        <ele>-0.82</ele>
        <time>2014-11-23T14:49:43Z</time>
      </trkpt>
      <trkpt lat="51.359092192724347" lon="4.340665871277452">
        <ele>-0.82</ele>
        <time>2014-11-23T14:49:33Z</time>
      </trkpt>
      <trkpt lat="51.358982305973768" lon="4.340699734166265">
        <ele>-1.3</ele>
        <time>2014-11-23T14:49:20Z</time>
      </trkpt>
      <trkpt lat="51.358966631814837" lon="4.340715324506164">
        <ele>-1.3</ele>
        <time>2014-11-23T14:49:05Z</time>
      </trkpt>
      <trkpt lat="51.359004266560078" lon="4.340868210420013">
        <ele>-0.82</ele>
        <time>2014-11-23T14:48:50Z</time>
      </trkpt>
      <trkpt lat="51.359088839963078" lon="4.341142131015658">
        <ele>-0.34</ele>
        <time>2014-11-23T14:48:35Z</time>
      </trkpt>
      <trkpt lat="51.359135108068585" lon="4.341217484325171">
        <ele>0.14</ele>
        <time>2014-11-23T14:48:31Z</time>
      </trkpt>
      <trkpt lat="51.359230326488614" lon="4.341304153203964">
        <ele>0.14</ele>
        <time>2014-11-23T14:48:25Z</time>
      </trkpt>
      <trkpt lat="51.359302075579762" lon="4.341435329988599">
        <ele>0.14</ele>
        <time>2014-11-23T14:48:19Z</time>
      </trkpt>
      <trkpt lat="51.359336944296956" lon="4.341578492894769">
        <ele>0.14</ele>
        <time>2014-11-23T14:48:13Z</time>
      </trkpt>
      <trkpt lat="51.359442556276917" lon="4.341763900592923">
        <ele>0.14</ele>
        <time>2014-11-23T14:47:56Z</time>
      </trkpt>
      <trkpt lat="51.359565518796444" lon="4.341975543648005">
        <ele>0.14</ele>
        <time>2014-11-23T14:47:41Z</time>
      </trkpt>
      <trkpt lat="51.359602902084589" lon="4.34203346259892">
        <ele>0.14</ele>
        <time>2014-11-23T14:47:38Z</time>
      </trkpt>
      <trkpt lat="51.359622934833169" lon="4.342094147577882">
        <ele>0.14</ele>
        <time>2014-11-23T14:47:34Z</time>
      </trkpt>
      <trkpt lat="51.359693091362715" lon="4.342279303818941">
        <ele>0.14</ele>
        <time>2014-11-23T14:47:22Z</time>
      </trkpt>
      <trkpt lat="51.359806582331657" lon="4.342556660994887">
        <ele>0.14</ele>
        <time>2014-11-23T14:47:09Z</time>
      </trkpt>
      <trkpt lat="51.359817981719971" lon="4.342597899958491">
        <ele>0.62</ele>
        <time>2014-11-23T14:47:07Z</time>
      </trkpt>
      <trkpt lat="51.359891491010785" lon="4.342751540243626">
        <ele>0.62</ele>
        <time>2014-11-23T14:46:57Z</time>
      </trkpt>
      <trkpt lat="51.360020153224468" lon="4.343109196051955">
        <ele>0.62</ele>
        <time>2014-11-23T14:46:41Z</time>
      </trkpt>
      <trkpt lat="51.360199106857181" lon="4.343380099162459">
        <ele>0.14</ele>
        <time>2014-11-23T14:46:27Z</time>
      </trkpt>
      <trkpt lat="51.360349981114268" lon="4.343787794932723">
        <ele>-0.34</ele>
        <time>2014-11-23T14:46:11Z</time>
      </trkpt>
      <trkpt lat="51.360385520383716" lon="4.343907991424203">
        <ele>-0.82</ele>
        <time>2014-11-23T14:46:03Z</time>
      </trkpt>
      <trkpt lat="51.36041552759707" lon="4.343953840434551">
        <ele>-0.34</ele>
        <time>2014-11-23T14:46:01Z</time>
      </trkpt>
      <trkpt lat="51.360432542860508" lon="4.343981919810176">
        <ele>-0.34</ele>
        <time>2014-11-23T14:45:59Z</time>
      </trkpt>
      <trkpt lat="51.360457101836801" lon="4.344010921195149">
        <ele>-0.34</ele>
        <time>2014-11-23T14:45:56Z</time>
      </trkpt>
      <trkpt lat="51.360519798472524" lon="4.344387520104647">
        <ele>-0.34</ele>
        <time>2014-11-23T14:45:41Z</time>
      </trkpt>
      <trkpt lat="51.360660279169679" lon="4.344614837318659">
        <ele>-0.34</ele>
        <time>2014-11-23T14:45:27Z</time>
      </trkpt>
      <trkpt lat="51.360829090699553" lon="4.344762358814478">
        <ele>0.14</ele>
        <time>2014-11-23T14:45:15Z</time>
      </trkpt>
      <trkpt lat="51.360985413193703" lon="4.344964027404785">
        <ele>0.62</ele>
        <time>2014-11-23T14:45:02Z</time>
      </trkpt>
      <trkpt lat="51.361180376261473" lon="4.345186986029148">
        <ele>1.1</ele>
        <time>2014-11-23T14:44:47Z</time>
      </trkpt>
      <trkpt lat="51.361243156716228" lon="4.345294693484902">
        <ele>1.1</ele>
        <time>2014-11-23T14:44:41Z</time>
      </trkpt>
      <trkpt lat="51.361283054575324" lon="4.345360407605767">
        <ele>1.1</ele>
        <time>2014-11-23T14:44:36Z</time>
      </trkpt>
      <trkpt lat="51.36133074760437" lon="4.345436850562692">
        <ele>1.1</ele>
        <time>2014-11-23T14:44:31Z</time>
      </trkpt>
      <trkpt lat="51.361372321844101" lon="4.345541372895241">
        <ele>1.1</ele>
        <time>2014-11-23T14:44:25Z</time>
      </trkpt>
      <trkpt lat="51.361377770081162" lon="4.345589149743319">
        <ele>1.1</ele>
        <time>2014-11-23T14:44:23Z</time>
      </trkpt>
      <trkpt lat="51.361456140875816" lon="4.345772294327617">
        <ele>1.1</ele>
        <time>2014-11-23T14:44:14Z</time>
      </trkpt>
      <trkpt lat="51.361471395939589" lon="4.345828285440803">
        <ele>1.1</ele>
        <time>2014-11-23T14:44:11Z</time>
      </trkpt>
      <trkpt lat="51.361503079533577" lon="4.346001958474517">
        <ele>1.1</ele>
        <time>2014-11-23T14:44:03Z</time>
      </trkpt>
      <trkpt lat="51.361562674865127" lon="4.346186025068164">
        <ele>1.1</ele>
        <time>2014-11-23T14:43:57Z</time>
      </trkpt>
      <trkpt lat="51.361619420349598" lon="4.346393309533596">
        <ele>1.1</ele>
        <time>2014-11-23T14:43:50Z</time>
      </trkpt>
      <trkpt lat="51.361658060923219" lon="4.346704864874482">
        <ele>1.1</ele>
        <time>2014-11-23T14:43:37Z</time>
      </trkpt>
      <trkpt lat="51.361662251874804" lon="4.346734117716551">
        <ele>1.1</ele>
        <time>2014-11-23T14:43:36Z</time>
      </trkpt>
      <trkpt lat="51.36167666874826" lon="4.346961099654436">
        <ele>1.58</ele>
        <time>2014-11-23T14:43:22Z</time>
      </trkpt>
      <trkpt lat="51.361698042601347" lon="4.347053216770291">
        <ele>1.58</ele>
        <time>2014-11-23T14:43:17Z</time>
      </trkpt>
      <trkpt lat="51.36173483915627" lon="4.347226051613689">
        <ele>1.58</ele>
        <time>2014-11-23T14:43:08Z</time>
      </trkpt>
      <trkpt lat="51.361774485558271" lon="4.347324203699827">
        <ele>1.1</ele>
        <time>2014-11-23T14:43:05Z</time>
      </trkpt>
      <trkpt lat="51.361849922686815" lon="4.347635842859745">
        <ele>1.58</ele>
        <time>2014-11-23T14:42:51Z</time>
      </trkpt>
      <trkpt lat="51.36185746639967" lon="4.347689654678106">
        <ele>1.58</ele>
        <time>2014-11-23T14:42:49Z</time>
      </trkpt>
      <trkpt lat="51.36190096847713" lon="4.348114868625999">
        <ele>2.06</ele>
        <time>2014-11-23T14:42:33Z</time>
      </trkpt>
      <trkpt lat="51.361968275159597" lon="4.348337659612298">
        <ele>2.06</ele>
        <time>2014-11-23T14:42:25Z</time>
      </trkpt>
      <trkpt lat="51.361997276544571" lon="4.348726579919457">
        <ele>2.06</ele>
        <time>2014-11-23T14:42:08Z</time>
      </trkpt>
      <trkpt lat="51.362019740045071" lon="4.348828671500087">
        <ele>1.58</ele>
        <time>2014-11-23T14:42:02Z</time>
      </trkpt>
      <trkpt lat="51.362055446952581" lon="4.348900504410267">
        <ele>1.58</ele>
        <time>2014-11-23T14:41:56Z</time>
      </trkpt>
      <trkpt lat="51.362075228244066" lon="4.349103178828955">
        <ele>1.58</ele>
        <time>2014-11-23T14:41:46Z</time>
      </trkpt>
      <trkpt lat="51.362160723656416" lon="4.349396880716085">
        <ele>1.58</ele>
        <time>2014-11-23T14:41:33Z</time>
      </trkpt>
      <trkpt lat="51.362249990925193" lon="4.349718997254968">
        <ele>2.06</ele>
        <time>2014-11-23T14:41:18Z</time>
      </trkpt>
      <trkpt lat="51.362289302051067" lon="4.350006077438593">
        <ele>2.06</ele>
        <time>2014-11-23T14:41:06Z</time>
      </trkpt>
      <trkpt lat="51.362324254587293" lon="4.350372534245253">
        <ele>2.54</ele>
        <time>2014-11-23T14:40:51Z</time>
      </trkpt>
      <trkpt lat="51.362353675067425" lon="4.350460460409522">
        <ele>2.54</ele>
        <time>2014-11-23T14:40:47Z</time>
      </trkpt>
      <trkpt lat="51.362449983134866" lon="4.35073982924223">
        <ele>2.06</ele>
        <time>2014-11-23T14:40:33Z</time>
      </trkpt>
      <trkpt lat="51.36253958567977" lon="4.351090947166085">
        <ele>2.54</ele>
        <time>2014-11-23T14:40:18Z</time>
      </trkpt>
      <trkpt lat="51.362631702795625" lon="4.351146686822176">
        <ele>2.54</ele>
        <time>2014-11-23T14:40:09Z</time>
      </trkpt>
      <trkpt lat="51.362718790769577" lon="4.351049792021513">
        <ele>2.54</ele>
        <time>2014-11-23T14:40:03Z</time>
      </trkpt>
      <trkpt lat="51.362862205132842" lon="4.350811745971441">
        <ele>3.02</ele>
        <time>2014-11-23T14:39:49Z</time>
      </trkpt>
      <trkpt lat="51.362881902605295" lon="4.350787857547402">
        <ele>2.54</ele>
        <time>2014-11-23T14:39:48Z</time>
      </trkpt>
      <trkpt lat="51.363035291433334" lon="4.350650897249579">
        <ele>2.54</ele>
        <time>2014-11-23T14:39:33Z</time>
      </trkpt>
      <trkpt lat="51.36312548071146" lon="4.351009055972099">
        <ele>2.54</ele>
        <time>2014-11-23T14:39:17Z</time>
      </trkpt>
      <trkpt lat="51.363209970295429" lon="4.351349025964737">
        <ele>2.54</ele>
        <time>2014-11-23T14:39:02Z</time>
      </trkpt>
      <trkpt lat="51.363291358575225" lon="4.351672232151032">
        <ele>2.54</ele>
        <time>2014-11-23T14:38:46Z</time>
      </trkpt>
      <trkpt lat="51.363338883966208" lon="4.351856131106615">
        <ele>3.02</ele>
        <time>2014-11-23T14:38:38Z</time>
      </trkpt>
      <trkpt lat="51.363363526761532" lon="4.351950511336327">
        <ele>3.02</ele>
        <time>2014-11-23T14:38:34Z</time>
      </trkpt>
      <trkpt lat="51.36337467469275" lon="4.35200298205018">
        <ele>2.54</ele>
        <time>2014-11-23T14:38:31Z</time>
      </trkpt>
      <trkpt lat="51.363400490954518" lon="4.352312441915274">
        <ele>2.54</ele>
        <time>2014-11-23T14:38:16Z</time>
      </trkpt>
      <trkpt lat="51.363513730466366" lon="4.35274126008153">
        <ele>2.06</ele>
        <time>2014-11-23T14:37:58Z</time>
      </trkpt>
      <trkpt lat="51.363516245037317" lon="4.352777302265167">
        <ele>2.54</ele>
        <time>2014-11-23T14:37:56Z</time>
      </trkpt>
      <trkpt lat="51.363613642752171" lon="4.353187680244446">
        <ele>2.06</ele>
        <time>2014-11-23T14:37:37Z</time>
      </trkpt>
      <trkpt lat="51.363708358258009" lon="4.353555897250772">
        <ele>2.06</ele>
        <time>2014-11-23T14:37:21Z</time>
      </trkpt>
      <trkpt lat="51.363816484808922" lon="4.35379721224308">
        <ele>2.06</ele>
        <time>2014-11-23T14:37:07Z</time>
      </trkpt>
      <trkpt lat="51.363857137039304" lon="4.353796793147922">
        <ele>2.06</ele>
        <time>2014-11-23T14:37:03Z</time>
      </trkpt>
      <trkpt lat="51.363903488963842" lon="4.353825878351927">
        <ele>2.54</ele>
        <time>2014-11-23T14:36:58Z</time>
      </trkpt>
      <trkpt lat="51.363910278305411" lon="4.353868961334229">
        <ele>2.54</ele>
        <time>2014-11-23T14:36:47Z</time>
      </trkpt>
      <trkpt lat="51.363927712664008" lon="4.353961749002338">
        <ele>2.06</ele>
        <time>2014-11-23T14:36:26Z</time>
      </trkpt>
      <trkpt lat="51.363997031003237" lon="4.354260647669435">
        <ele>2.06</ele>
        <time>2014-11-23T14:36:12Z</time>
      </trkpt>
      <trkpt lat="51.364053525030613" lon="4.354623248800635">
        <ele>2.06</ele>
        <time>2014-11-23T14:35:56Z</time>
      </trkpt>
      <trkpt lat="51.36413793079555" lon="4.354993896558881">
        <ele>2.06</ele>
        <time>2014-11-23T14:35:41Z</time>
      </trkpt>
      <trkpt lat="51.364210098981857" lon="4.355378039181233">
        <ele>2.54</ele>
        <time>2014-11-23T14:35:25Z</time>
      </trkpt>
      <trkpt lat="51.364279584959149" lon="4.355751620605588">
        <ele>3.5</ele>
        <time>2014-11-23T14:35:08Z</time>
      </trkpt>
      <trkpt lat="51.364356363192201" lon="4.356129392981529">
        <ele>2.54</ele>
        <time>2014-11-23T14:34:52Z</time>
      </trkpt>
      <trkpt lat="51.364419311285019" lon="4.356521079316735">
        <ele>2.54</ele>
        <time>2014-11-23T14:34:35Z</time>
      </trkpt>
      <trkpt lat="51.36451511643827" lon="4.356912849470973">
        <ele>2.54</ele>
        <time>2014-11-23T14:34:17Z</time>
      </trkpt>
      <trkpt lat="51.364539256319404" lon="4.357036733999848">
        <ele>2.54</ele>
        <time>2014-11-23T14:34:11Z</time>
      </trkpt>
      <trkpt lat="51.364626763388515" lon="4.357422469183803">
        <ele>2.54</ele>
        <time>2014-11-23T14:33:55Z</time>
      </trkpt>
      <trkpt lat="51.364648891612887" lon="4.35756211169064">
        <ele>2.54</ele>
        <time>2014-11-23T14:33:49Z</time>
      </trkpt>
      <trkpt lat="51.364721395075321" lon="4.357928233221173">
        <ele>2.54</ele>
        <time>2014-11-23T14:33:32Z</time>
      </trkpt>
      <trkpt lat="51.364802699536085" lon="4.358303993940353">
        <ele>3.02</ele>
        <time>2014-11-23T14:33:14Z</time>
      </trkpt>
      <trkpt lat="51.364815859124064" lon="4.358357470482588">
        <ele>3.02</ele>
        <time>2014-11-23T14:33:11Z</time>
      </trkpt>
      <trkpt lat="51.364870676770806" lon="4.358674976974726">
        <ele>2.54</ele>
        <time>2014-11-23T14:32:57Z</time>
      </trkpt>
      <trkpt lat="51.36492071673274" lon="4.359041685238481">
        <ele>2.54</ele>
        <time>2014-11-23T14:32:42Z</time>
      </trkpt>
      <trkpt lat="51.364921638742089" lon="4.359072027727962">
        <ele>2.54</ele>
        <time>2014-11-23T14:32:40Z</time>
      </trkpt>
      <trkpt lat="51.364984083920717" lon="4.359295573085547">
        <ele>2.54</ele>
        <time>2014-11-23T14:32:28Z</time>
      </trkpt>
      <trkpt lat="51.365019623190165" lon="4.359496738761663">
        <ele>3.02</ele>
        <time>2014-11-23T14:32:20Z</time>
      </trkpt>
      <trkpt lat="51.365086426958442" lon="4.35981466434896">
        <ele>3.02</ele>
        <time>2014-11-23T14:32:06Z</time>
      </trkpt>
      <trkpt lat="51.36515524238348" lon="4.360149772837758">
        <ele>3.02</ele>
        <time>2014-11-23T14:31:51Z</time>
      </trkpt>
      <trkpt lat="51.365226740017533" lon="4.360488904640079">
        <ele>3.02</ele>
        <time>2014-11-23T14:31:34Z</time>
      </trkpt>
      <trkpt lat="51.36525590904057" lon="4.360581608489156">
        <ele>3.02</ele>
        <time>2014-11-23T14:31:30Z</time>
      </trkpt>
      <trkpt lat="51.365273343399167" lon="4.360655704513192">
        <ele>3.02</ele>
        <time>2014-11-23T14:31:27Z</time>
      </trkpt>
      <trkpt lat="51.365337297320366" lon="4.361083181574941">
        <ele>3.02</ele>
        <time>2014-11-23T14:31:10Z</time>
      </trkpt>
      <trkpt lat="51.365207629278302" lon="4.361245203763247">
        <ele>3.02</ele>
        <time>2014-11-23T14:30:57Z</time>
      </trkpt>
      <trkpt lat="51.364927254617214" lon="4.361472856253386">
        <ele>3.98</ele>
        <time>2014-11-23T14:30:39Z</time>
      </trkpt>
      <trkpt lat="51.36489624157548" lon="4.361487021669745">
        <ele>3.5</ele>
        <time>2014-11-23T14:30:37Z</time>
      </trkpt>
      <trkpt lat="51.364840501919389" lon="4.361519208177924">
        <ele>3.02</ele>
        <time>2014-11-23T14:30:33Z</time>
      </trkpt>
      <trkpt lat="51.364780403673649" lon="4.361547874286771">
        <ele>3.02</ele>
        <time>2014-11-23T14:30:29Z</time>
      </trkpt>
      <trkpt lat="51.364722065627575" lon="4.36155566945672">
        <ele>3.02</ele>
        <time>2014-11-23T14:30:25Z</time>
      </trkpt>
      <trkpt lat="51.364481085911393" lon="4.361759182065725">
        <ele>3.5</ele>
        <time>2014-11-23T14:30:07Z</time>
      </trkpt>
      <trkpt lat="51.364265168085694" lon="4.361943919211626">
        <ele>3.5</ele>
        <time>2014-11-23T14:29:50Z</time>
      </trkpt>
      <trkpt lat="51.364047741517425" lon="4.362092362716794">
        <ele>3.5</ele>
        <time>2014-11-23T14:29:35Z</time>
      </trkpt>
      <trkpt lat="51.363810785114765" lon="4.362295037135482">
        <ele>3.5</ele>
        <time>2014-11-23T14:29:18Z</time>
      </trkpt>
      <trkpt lat="51.363575169816613" lon="4.362455969676375">
        <ele>3.5</ele>
        <time>2014-11-23T14:29:03Z</time>
      </trkpt>
      <trkpt lat="51.363529153168201" lon="4.362530317157507">
        <ele>3.5</ele>
        <time>2014-11-23T14:28:58Z</time>
      </trkpt>
      <trkpt lat="51.36356184259057" lon="4.362818319350481">
        <ele>3.5</ele>
        <time>2014-11-23T14:28:45Z</time>
      </trkpt>
      <trkpt lat="51.363718919456005" lon="4.363418966531754">
        <ele>3.98</ele>
        <time>2014-11-23T14:28:31Z</time>
      </trkpt>
      <trkpt lat="51.36371523141861" lon="4.363821633160114">
        <ele>3.5</ele>
        <time>2014-11-23T14:28:22Z</time>
      </trkpt>
      <trkpt lat="51.363768456503749" lon="4.364198064431548">
        <ele>3.5</ele>
        <time>2014-11-23T14:28:13Z</time>
      </trkpt>
      <trkpt lat="51.363922515884042" lon="4.364675329998136">
        <ele>3.5</ele>
        <time>2014-11-23T14:28:02Z</time>
      </trkpt>
      <trkpt lat="51.364103062078357" lon="4.365173298865557">
        <ele>3.5</ele>
        <time>2014-11-23T14:27:51Z</time>
      </trkpt>
      <trkpt lat="51.364173386245966" lon="4.365353677421808">
        <ele>3.5</ele>
        <time>2014-11-23T14:27:47Z</time>
      </trkpt>
      <trkpt lat="51.36418285779655" lon="4.365401454269886">
        <ele>3.5</ele>
        <time>2014-11-23T14:27:46Z</time>
      </trkpt>
      <trkpt lat="51.364271119236946" lon="4.365782830864191">
        <ele>3.98</ele>
        <time>2014-11-23T14:27:35Z</time>
      </trkpt>
      <trkpt lat="51.36439198628068" lon="4.366226233541966">
        <ele>4.46</ele>
        <time>2014-11-23T14:27:24Z</time>
      </trkpt>
      <trkpt lat="51.364504219964147" lon="4.366811709478498">
        <ele>3.5</ele>
        <time>2014-11-23T14:27:11Z</time>
      </trkpt>
      <trkpt lat="51.364579908549786" lon="4.367348486557603">
        <ele>3.5</ele>
        <time>2014-11-23T14:26:58Z</time>
      </trkpt>
      <trkpt lat="51.364650232717395" lon="4.367904458194971">
        <ele>3.98</ele>
        <time>2014-11-23T14:26:47Z</time>
      </trkpt>
      <trkpt lat="51.364720556885004" lon="4.368368145078421">
        <ele>3.98</ele>
        <time>2014-11-23T14:26:33Z</time>
      </trkpt>
      <trkpt lat="51.364743858575821" lon="4.368419107049704">
        <ele>3.98</ele>
        <time>2014-11-23T14:26:31Z</time>
      </trkpt>
      <trkpt lat="51.364791383966804" lon="4.368671402335167">
        <ele>3.98</ele>
        <time>2014-11-23T14:26:20Z</time>
      </trkpt>
      <trkpt lat="51.364870257675648" lon="4.36906929127872">
        <ele>3.98</ele>
        <time>2014-11-23T14:26:04Z</time>
      </trkpt>
      <trkpt lat="51.364875538274646" lon="4.369156127795577">
        <ele>3.98</ele>
        <time>2014-11-23T14:26:01Z</time>
      </trkpt>
      <trkpt lat="51.364879393950105" lon="4.369231732562184">
        <ele>6.39</ele>
        <time>2014-11-23T14:25:58Z</time>
      </trkpt>
      <trkpt lat="51.36487914249301" lon="4.36926132068038">
        <ele>1.58</ele>
        <time>2014-11-23T14:25:57Z</time>
      </trkpt>
      <trkpt lat="51.364928176626563" lon="4.36945385299623">
        <ele>5.42</ele>
        <time>2014-11-23T14:25:50Z</time>
      </trkpt>
      <trkpt lat="51.364933708682656" lon="4.369479669257999">
        <ele>2.54</ele>
        <time>2014-11-23T14:25:49Z</time>
      </trkpt>
      <trkpt lat="51.365000260993838" lon="4.36984428204596">
        <ele>3.98</ele>
        <time>2014-11-23T14:25:33Z</time>
      </trkpt>
      <trkpt lat="51.36503747664392" lon="4.36990974470973">
        <ele>4.46</ele>
        <time>2014-11-23T14:25:28Z</time>
      </trkpt>
      <trkpt lat="51.365056838840246" lon="4.369934052228928">
        <ele>4.46</ele>
        <time>2014-11-23T14:25:26Z</time>
      </trkpt>
      <trkpt lat="51.365272589027882" lon="4.369716458022595">
        <ele>4.94</ele>
        <time>2014-11-23T14:25:10Z</time>
      </trkpt>
      <trkpt lat="51.365463780239224" lon="4.369513196870685">
        <ele>4.94</ele>
        <time>2014-11-23T14:24:55Z</time>
      </trkpt>
      <trkpt lat="51.365558411926031" lon="4.369447650387883">
        <ele>4.94</ele>
        <time>2014-11-23T14:24:50Z</time>
      </trkpt>
      <trkpt lat="51.365736443549395" lon="4.369391156360507">
        <ele>4.94</ele>
        <time>2014-11-23T14:24:36Z</time>
      </trkpt>
      <trkpt lat="51.365931993350387" lon="4.369298871606588">
        <ele>4.94</ele>
        <time>2014-11-23T14:24:22Z</time>
      </trkpt>
      <trkpt lat="51.366185629740357" lon="4.369169706478715">
        <ele>4.94</ele>
        <time>2014-11-23T14:24:06Z</time>
      </trkpt>
      <trkpt lat="51.366397775709629" lon="4.369039200246334">
        <ele>4.46</ele>
        <time>2014-11-23T14:23:53Z</time>
      </trkpt>
      <trkpt lat="51.366615034639835" lon="4.36890609562397">
        <ele>4.94</ele>
        <time>2014-11-23T14:23:37Z</time>
      </trkpt>
      <trkpt lat="51.366716707125306" lon="4.36869889497757">
        <ele>5.42</ele>
        <time>2014-11-23T14:23:27Z</time>
      </trkpt>
      <trkpt lat="51.366858445107937" lon="4.368421537801623">
        <ele>4.94</ele>
        <time>2014-11-23T14:23:11Z</time>
      </trkpt>
      <trkpt lat="51.366900941357017" lon="4.368381556123495">
        <ele>4.94</ele>
        <time>2014-11-23T14:23:08Z</time>
      </trkpt>
      <trkpt lat="51.36714837513864" lon="4.368137139827013">
        <ele>5.42</ele>
        <time>2014-11-23T14:22:51Z</time>
      </trkpt>
      <trkpt lat="51.367411315441132" lon="4.367959024384618">
        <ele>4.94</ele>
        <time>2014-11-23T14:22:35Z</time>
      </trkpt>
      <trkpt lat="51.367626814171672" lon="4.367809826508164">
        <ele>4.94</ele>
        <time>2014-11-23T14:22:18Z</time>
      </trkpt>
      <trkpt lat="51.36783879250288" lon="4.367695413529873">
        <ele>5.42</ele>
        <time>2014-11-23T14:22:03Z</time>
      </trkpt>
      <trkpt lat="51.36812562122941" lon="4.367503635585308">
        <ele>5.42</ele>
        <time>2014-11-23T14:21:44Z</time>
      </trkpt>
      <trkpt lat="51.368302060291171" lon="4.36736298725009">
        <ele>5.42</ele>
        <time>2014-11-23T14:21:32Z</time>
      </trkpt>
      <trkpt lat="51.368547063320875" lon="4.367217980325222">
        <ele>5.42</ele>
        <time>2014-11-23T14:21:15Z</time>
      </trkpt>
      <trkpt lat="51.368599031120539" lon="4.367183111608028">
        <ele>5.42</ele>
        <time>2014-11-23T14:21:10Z</time>
      </trkpt>
      <trkpt lat="51.368822827935219" lon="4.367019161581993">
        <ele>5.42</ele>
        <time>2014-11-23T14:20:57Z</time>
      </trkpt>
      <trkpt lat="51.369015527889132" lon="4.366882955655456">
        <ele>5.42</ele>
        <time>2014-11-23T14:20:40Z</time>
      </trkpt>
      <trkpt lat="51.369040003046393" lon="4.366855630651116">
        <ele>5.91</ele>
        <time>2014-11-23T14:20:38Z</time>
      </trkpt>
      <trkpt lat="51.369170257821679" lon="4.367026453837752">
        <ele>5.91</ele>
        <time>2014-11-23T14:20:22Z</time>
      </trkpt>
      <trkpt lat="51.369217867031693" lon="4.367387713864446">
        <ele>5.91</ele>
        <time>2014-11-23T14:20:07Z</time>
      </trkpt>
      <trkpt lat="51.369339656084776" lon="4.367744950577617">
        <ele>5.91</ele>
        <time>2014-11-23T14:19:52Z</time>
      </trkpt>
      <trkpt lat="51.369453398510814" lon="4.367726594209671">
        <ele>5.91</ele>
        <time>2014-11-23T14:19:45Z</time>
      </trkpt>
      <trkpt lat="51.369493212550879" lon="4.36770454980433">
        <ele>5.91</ele>
        <time>2014-11-23T14:19:42Z</time>
      </trkpt>
      <trkpt lat="51.369562530890107" lon="4.367689462378621">
        <ele>5.91</ele>
        <time>2014-11-23T14:19:36Z</time>
      </trkpt>
      <trkpt lat="51.369861681014299" lon="4.367657359689474">
        <ele>5.91</ele>
        <time>2014-11-23T14:19:20Z</time>
      </trkpt>
      <trkpt lat="51.369878696277738" lon="4.367650989443064">
        <ele>5.91</ele>
        <time>2014-11-23T14:19:19Z</time>
      </trkpt>
      <trkpt lat="51.370091009885073" lon="4.367532888427377">
        <ele>5.91</ele>
        <time>2014-11-23T14:19:07Z</time>
      </trkpt>
      <trkpt lat="51.370336767286062" lon="4.367473125457764">
        <ele>5.91</ele>
        <time>2014-11-23T14:18:52Z</time>
      </trkpt>
      <trkpt lat="51.370579842478037" lon="4.367439346387982">
        <ele>5.42</ele>
        <time>2014-11-23T14:18:36Z</time>
      </trkpt>
      <trkpt lat="51.370834233239293" lon="4.367408417165279">
        <ele>5.91</ele>
        <time>2014-11-23T14:18:20Z</time>
      </trkpt>
      <trkpt lat="51.370972618460655" lon="4.367341361939907">
        <ele>5.91</ele>
        <time>2014-11-23T14:18:12Z</time>
      </trkpt>
      <trkpt lat="51.371005224063993" lon="4.367339853197336">
        <ele>5.91</ele>
        <time>2014-11-23T14:18:10Z</time>
      </trkpt>
      <trkpt lat="51.371219968423247" lon="4.367459965869784">
        <ele>5.91</ele>
        <time>2014-11-23T14:17:55Z</time>
      </trkpt>
      <trkpt lat="51.371249640360475" lon="4.367685858160257">
        <ele>5.91</ele>
        <time>2014-11-23T14:17:45Z</time>
      </trkpt>
      <trkpt lat="51.371294818818569" lon="4.367834720760584">
        <ele>5.91</ele>
        <time>2014-11-23T14:17:39Z</time>
      </trkpt>
      <trkpt lat="51.371332202106714" lon="4.367984170094132">
        <ele>5.91</ele>
        <time>2014-11-23T14:17:34Z</time>
      </trkpt>
      <trkpt lat="51.371339913457632" lon="4.368019793182612">
        <ele>5.91</ele>
        <time>2014-11-23T14:17:33Z</time>
      </trkpt>
      <trkpt lat="51.371415434405208" lon="4.368327660486102">
        <ele>5.91</ele>
        <time>2014-11-23T14:17:20Z</time>
      </trkpt>
      <trkpt lat="51.371480897068977" lon="4.368670228868723">
        <ele>5.91</ele>
        <time>2014-11-23T14:17:06Z</time>
      </trkpt>
      <trkpt lat="51.371515514329076" lon="4.368867455050349">
        <ele>5.91</ele>
        <time>2014-11-23T14:16:54Z</time>
      </trkpt>
      <trkpt lat="51.371572762727737" lon="4.369219662621617">
        <ele>5.91</ele>
        <time>2014-11-23T14:16:37Z</time>
      </trkpt>
      <trkpt lat="51.37158072553575" lon="4.369269786402583">
        <ele>5.91</ele>
        <time>2014-11-23T14:16:35Z</time>
      </trkpt>
      <trkpt lat="51.371626574546099" lon="4.3695227522403">
        <ele>6.39</ele>
        <time>2014-11-23T14:16:25Z</time>
      </trkpt>
      <trkpt lat="51.371632860973477" lon="4.369565332308412">
        <ele>5.91</ele>
        <time>2014-11-23T14:16:23Z</time>
      </trkpt>
      <trkpt lat="51.371671501547098" lon="4.369749147444964">
        <ele>5.91</ele>
        <time>2014-11-23T14:16:12Z</time>
      </trkpt>
      <trkpt lat="51.371733946725726" lon="4.370091799646616">
        <ele>5.91</ele>
        <time>2014-11-23T14:15:57Z</time>
      </trkpt>
      <trkpt lat="51.371740903705359" lon="4.37012666836381">
        <ele>6.39</ele>
        <time>2014-11-23T14:15:55Z</time>
      </trkpt>
      <trkpt lat="51.371733695268631" lon="4.370475439354777">
        <ele>6.39</ele>
        <time>2014-11-23T14:15:39Z</time>
      </trkpt>
      <trkpt lat="51.371668567880988" lon="4.370741648599505">
        <ele>6.87</ele>
        <time>2014-11-23T14:15:25Z</time>
      </trkpt>
      <trkpt lat="51.371588604524732" lon="4.371072063222528">
        <ele>6.87</ele>
        <time>2014-11-23T14:15:09Z</time>
      </trkpt>
      <trkpt lat="51.371581060811877" lon="4.371146410703659">
        <ele>6.87</ele>
        <time>2014-11-23T14:15:00Z</time>
      </trkpt>
      <trkpt lat="51.371623305603862" lon="4.371371632441878">
        <ele>6.87</ele>
        <time>2014-11-23T14:14:47Z</time>
      </trkpt>
      <trkpt lat="51.37166328728199" lon="4.371544132009149">
        <ele>7.35</ele>
        <time>2014-11-23T14:14:43Z</time>
      </trkpt>
      <trkpt lat="51.371693294495344" lon="4.371675811707974">
        <ele>6.87</ele>
        <time>2014-11-23T14:14:40Z</time>
      </trkpt>
      <trkpt lat="51.37188758701086" lon="4.372282326221466">
        <ele>6.87</ele>
        <time>2014-11-23T14:14:25Z</time>
      </trkpt>
      <trkpt lat="51.37194181792438" lon="4.372552055865526">
        <ele>7.35</ele>
        <time>2014-11-23T14:14:19Z</time>
      </trkpt>
      <trkpt lat="51.372043406590819" lon="4.372945921495557">
        <ele>6.87</ele>
        <time>2014-11-23T14:14:11Z</time>
      </trkpt>
      <trkpt lat="51.372141558676958" lon="4.373475909233093">
        <ele>7.83</ele>
        <time>2014-11-23T14:13:59Z</time>
      </trkpt>
      <trkpt lat="51.372240548953414" lon="4.374081753194332">
        <ele>8.310000000000001</ele>
        <time>2014-11-23T14:13:46Z</time>
      </trkpt>
      <trkpt lat="51.372281536459923" lon="4.37416322529316">
        <ele>8.310000000000001</ele>
        <time>2014-11-23T14:13:42Z</time>
      </trkpt>
      <trkpt lat="51.372351106256247" lon="4.374400768429041">
        <ele>7.83</ele>
        <time>2014-11-23T14:13:35Z</time>
      </trkpt>
      <trkpt lat="51.372414221987128" lon="4.374675443395972">
        <ele>8.310000000000001</ele>
        <time>2014-11-23T14:13:29Z</time>
      </trkpt>
      <trkpt lat="51.372563168406487" lon="4.375254968181253">
        <ele>8.310000000000001</ele>
        <time>2014-11-23T14:13:19Z</time>
      </trkpt>
      <trkpt lat="51.372661991044879" lon="4.375811778008938">
        <ele>8.789999999999999</ele>
        <time>2014-11-23T14:13:08Z</time>
      </trkpt>
      <trkpt lat="51.372700463980436" lon="4.375959383323789">
        <ele>9.75</ele>
        <time>2014-11-23T14:13:06Z</time>
      </trkpt>
      <trkpt lat="51.372784366831183" lon="4.376224838197231">
        <ele>8.789999999999999</ele>
        <time>2014-11-23T14:13:00Z</time>
      </trkpt>
      <trkpt lat="51.372935576364398" lon="4.376851888373494">
        <ele>8.789999999999999</ele>
        <time>2014-11-23T14:12:46Z</time>
      </trkpt>
      <trkpt lat="51.373018892481923" lon="4.377290681004524">
        <ele>8.789999999999999</ele>
        <time>2014-11-23T14:12:37Z</time>
      </trkpt>
      <trkpt lat="51.373123666271567" lon="4.377777921035886">
        <ele>8.789999999999999</ele>
        <time>2014-11-23T14:12:26Z</time>
      </trkpt>
      <trkpt lat="51.373253669589758" lon="4.378223167732358">
        <ele>9.27</ele>
        <time>2014-11-23T14:12:17Z</time>
      </trkpt>
      <trkpt lat="51.37336959131062" lon="4.378726836293936">
        <ele>9.27</ele>
        <time>2014-11-23T14:12:06Z</time>
      </trkpt>
      <trkpt lat="51.373465564101934" lon="4.379178117960692">
        <ele>9.27</ele>
        <time>2014-11-23T14:11:55Z</time>
      </trkpt>
      <trkpt lat="51.373538067564368" lon="4.37962269410491">
        <ele>9.27</ele>
        <time>2014-11-23T14:11:44Z</time>
      </trkpt>
      <trkpt lat="51.373574445024133" lon="4.379815645515919">
        <ele>9.75</ele>
        <time>2014-11-23T14:11:35Z</time>
      </trkpt>
      <trkpt lat="51.373582240194082" lon="4.379908265545964">
        <ele>9.75</ele>
        <time>2014-11-23T14:11:31Z</time>
      </trkpt>
      <trkpt lat="51.373653318732977" lon="4.380235159769654">
        <ele>10.23</ele>
        <time>2014-11-23T14:11:18Z</time>
      </trkpt>
      <trkpt lat="51.37374971061945" lon="4.380552666261792">
        <ele>9.75</ele>
        <time>2014-11-23T14:11:08Z</time>
      </trkpt>
      <trkpt lat="51.373818526044488" lon="4.380792723968625">
        <ele>9.75</ele>
        <time>2014-11-23T14:10:57Z</time>
      </trkpt>
      <trkpt lat="51.373864207416773" lon="4.381098160520196">
        <ele>9.75</ele>
        <time>2014-11-23T14:10:44Z</time>
      </trkpt>
      <trkpt lat="51.373931933194399" lon="4.381483141332865">
        <ele>9.75</ele>
        <time>2014-11-23T14:10:27Z</time>
      </trkpt>
      <trkpt lat="51.374089177697897" lon="4.381716325879097">
        <ele>9.75</ele>
        <time>2014-11-23T14:10:13Z</time>
      </trkpt>
      <trkpt lat="51.37410887517035" lon="4.381806934252381">
        <ele>9.75</ele>
        <time>2014-11-23T14:10:09Z</time>
      </trkpt>
      <trkpt lat="51.374119436368346" lon="4.38184104859829">
        <ele>9.75</ele>
        <time>2014-11-23T14:10:07Z</time>
      </trkpt>
      <trkpt lat="51.374235861003399" lon="4.382179845124483">
        <ele>9.75</ele>
        <time>2014-11-23T14:09:53Z</time>
      </trkpt>
      <trkpt lat="51.374285230413079" lon="4.382422668859363">
        <ele>9.27</ele>
        <time>2014-11-23T14:09:39Z</time>
      </trkpt>
      <trkpt lat="51.374385394155979" lon="4.382809577509761">
        <ele>9.27</ele>
        <time>2014-11-23T14:09:23Z</time>
      </trkpt>
      <trkpt lat="51.374233597889543" lon="4.383004875853658">
        <ele>9.27</ele>
        <time>2014-11-23T14:09:08Z</time>
      </trkpt>
      <trkpt lat="51.374148102477193" lon="4.383216938003898">
        <ele>9.27</ele>
        <time>2014-11-23T14:08:55Z</time>
      </trkpt>
      <trkpt lat="51.374111557379365" lon="4.383265553042293">
        <ele>9.27</ele>
        <time>2014-11-23T14:08:51Z</time>
      </trkpt>
      <trkpt lat="51.374088004231453" lon="4.383292542770505">
        <ele>10.23</ele>
        <time>2014-11-23T14:08:49Z</time>
      </trkpt>
      <trkpt lat="51.373891029506922" lon="4.383495133370161">
        <ele>8.789999999999999</ele>
        <time>2014-11-23T14:08:32Z</time>
      </trkpt>
      <trkpt lat="51.373664550483227" lon="4.383619939908385">
        <ele>9.27</ele>
        <time>2014-11-23T14:08:15Z</time>
      </trkpt>
      <trkpt lat="51.373465396463871" lon="4.3837452493608">
        <ele>8.789999999999999</ele>
        <time>2014-11-23T14:08:00Z</time>
      </trkpt>
      <trkpt lat="51.373350815847516" lon="4.383917413651943">
        <ele>8.789999999999999</ele>
        <time>2014-11-23T14:07:48Z</time>
      </trkpt>
      <trkpt lat="51.373315611854196" lon="4.3839749135077">
        <ele>9.27</ele>
        <time>2014-11-23T14:07:45Z</time>
      </trkpt>
      <trkpt lat="51.37318778783083" lon="4.384114304557443">
        <ele>9.75</ele>
        <time>2014-11-23T14:07:35Z</time>
      </trkpt>
      <trkpt lat="51.373162474483252" lon="4.384135091677308">
        <ele>12.630000000000001</ele>
        <time>2014-11-23T14:07:33Z</time>
      </trkpt>
      <trkpt lat="51.373150153085589" lon="4.38414691016078">
        <ele>6.39</ele>
        <time>2014-11-23T14:07:32Z</time>
      </trkpt>
      <trkpt lat="51.373137244954705" lon="4.38415814191103">
        <ele>9.27</ele>
        <time>2014-11-23T14:07:31Z</time>
      </trkpt>
      <trkpt lat="51.372943371534348" lon="4.38431890681386">
        <ele>9.27</ele>
        <time>2014-11-23T14:07:16Z</time>
      </trkpt>
      <trkpt lat="51.37288486585021" lon="4.384366935119033">
        <ele>9.27</ele>
        <time>2014-11-23T14:07:12Z</time>
      </trkpt>
      <trkpt lat="51.372834155336022" lon="4.38442250713706">
        <ele>9.27</ele>
        <time>2014-11-23T14:07:08Z</time>
      </trkpt>
      <trkpt lat="51.372799035161734" lon="4.384466931223869">
        <ele>9.27</ele>
        <time>2014-11-23T14:06:59Z</time>
      </trkpt>
      <trkpt lat="51.372787803411484" lon="4.384472044184804">
        <ele>9.27</ele>
        <time>2014-11-23T14:06:45Z</time>
      </trkpt>
      <trkpt lat="51.372672133147717" lon="4.384633228182793">
        <ele>9.27</ele>
        <time>2014-11-23T14:06:33Z</time>
      </trkpt>
      <trkpt lat="51.372734326869249" lon="4.384793238714337">
        <ele>8.789999999999999</ele>
        <time>2014-11-23T14:06:26Z</time>
      </trkpt>
      <trkpt lat="51.372761400416493" lon="4.385056849569082">
        <ele>8.789999999999999</ele>
        <time>2014-11-23T14:06:15Z</time>
      </trkpt>
      <trkpt lat="51.372914453968406" lon="4.385239323601127">
        <ele>9.27</ele>
        <time>2014-11-23T14:05:58Z</time>
      </trkpt>
      <trkpt lat="51.373125594109297" lon="4.385196408256888">
        <ele>9.27</ele>
        <time>2014-11-23T14:05:42Z</time>
      </trkpt>
      <trkpt lat="51.373136658221483" lon="4.385200683027506">
        <ele>9.27</ele>
        <time>2014-11-23T14:05:41Z</time>
      </trkpt>
      <trkpt lat="51.373217459768057" lon="4.385483656078577">
        <ele>8.789999999999999</ele>
        <time>2014-11-23T14:05:26Z</time>
      </trkpt>
      <trkpt lat="51.37324939481914" lon="4.385592956095934">
        <ele>6.39</ele>
        <time>2014-11-23T14:05:21Z</time>
      </trkpt>
      <trkpt lat="51.37329088523984" lon="4.385748943313956">
        <ele>10.23</ele>
        <time>2014-11-23T14:05:14Z</time>
      </trkpt>
      <trkpt lat="51.373361712321639" lon="4.386030994355679">
        <ele>9.27</ele>
        <time>2014-11-23T14:04:58Z</time>
      </trkpt>
      <trkpt lat="51.373429019004107" lon="4.386315979063511">
        <ele>8.310000000000001</ele>
        <time>2014-11-23T14:04:44Z</time>
      </trkpt>
      <trkpt lat="51.373472437262535" lon="4.386634239926934">
        <ele>9.27</ele>
        <time>2014-11-23T14:04:28Z</time>
      </trkpt>
      <trkpt lat="51.373554579913616" lon="4.386876225471497">
        <ele>9.27</ele>
        <time>2014-11-23T14:04:17Z</time>
      </trkpt>
      <trkpt lat="51.373623730614781" lon="4.387127431109548">
        <ele>9.27</ele>
        <time>2014-11-23T14:04:02Z</time>
      </trkpt>
      <trkpt lat="51.373680643737316" lon="4.387442255392671">
        <ele>9.75</ele>
        <time>2014-11-23T14:03:46Z</time>
      </trkpt>
      <trkpt lat="51.373739736154675" lon="4.387767221778631">
        <ele>9.75</ele>
        <time>2014-11-23T14:03:31Z</time>
      </trkpt>
      <trkpt lat="51.373823052272201" lon="4.388036364689469">
        <ele>10.23</ele>
        <time>2014-11-23T14:03:17Z</time>
      </trkpt>
      <trkpt lat="51.373847192153335" lon="4.388173241168261">
        <ele>10.23</ele>
        <time>2014-11-23T14:03:11Z</time>
      </trkpt>
      <trkpt lat="51.373919947072864" lon="4.388357559219003">
        <ele>10.23</ele>
        <time>2014-11-23T14:02:58Z</time>
      </trkpt>
      <trkpt lat="51.374010136350989" lon="4.388550594449043">
        <ele>10.23</ele>
        <time>2014-11-23T14:02:45Z</time>
      </trkpt>
      <trkpt lat="51.374010387808084" lon="4.388575488701463">
        <ele>10.23</ele>
        <time>2014-11-23T14:02:44Z</time>
      </trkpt>
      <trkpt lat="51.374029917642474" lon="4.38867405988276">
        <ele>10.23</ele>
        <time>2014-11-23T14:02:40Z</time>
      </trkpt>
      <trkpt lat="51.374172996729612" lon="4.388785539194942">
        <ele>10.710000000000001</ele>
        <time>2014-11-23T14:02:26Z</time>
      </trkpt>
      <trkpt lat="51.374251199886203" lon="4.389025513082743">
        <ele>10.710000000000001</ele>
        <time>2014-11-23T14:02:12Z</time>
      </trkpt>
      <trkpt lat="51.374332755804062" lon="4.389338158071041">
        <ele>10.710000000000001</ele>
        <time>2014-11-23T14:01:58Z</time>
      </trkpt>
      <trkpt lat="51.374375503510237" lon="4.389590537175536">
        <ele>10.710000000000001</ele>
        <time>2014-11-23T14:01:45Z</time>
      </trkpt>
      <trkpt lat="51.374444989487529" lon="4.389845849946141">
        <ele>11.19</ele>
        <time>2014-11-23T14:01:36Z</time>
      </trkpt>
      <trkpt lat="51.374513050541282" lon="4.390249941498041">
        <ele>11.19</ele>
        <time>2014-11-23T14:01:16Z</time>
      </trkpt>
      <trkpt lat="51.374578680843115" lon="4.390419172123075">
        <ele>11.19</ele>
        <time>2014-11-23T14:01:02Z</time>
      </trkpt>
      <trkpt lat="51.374712120741606" lon="4.390680603682995">
        <ele>11.67</ele>
        <time>2014-11-23T14:00:49Z</time>
      </trkpt>
      <trkpt lat="51.374725364148617" lon="4.390700133517385">
        <ele>11.67</ele>
        <time>2014-11-23T14:00:48Z</time>
      </trkpt>
      <trkpt lat="51.374741541221738" lon="4.390717651695013">
        <ele>13.119999999999999</ele>
        <time>2014-11-23T14:00:47Z</time>
      </trkpt>
      <trkpt lat="51.374757802113891" lon="4.390737684443593">
        <ele>13.6</ele>
        <time>2014-11-23T14:00:46Z</time>
      </trkpt>
      <trkpt lat="51.374767022207379" lon="4.390745814889669">
        <ele>13.119999999999999</ele>
        <time>2014-11-23T14:00:45Z</time>
      </trkpt>
      <trkpt lat="51.374774733558297" lon="4.390753526240587">
        <ele>8.310000000000001</ele>
        <time>2014-11-23T14:00:44Z</time>
      </trkpt>
      <trkpt lat="51.374901803210378" lon="4.390793507918716">
        <ele>12.15</ele>
        <time>2014-11-23T14:00:31Z</time>
      </trkpt>
      <trkpt lat="51.375046810135245" lon="4.390899455174804">
        <ele>11.67</ele>
        <time>2014-11-23T14:00:18Z</time>
      </trkpt>
      <trkpt lat="51.375116547569633" lon="4.391118809580803">
        <ele>11.67</ele>
        <time>2014-11-23T14:00:06Z</time>
      </trkpt>
      <trkpt lat="51.37524638324976" lon="4.391421731561422">
        <ele>11.67</ele>
        <time>2014-11-23T13:59:53Z</time>
      </trkpt>
      <trkpt lat="51.375345876440406" lon="4.391695484519005">
        <ele>11.19</ele>
        <time>2014-11-23T13:59:38Z</time>
      </trkpt>
      <trkpt lat="51.375456433743238" lon="4.391921544447541">
        <ele>11.67</ele>
        <time>2014-11-23T13:59:23Z</time>
      </trkpt>
      <trkpt lat="51.375486273318529" lon="4.391884747892618">
        <ele>13.6</ele>
        <time>2014-11-23T13:59:21Z</time>
      </trkpt>
      <trkpt lat="51.375498343259096" lon="4.391867984086275">
        <ele>16.960000000000001</ele>
        <time>2014-11-23T13:59:20Z</time>
      </trkpt>
      <trkpt lat="51.375506808981299" lon="4.391860775649548">
        <ele>11.67</ele>
        <time>2014-11-23T13:59:19Z</time>
      </trkpt>
      <trkpt lat="51.375515442341566" lon="4.391859266906977">
        <ele>3.98</ele>
        <time>2014-11-23T13:59:18Z</time>
      </trkpt>
      <trkpt lat="51.375622898340225" lon="4.391838228330016">
        <ele>11.67</ele>
        <time>2014-11-23T13:59:12Z</time>
      </trkpt>
      <trkpt lat="51.375787854194641" lon="4.391695568338037">
        <ele>11.19</ele>
        <time>2014-11-23T13:58:58Z</time>
      </trkpt>
      <trkpt lat="51.375803612172604" lon="4.391682576388121">
        <ele>11.19</ele>
        <time>2014-11-23T13:58:57Z</time>
      </trkpt>
      <trkpt lat="51.375815095379949" lon="4.391674445942044">
        <ele>11.67</ele>
        <time>2014-11-23T13:58:56Z</time>
      </trkpt>
      <trkpt lat="51.375927999615669" lon="4.391732616350055">
        <ele>11.19</ele>
        <time>2014-11-23T13:58:42Z</time>
      </trkpt>
      <trkpt lat="51.375951804220676" lon="4.391706632450223">
        <ele>11.19</ele>
        <time>2014-11-23T13:58:40Z</time>
      </trkpt>
      <trkpt lat="51.376002347096801" lon="4.391952808946371">
        <ele>11.19</ele>
        <time>2014-11-23T13:58:24Z</time>
      </trkpt>
      <trkpt lat="51.376100834459066" lon="4.392359247431159">
        <ele>11.19</ele>
        <time>2014-11-23T13:58:08Z</time>
      </trkpt>
      <trkpt lat="51.37615330517292" lon="4.392457231879234">
        <ele>11.19</ele>
        <time>2014-11-23T13:58:04Z</time>
      </trkpt>
      <trkpt lat="51.376256486400962" lon="4.392850007861853">
        <ele>11.19</ele>
        <time>2014-11-23T13:57:46Z</time>
      </trkpt>
      <trkpt lat="51.376260509714484" lon="4.392936173826456">
        <ele>11.19</ele>
        <time>2014-11-23T13:57:42Z</time>
      </trkpt>
      <trkpt lat="51.376292109489441" lon="4.393241861835122">
        <ele>10.710000000000001</ele>
        <time>2014-11-23T13:57:28Z</time>
      </trkpt>
      <trkpt lat="51.376297054812312" lon="4.393267929553986">
        <ele>11.19</ele>
        <time>2014-11-23T13:57:27Z</time>
      </trkpt>
      <trkpt lat="51.376409372314811" lon="4.393700184300542">
        <ele>11.19</ele>
        <time>2014-11-23T13:57:10Z</time>
      </trkpt>
      <trkpt lat="51.376488413661718" lon="4.394145850092173">
        <ele>11.19</ele>
        <time>2014-11-23T13:56:53Z</time>
      </trkpt>
      <trkpt lat="51.376546416431665" lon="4.394439132884145">
        <ele>11.67</ele>
        <time>2014-11-23T13:56:37Z</time>
      </trkpt>
      <trkpt lat="51.376659907400608" lon="4.394720094278455">
        <ele>11.67</ele>
        <time>2014-11-23T13:56:22Z</time>
      </trkpt>
      <trkpt lat="51.376835256814957" lon="4.395162155851722">
        <ele>11.67</ele>
        <time>2014-11-23T13:56:04Z</time>
      </trkpt>
      <trkpt lat="51.376951262354851" lon="4.395446218550205">
        <ele>12.15</ele>
        <time>2014-11-23T13:55:48Z</time>
      </trkpt>
      <trkpt lat="51.376961739733815" lon="4.395513776689768">
        <ele>12.15</ele>
        <time>2014-11-23T13:55:43Z</time>
      </trkpt>
      <trkpt lat="51.37696341611445" lon="4.395540347322822">
        <ele>11.67</ele>
        <time>2014-11-23T13:55:42Z</time>
      </trkpt>
      <trkpt lat="51.376967690885067" lon="4.395565912127495">
        <ele>11.67</ele>
        <time>2014-11-23T13:55:41Z</time>
      </trkpt>
      <trkpt lat="51.376973390579224" lon="4.395589297637343">
        <ele>11.67</ele>
        <time>2014-11-23T13:55:40Z</time>
      </trkpt>
      <trkpt lat="51.377045977860689" lon="4.395660711452365">
        <ele>12.15</ele>
        <time>2014-11-23T13:55:35Z</time>
      </trkpt>
      <trkpt lat="51.377057209610939" lon="4.395672865211964">
        <ele>12.15</ele>
        <time>2014-11-23T13:55:34Z</time>
      </trkpt>
      <trkpt lat="51.377122336998582" lon="4.395869001746178">
        <ele>12.15</ele>
        <time>2014-11-23T13:55:25Z</time>
      </trkpt>
      <trkpt lat="51.377229038625956" lon="4.396133618429303">
        <ele>12.15</ele>
        <time>2014-11-23T13:55:10Z</time>
      </trkpt>
      <trkpt lat="51.377236163243651" lon="4.396157255396247">
        <ele>12.15</ele>
        <time>2014-11-23T13:55:09Z</time>
      </trkpt>
      <trkpt lat="51.377324843779206" lon="4.396347273141146">
        <ele>12.630000000000001</ele>
        <time>2014-11-23T13:54:59Z</time>
      </trkpt>
      <trkpt lat="51.377480747178197" lon="4.396691182628274">
        <ele>12.630000000000001</ele>
        <time>2014-11-23T13:54:43Z</time>
      </trkpt>
      <trkpt lat="51.377609577029943" lon="4.396987902000547">
        <ele>12.630000000000001</ele>
        <time>2014-11-23T13:54:29Z</time>
      </trkpt>
      <trkpt lat="51.377693479880691" lon="4.397239191457629">
        <ele>12.630000000000001</ele>
        <time>2014-11-23T13:54:17Z</time>
      </trkpt>
      <trkpt lat="51.377806384116411" lon="4.397532138973475">
        <ele>12.630000000000001</ele>
        <time>2014-11-23T13:54:03Z</time>
      </trkpt>
      <trkpt lat="51.377936387434602" lon="4.397832797840238">
        <ele>12.630000000000001</ele>
        <time>2014-11-23T13:53:48Z</time>
      </trkpt>
      <trkpt lat="51.377954492345452" lon="4.397864397615194">
        <ele>12.630000000000001</ele>
        <time>2014-11-23T13:53:47Z</time>
      </trkpt>
      <trkpt lat="51.378002185374498" lon="4.397952742874622">
        <ele>12.630000000000001</ele>
        <time>2014-11-23T13:53:44Z</time>
      </trkpt>
      <trkpt lat="51.378014506772161" lon="4.397979816421866">
        <ele>13.119999999999999</ele>
        <time>2014-11-23T13:53:43Z</time>
      </trkpt>
      <trkpt lat="51.37802230194211" lon="4.398002531379461">
        <ele>12.630000000000001</ele>
        <time>2014-11-23T13:53:42Z</time>
      </trkpt>
      <trkpt lat="51.378025067970157" lon="4.398027257993817">
        <ele>13.119999999999999</ele>
        <time>2014-11-23T13:53:41Z</time>
      </trkpt>
      <trkpt lat="51.378026744350791" lon="4.398053828626871">
        <ele>12.630000000000001</ele>
        <time>2014-11-23T13:53:40Z</time>
      </trkpt>
      <trkpt lat="51.378054823726416" lon="4.398156087845564">
        <ele>12.630000000000001</ele>
        <time>2014-11-23T13:53:34Z</time>
      </trkpt>
      <trkpt lat="51.378060188144445" lon="4.398177294060588">
        <ele>12.630000000000001</ele>
        <time>2014-11-23T13:53:33Z</time>
      </trkpt>
      <trkpt lat="51.378079717978835" lon="4.398228926584125">
        <ele>12.630000000000001</ele>
        <time>2014-11-23T13:53:30Z</time>
      </trkpt>
      <trkpt lat="51.378194633871317" lon="4.398516425862908">
        <ele>13.119999999999999</ele>
        <time>2014-11-23T13:53:16Z</time>
      </trkpt>
      <trkpt lat="51.378223886713386" lon="4.398559927940369">
        <ele>13.119999999999999</ele>
        <time>2014-11-23T13:53:14Z</time>
      </trkpt>
      <trkpt lat="51.378344669938087" lon="4.39884290099144">
        <ele>13.119999999999999</ele>
        <time>2014-11-23T13:53:00Z</time>
      </trkpt>
      <trkpt lat="51.378456400707364" lon="4.399194689467549">
        <ele>13.119999999999999</ele>
        <time>2014-11-23T13:52:44Z</time>
      </trkpt>
      <trkpt lat="51.378468638285995" lon="4.399222685024142">
        <ele>13.119999999999999</ele>
        <time>2014-11-23T13:52:43Z</time>
      </trkpt>
      <trkpt lat="51.3784786965698" lon="4.399257721379399">
        <ele>13.119999999999999</ele>
        <time>2014-11-23T13:52:42Z</time>
      </trkpt>
      <trkpt lat="51.378535944968462" lon="4.399357885122299">
        <ele>13.119999999999999</ele>
        <time>2014-11-23T13:52:37Z</time>
      </trkpt>
      <trkpt lat="51.378668379038572" lon="4.399590902030468">
        <ele>13.119999999999999</ele>
        <time>2014-11-23T13:52:25Z</time>
      </trkpt>
      <trkpt lat="51.378807183355093" lon="4.399919975548983">
        <ele>13.6</ele>
        <time>2014-11-23T13:52:11Z</time>
      </trkpt>
      <trkpt lat="51.378936599940062" lon="4.40022281371057">
        <ele>13.6</ele>
        <time>2014-11-23T13:51:56Z</time>
      </trkpt>
      <trkpt lat="51.37907087802887" lon="4.400617768988013">
        <ele>14.08</ele>
        <time>2014-11-23T13:51:42Z</time>
      </trkpt>
      <trkpt lat="51.379173472523689" lon="4.400856234133244">
        <ele>13.6</ele>
        <time>2014-11-23T13:51:27Z</time>
      </trkpt>
      <trkpt lat="51.379299620166421" lon="4.401137614622712">
        <ele>14.08</ele>
        <time>2014-11-23T13:51:13Z</time>
      </trkpt>
      <trkpt lat="51.379317138344049" lon="4.401164185255766">
        <ele>14.08</ele>
        <time>2014-11-23T13:51:12Z</time>
      </trkpt>
      <trkpt lat="51.379329124465585" lon="4.401189163327217">
        <ele>14.08</ele>
        <time>2014-11-23T13:51:11Z</time>
      </trkpt>
      <trkpt lat="51.379381427541375" lon="4.401345569640398">
        <ele>14.08</ele>
        <time>2014-11-23T13:51:05Z</time>
      </trkpt>
      <trkpt lat="51.379385618492961" lon="4.401368284597993">
        <ele>14.08</ele>
        <time>2014-11-23T13:51:04Z</time>
      </trkpt>
      <trkpt lat="51.379399867728353" lon="4.401416731998324">
        <ele>14.08</ele>
        <time>2014-11-23T13:51:01Z</time>
      </trkpt>
      <trkpt lat="51.379412021487951" lon="4.401451265439391">
        <ele>14.08</ele>
        <time>2014-11-23T13:50:59Z</time>
      </trkpt>
      <trkpt lat="51.379487877711654" lon="4.401641199365258">
        <ele>14.08</ele>
        <time>2014-11-23T13:50:49Z</time>
      </trkpt>
      <trkpt lat="51.379609918221831" lon="4.401944288983941">
        <ele>14.56</ele>
        <time>2014-11-23T13:50:34Z</time>
      </trkpt>
      <trkpt lat="51.379742939025164" lon="4.402223573997617">
        <ele>14.56</ele>
        <time>2014-11-23T13:50:19Z</time>
      </trkpt>
      <trkpt lat="51.379854753613472" lon="4.402512162923813">
        <ele>14.56</ele>
        <time>2014-11-23T13:50:06Z</time>
      </trkpt>
      <trkpt lat="51.380004622042179" lon="4.402838218957186">
        <ele>14.56</ele>
        <time>2014-11-23T13:49:52Z</time>
      </trkpt>
      <trkpt lat="51.380115263164043" lon="4.403125634416938">
        <ele>14.56</ele>
        <time>2014-11-23T13:49:38Z</time>
      </trkpt>
      <trkpt lat="51.380244344472885" lon="4.403465520590544">
        <ele>15.039999999999999</ele>
        <time>2014-11-23T13:49:23Z</time>
      </trkpt>
      <trkpt lat="51.38036822900176" lon="4.403719156980515">
        <ele>14.56</ele>
        <time>2014-11-23T13:49:10Z</time>
      </trkpt>
      <trkpt lat="51.380468644201756" lon="4.404036998748779">
        <ele>15.039999999999999</ele>
        <time>2014-11-23T13:48:56Z</time>
      </trkpt>
      <trkpt lat="51.380607532337308" lon="4.404265573248267">
        <ele>15.039999999999999</ele>
        <time>2014-11-23T13:48:43Z</time>
      </trkpt>
      <trkpt lat="51.380698475986719" lon="4.404573440551758">
        <ele>15.52</ele>
        <time>2014-11-23T13:48:28Z</time>
      </trkpt>
      <trkpt lat="51.380721777677536" lon="4.404635550454259">
        <ele>15.52</ele>
        <time>2014-11-23T13:48:25Z</time>
      </trkpt>
      <trkpt lat="51.380815571174026" lon="4.404881810769439">
        <ele>16</ele>
        <time>2014-11-23T13:48:12Z</time>
      </trkpt>
      <trkpt lat="51.380825629457831" lon="4.404898323118687">
        <ele>16</ele>
        <time>2014-11-23T13:48:11Z</time>
      </trkpt>
      <trkpt lat="51.380879944190383" lon="4.404993792995811">
        <ele>16</ele>
        <time>2014-11-23T13:48:07Z</time>
      </trkpt>
      <trkpt lat="51.380955800414085" lon="4.405205855146051">
        <ele>16</ele>
        <time>2014-11-23T13:47:58Z</time>
      </trkpt>
      <trkpt lat="51.381062166765332" lon="4.405560912564397">
        <ele>16</ele>
        <time>2014-11-23T13:47:43Z</time>
      </trkpt>
      <trkpt lat="51.38120180927217" lon="4.405754869803786">
        <ele>16</ele>
        <time>2014-11-23T13:47:31Z</time>
      </trkpt>
      <trkpt lat="51.381218740716577" lon="4.40576484426856">
        <ele>16</ele>
        <time>2014-11-23T13:47:30Z</time>
      </trkpt>
      <trkpt lat="51.381236929446459" lon="4.405774148181081">
        <ele>19.359999999999999</ele>
        <time>2014-11-23T13:47:29Z</time>
      </trkpt>
      <trkpt lat="51.381297530606389" lon="4.405820248648524">
        <ele>16</ele>
        <time>2014-11-23T13:47:25Z</time>
      </trkpt>
      <trkpt lat="51.381560303270817" lon="4.405931308865547">
        <ele>16</ele>
        <time>2014-11-23T13:47:10Z</time>
      </trkpt>
      <trkpt lat="51.381699023768306" lon="4.405966848134995">
        <ele>16</ele>
        <time>2014-11-23T13:47:02Z</time>
      </trkpt>
      <trkpt lat="51.381715703755617" lon="4.40598176792264">
        <ele>16</ele>
        <time>2014-11-23T13:47:01Z</time>
      </trkpt>
      <trkpt lat="51.381732551380992" lon="4.406000208109617">
        <ele>16</ele>
        <time>2014-11-23T13:47:00Z</time>
      </trkpt>
      <trkpt lat="51.381745124235749" lon="4.406017810106278">
        <ele>16</ele>
        <time>2014-11-23T13:46:59Z</time>
      </trkpt>
      <trkpt lat="51.381762055680156" lon="4.406037926673889">
        <ele>16</ele>
        <time>2014-11-23T13:46:58Z</time>
      </trkpt>
      <trkpt lat="51.381803546100855" lon="4.406075226143003">
        <ele>16</ele>
        <time>2014-11-23T13:46:55Z</time>
      </trkpt>
      <trkpt lat="51.381822070106864" lon="4.406085787340999">
        <ele>16</ele>
        <time>2014-11-23T13:46:53Z</time>
      </trkpt>
      <trkpt lat="51.381947295740247" lon="4.40637119114399">
        <ele>16.48</ele>
        <time>2014-11-23T13:46:38Z</time>
      </trkpt>
      <trkpt lat="51.382098253816366" lon="4.406614433974028">
        <ele>16</ele>
        <time>2014-11-23T13:46:24Z</time>
      </trkpt>
      <trkpt lat="51.382198249921203" lon="4.406664809212089">
        <ele>16</ele>
        <time>2014-11-23T13:46:17Z</time>
      </trkpt>
      <trkpt lat="51.382435206323862" lon="4.406757596880198">
        <ele>16.48</ele>
        <time>2014-11-23T13:46:01Z</time>
      </trkpt>
      <trkpt lat="51.382604772225022" lon="4.406803362071514">
        <ele>16.48</ele>
        <time>2014-11-23T13:45:49Z</time>
      </trkpt>
      <trkpt lat="51.382619943469763" lon="4.40680805593729">
        <ele>16.48</ele>
        <time>2014-11-23T13:45:48Z</time>
      </trkpt>
      <trkpt lat="51.382635869085789" lon="4.406812665984035">
        <ele>16.960000000000001</ele>
        <time>2014-11-23T13:45:47Z</time>
      </trkpt>
      <trkpt lat="51.38267551548779" lon="4.406807133927941">
        <ele>16.48</ele>
        <time>2014-11-23T13:45:45Z</time>
      </trkpt>
      <trkpt lat="51.382856648415327" lon="4.406826412305236">
        <ele>16.960000000000001</ele>
        <time>2014-11-23T13:45:33Z</time>
      </trkpt>
      <trkpt lat="51.383063765242696" lon="4.406854491680861">
        <ele>16.960000000000001</ele>
        <time>2014-11-23T13:45:20Z</time>
      </trkpt>
      <trkpt lat="51.383079690858722" lon="4.406865304335952">
        <ele>16.960000000000001</ele>
        <time>2014-11-23T13:45:19Z</time>
      </trkpt>
      <trkpt lat="51.383111625909805" lon="4.406868908554316">
        <ele>17.440000000000001</ele>
        <time>2014-11-23T13:45:17Z</time>
      </trkpt>
      <trkpt lat="51.383131239563227" lon="4.406869243830442">
        <ele>16.960000000000001</ele>
        <time>2014-11-23T13:45:16Z</time>
      </trkpt>
      <trkpt lat="51.383149344474077" lon="4.406871842220426">
        <ele>16.960000000000001</ele>
        <time>2014-11-23T13:45:15Z</time>
      </trkpt>
      <trkpt lat="51.383275995030999" lon="4.406915009021759">
        <ele>16.960000000000001</ele>
        <time>2014-11-23T13:45:07Z</time>
      </trkpt>
      <trkpt lat="51.38349736109376" lon="4.406911320984364">
        <ele>16.960000000000001</ele>
        <time>2014-11-23T13:44:53Z</time>
      </trkpt>
      <trkpt lat="51.383522422984242" lon="4.406901933252811">
        <ele>16.960000000000001</ele>
        <time>2014-11-23T13:44:52Z</time>
      </trkpt>
      <trkpt lat="51.383589310571551" lon="4.406917188316584">
        <ele>17.440000000000001</ele>
        <time>2014-11-23T13:44:48Z</time>
      </trkpt>
      <trkpt lat="51.383602386340499" lon="4.406914254650474">
        <ele>17.440000000000001</ele>
        <time>2014-11-23T13:44:47Z</time>
      </trkpt>
      <trkpt lat="51.383647061884403" lon="4.406932275742292">
        <ele>16.960000000000001</ele>
        <time>2014-11-23T13:44:44Z</time>
      </trkpt>
      <trkpt lat="51.383666675537825" lon="4.40694484859705">
        <ele>16.960000000000001</ele>
        <time>2014-11-23T13:44:43Z</time>
      </trkpt>
      <trkpt lat="51.383685953915119" lon="4.406957421451807">
        <ele>16.960000000000001</ele>
        <time>2014-11-23T13:44:42Z</time>
      </trkpt>
      <trkpt lat="51.383703723549843" lon="4.406968569383025">
        <ele>16.960000000000001</ele>
        <time>2014-11-23T13:44:41Z</time>
      </trkpt>
      <trkpt lat="51.383719397708774" lon="4.406971167773008">
        <ele>16.960000000000001</ele>
        <time>2014-11-23T13:44:40Z</time>
      </trkpt>
      <trkpt lat="51.38373389840126" lon="4.406966473907232">
        <ele>16.960000000000001</ele>
        <time>2014-11-23T13:44:39Z</time>
      </trkpt>
      <trkpt lat="51.383749321103096" lon="4.406963037326932">
        <ele>16.960000000000001</ele>
        <time>2014-11-23T13:44:38Z</time>
      </trkpt>
      <trkpt lat="51.3837680965662" lon="4.406966473907232">
        <ele>17.440000000000001</ele>
        <time>2014-11-23T13:44:37Z</time>
      </trkpt>
      <trkpt lat="51.383784357458353" lon="4.406962031498551">
        <ele>16.960000000000001</ele>
        <time>2014-11-23T13:44:36Z</time>
      </trkpt>
      <trkpt lat="51.38380279764533" lon="4.406947195529938">
        <ele>16.960000000000001</ele>
        <time>2014-11-23T13:44:35Z</time>
      </trkpt>
      <trkpt lat="51.383818723261356" lon="4.406941244378686">
        <ele>16.960000000000001</ele>
        <time>2014-11-23T13:44:34Z</time>
      </trkpt>
      <trkpt lat="51.383836660534143" lon="4.406945100054145">
        <ele>16.960000000000001</ele>
        <time>2014-11-23T13:44:33Z</time>
      </trkpt>
      <trkpt lat="51.383854346349835" lon="4.406947614625096">
        <ele>16.960000000000001</ele>
        <time>2014-11-23T13:44:32Z</time>
      </trkpt>
      <trkpt lat="51.383870020508766" lon="4.406945016235113">
        <ele>16.960000000000001</ele>
        <time>2014-11-23T13:44:31Z</time>
      </trkpt>
      <trkpt lat="51.384103121235967" lon="4.406951051205397">
        <ele>16.960000000000001</ele>
        <time>2014-11-23T13:44:16Z</time>
      </trkpt>
      <trkpt lat="51.384118208661675" lon="4.406946524977684">
        <ele>16.960000000000001</ele>
        <time>2014-11-23T13:44:15Z</time>
      </trkpt>
      <trkpt lat="51.384134218096733" lon="4.406936382874847">
        <ele>16.960000000000001</ele>
        <time>2014-11-23T13:44:14Z</time>
      </trkpt>
      <trkpt lat="51.384233040735126" lon="4.406913919374347">
        <ele>17.440000000000001</ele>
        <time>2014-11-23T13:44:08Z</time>
      </trkpt>
      <trkpt lat="51.384424902498722" lon="4.406846025958657">
        <ele>16.960000000000001</ele>
        <time>2014-11-23T13:43:53Z</time>
      </trkpt>
      <trkpt lat="51.384609807282686" lon="4.406862119212747">
        <ele>16.48</ele>
        <time>2014-11-23T13:43:40Z</time>
      </trkpt>
      <trkpt lat="51.38481181114912" lon="4.406911740079522">
        <ele>16.960000000000001</ele>
        <time>2014-11-23T13:43:27Z</time>
      </trkpt>
      <trkpt lat="51.384824467822909" lon="4.406907297670841">
        <ele>16.960000000000001</ele>
        <time>2014-11-23T13:43:26Z</time>
      </trkpt>
      <trkpt lat="51.384838297963142" lon="4.406909225508571">
        <ele>16.960000000000001</ele>
        <time>2014-11-23T13:43:25Z</time>
      </trkpt>
      <trkpt lat="51.3848543073982" lon="4.406914506107569">
        <ele>17.440000000000001</ele>
        <time>2014-11-23T13:43:24Z</time>
      </trkpt>
      <trkpt lat="51.384871490299702" lon="4.406924396753311">
        <ele>16.960000000000001</ele>
        <time>2014-11-23T13:43:23Z</time>
      </trkpt>
      <trkpt lat="51.384888254106045" lon="4.406926995143294">
        <ele>16.960000000000001</ele>
        <time>2014-11-23T13:43:22Z</time>
      </trkpt>
      <trkpt lat="51.384905772283673" lon="4.406921798363328">
        <ele>16.960000000000001</ele>
        <time>2014-11-23T13:43:21Z</time>
      </trkpt>
      <trkpt lat="51.384935863316059" lon="4.406909141689539">
        <ele>16.960000000000001</ele>
        <time>2014-11-23T13:43:19Z</time>
      </trkpt>
      <trkpt lat="51.384950699284673" lon="4.40690184943378">
        <ele>16.960000000000001</ele>
        <time>2014-11-23T13:43:18Z</time>
      </trkpt>
      <trkpt lat="51.384968049824238" lon="4.406899167224765">
        <ele>16.960000000000001</ele>
        <time>2014-11-23T13:43:17Z</time>
      </trkpt>
      <trkpt lat="51.385024040937424" lon="4.406918110325933">
        <ele>16.960000000000001</ele>
        <time>2014-11-23T13:43:13Z</time>
      </trkpt>
      <trkpt lat="51.385217914357781" lon="4.406981309875846">
        <ele>17.440000000000001</ele>
        <time>2014-11-23T13:42:59Z</time>
      </trkpt>
      <trkpt lat="51.385284634307027" lon="4.406993798911572">
        <ele>17.920000000000002</ele>
        <time>2014-11-23T13:42:55Z</time>
      </trkpt>
      <trkpt lat="51.385476663708687" lon="4.407075019553304">
        <ele>17.440000000000001</ele>
        <time>2014-11-23T13:42:43Z</time>
      </trkpt>
      <trkpt lat="51.385641368106008" lon="4.407095303758979">
        <ele>17.920000000000002</ele>
        <time>2014-11-23T13:42:33Z</time>
      </trkpt>
      <trkpt lat="51.385707249864936" lon="4.407113073393703">
        <ele>17.440000000000001</ele>
        <time>2014-11-23T13:42:28Z</time>
      </trkpt>
      <trkpt lat="51.385921156033874" lon="4.407196892425418">
        <ele>17.440000000000001</ele>
        <time>2014-11-23T13:42:16Z</time>
      </trkpt>
      <trkpt lat="51.385934064164758" lon="4.407203430309892">
        <ele>17.440000000000001</ele>
        <time>2014-11-23T13:42:15Z</time>
      </trkpt>
      <trkpt lat="51.385945966467261" lon="4.407218769192696">
        <ele>17.440000000000001</ele>
        <time>2014-11-23T13:42:14Z</time>
      </trkpt>
      <trkpt lat="51.386089799925685" lon="4.407284650951624">
        <ele>18.879999999999999</ele>
        <time>2014-11-23T13:42:05Z</time>
      </trkpt>
      <trkpt lat="51.386305885389447" lon="4.407461592927575">
        <ele>18.399999999999999</ele>
        <time>2014-11-23T13:41:49Z</time>
      </trkpt>
      <trkpt lat="51.386324157938361" lon="4.407471651211381">
        <ele>18.399999999999999</ele>
        <time>2014-11-23T13:41:48Z</time>
      </trkpt>
      <trkpt lat="51.386341005563736" lon="4.407483050599694">
        <ele>17.920000000000002</ele>
        <time>2014-11-23T13:41:47Z</time>
      </trkpt>
      <trkpt lat="51.386386854574084" lon="4.407517751678824">
        <ele>20.809999999999999</ele>
        <time>2014-11-23T13:41:34Z</time>
      </trkpt>
      <trkpt lat="51.386388698592782" lon="4.407518338412046">
        <ele>15.039999999999999</ele>
        <time>2014-11-23T13:41:33Z</time>
      </trkpt>
      <trkpt lat="51.386387357488275" lon="4.407521607354283">
        <ele>18.399999999999999</ele>
        <time>2014-11-23T13:41:30Z</time>
      </trkpt>
      <trkpt lat="51.386426668614149" lon="4.407557817175984">
        <ele>18.399999999999999</ele>
        <time>2014-11-23T13:41:16Z</time>
      </trkpt>
      <trkpt lat="51.386475032195449" lon="4.407588411122561">
        <ele>18.399999999999999</ele>
        <time>2014-11-23T13:40:54Z</time>
      </trkpt>
      <trkpt lat="51.386481570079923" lon="4.407590925693512">
        <ele>18.399999999999999</ele>
        <time>2014-11-23T13:40:34Z</time>
      </trkpt>
      <trkpt lat="51.386507553979754" lon="4.407658902928233">
        <ele>18.399999999999999</ele>
        <time>2014-11-23T13:40:19Z</time>
      </trkpt>
      <trkpt lat="51.386511158198118" lon="4.407680192962289">
        <ele>18.399999999999999</ele>
        <time>2014-11-23T13:40:18Z</time>
      </trkpt>
      <trkpt lat="51.386513588950038" lon="4.407703997567296">
        <ele>18.399999999999999</ele>
        <time>2014-11-23T13:40:17Z</time>
      </trkpt>
      <trkpt lat="51.386542255058885" lon="4.407809441909194">
        <ele>18.399999999999999</ele>
        <time>2014-11-23T13:40:12Z</time>
      </trkpt>
      <trkpt lat="51.386684663593769" lon="4.408035334199667">
        <ele>18.399999999999999</ele>
        <time>2014-11-23T13:39:59Z</time>
      </trkpt>
      <trkpt lat="51.386696230620146" lon="4.408054696395993">
        <ele>18.399999999999999</ele>
        <time>2014-11-23T13:39:58Z</time>
      </trkpt>
      <trkpt lat="51.386708887293935" lon="4.4080716278404">
        <ele>18.399999999999999</ele>
        <time>2014-11-23T13:39:57Z</time>
      </trkpt>
      <trkpt lat="51.386721627786756" lon="4.408088643103838">
        <ele>18.399999999999999</ele>
        <time>2014-11-23T13:39:56Z</time>
      </trkpt>
      <trkpt lat="51.386734368279576" lon="4.408104736357927">
        <ele>17.920000000000002</ele>
        <time>2014-11-23T13:39:55Z</time>
      </trkpt>
      <trkpt lat="51.386746857315302" lon="4.408120578154922">
        <ele>18.399999999999999</ele>
        <time>2014-11-23T13:39:54Z</time>
      </trkpt>
      <trkpt lat="51.386757669970393" lon="4.408136839047074">
        <ele>18.399999999999999</ele>
        <time>2014-11-23T13:39:53Z</time>
      </trkpt>
      <trkpt lat="51.386769153177738" lon="4.408157458528876">
        <ele>18.399999999999999</ele>
        <time>2014-11-23T13:39:52Z</time>
      </trkpt>
      <trkpt lat="51.386781726032495" lon="4.408182185143232">
        <ele>18.399999999999999</ele>
        <time>2014-11-23T13:39:51Z</time>
      </trkpt>
      <trkpt lat="51.386794047430158" lon="4.408199619501829">
        <ele>18.399999999999999</ele>
        <time>2014-11-23T13:39:50Z</time>
      </trkpt>
      <trkpt lat="51.386807290837169" lon="4.408213449642062">
        <ele>18.399999999999999</ele>
        <time>2014-11-23T13:39:49Z</time>
      </trkpt>
      <trkpt lat="51.386822629719973" lon="4.408225184306502">
        <ele>18.399999999999999</ele>
        <time>2014-11-23T13:39:48Z</time>
      </trkpt>
      <trkpt lat="51.386848697438836" lon="4.408253012225032">
        <ele>18.399999999999999</ele>
        <time>2014-11-23T13:39:46Z</time>
      </trkpt>
      <trkpt lat="51.387033350765705" lon="4.408464906737208">
        <ele>18.399999999999999</ele>
        <time>2014-11-23T13:39:32Z</time>
      </trkpt>
      <trkpt lat="51.387046342715621" lon="4.408481335267425">
        <ele>18.399999999999999</ele>
        <time>2014-11-23T13:39:31Z</time>
      </trkpt>
      <trkpt lat="51.387059586122632" lon="4.408497260883451">
        <ele>18.399999999999999</ele>
        <time>2014-11-23T13:39:30Z</time>
      </trkpt>
      <trkpt lat="51.387244910001755" lon="4.408652661368251">
        <ele>18.399999999999999</ele>
        <time>2014-11-23T13:39:17Z</time>
      </trkpt>
      <trkpt lat="51.387447416782379" lon="4.408841757103801">
        <ele>18.399999999999999</ele>
        <time>2014-11-23T13:39:01Z</time>
      </trkpt>
      <trkpt lat="51.387459067627788" lon="4.40885248593986">
        <ele>17.920000000000002</ele>
        <time>2014-11-23T13:39:00Z</time>
      </trkpt>
      <trkpt lat="51.387470299378037" lon="4.408865980803967">
        <ele>18.399999999999999</ele>
        <time>2014-11-23T13:38:59Z</time>
      </trkpt>
      <trkpt lat="51.387482872232795" lon="4.408883834257722">
        <ele>17.920000000000002</ele>
        <time>2014-11-23T13:38:58Z</time>
      </trkpt>
      <trkpt lat="51.387496618553996" lon="4.408897999674082">
        <ele>17.920000000000002</ele>
        <time>2014-11-23T13:38:57Z</time>
      </trkpt>
      <trkpt lat="51.387511119246483" lon="4.408910740166903">
        <ele>17.920000000000002</ele>
        <time>2014-11-23T13:38:56Z</time>
      </trkpt>
      <trkpt lat="51.387527212500572" lon="4.408921888098121">
        <ele>17.920000000000002</ele>
        <time>2014-11-23T13:38:55Z</time>
      </trkpt>
      <trkpt lat="51.387545065954328" lon="4.408930605277419">
        <ele>17.920000000000002</ele>
        <time>2014-11-23T13:38:54Z</time>
      </trkpt>
      <trkpt lat="51.387564847245812" lon="4.408939406275749">
        <ele>18.399999999999999</ele>
        <time>2014-11-23T13:38:53Z</time>
      </trkpt>
      <trkpt lat="51.387582030147314" lon="4.408948458731175">
        <ele>18.399999999999999</ele>
        <time>2014-11-23T13:38:52Z</time>
      </trkpt>
      <trkpt lat="51.387595608830452" lon="4.408960612490773">
        <ele>18.399999999999999</ele>
        <time>2014-11-23T13:38:51Z</time>
      </trkpt>
      <trkpt lat="51.387747405096889" lon="4.409141996875405">
        <ele>18.399999999999999</ele>
        <time>2014-11-23T13:38:38Z</time>
      </trkpt>
      <trkpt lat="51.387758301571012" lon="4.409157419577241">
        <ele>18.399999999999999</ele>
        <time>2014-11-23T13:38:37Z</time>
      </trkpt>
      <trkpt lat="51.387773221358657" lon="4.409168986603618">
        <ele>18.399999999999999</ele>
        <time>2014-11-23T13:38:36Z</time>
      </trkpt>
      <trkpt lat="51.3877865485847" lon="4.409179715439677">
        <ele>18.399999999999999</ele>
        <time>2014-11-23T13:38:35Z</time>
      </trkpt>
      <trkpt lat="51.387798534706235" lon="4.409184996038675">
        <ele>18.399999999999999</ele>
        <time>2014-11-23T13:38:34Z</time>
      </trkpt>
      <trkpt lat="51.387819908559322" lon="4.409203017130494">
        <ele>18.399999999999999</ele>
        <time>2014-11-23T13:38:32Z</time>
      </trkpt>
      <trkpt lat="51.387834576889873" lon="4.409211818128824">
        <ele>18.399999999999999</ele>
        <time>2014-11-23T13:38:31Z</time>
      </trkpt>
      <trkpt lat="51.387860728427768" lon="4.409231096506119">
        <ele>18.399999999999999</ele>
        <time>2014-11-23T13:38:28Z</time>
      </trkpt>
      <trkpt lat="51.387897608801723" lon="4.409237047657371">
        <ele>18.399999999999999</ele>
        <time>2014-11-23T13:38:06Z</time>
      </trkpt>
      <trkpt lat="51.387908002361655" lon="4.409278621897101">
        <ele>18.399999999999999</ele>
        <time>2014-11-23T13:37:53Z</time>
      </trkpt>
      <trkpt lat="51.38790775090456" lon="4.409290105104446">
        <ele>18.399999999999999</ele>
        <time>2014-11-23T13:37:35Z</time>
      </trkpt>
      <trkpt lat="51.387900374829769" lon="4.409283231943846">
        <ele>18.399999999999999</ele>
        <time>2014-11-23T13:37:19Z</time>
      </trkpt>
      <trkpt lat="51.387959886342287" lon="4.409360764548183">
        <ele>17.920000000000002</ele>
        <time>2014-11-23T13:37:09Z</time>
      </trkpt>
      <trkpt lat="51.387972878292203" lon="4.409379120916128">
        <ele>18.399999999999999</ele>
        <time>2014-11-23T13:37:08Z</time>
      </trkpt>
      <trkpt lat="51.387982852756977" lon="4.409399405121803">
        <ele>17.920000000000002</ele>
        <time>2014-11-23T13:37:07Z</time>
      </trkpt>
      <trkpt lat="51.388000706210732" lon="4.409442655742168">
        <ele>18.399999999999999</ele>
        <time>2014-11-23T13:37:04Z</time>
      </trkpt>
      <trkpt lat="51.388010010123253" lon="4.409456737339497">
        <ele>17.920000000000002</ele>
        <time>2014-11-23T13:37:03Z</time>
      </trkpt>
      <trkpt lat="51.388019565492868" lon="4.409473165869713">
        <ele>17.920000000000002</ele>
        <time>2014-11-23T13:37:02Z</time>
      </trkpt>
      <trkpt lat="51.388035323470831" lon="4.409505520015955">
        <ele>18.399999999999999</ele>
        <time>2014-11-23T13:37:00Z</time>
      </trkpt>
      <trkpt lat="51.388173457235098" lon="4.409718168899417">
        <ele>17.920000000000002</ele>
        <time>2014-11-23T13:36:47Z</time>
      </trkpt>
      <trkpt lat="51.388330198824406" lon="4.409947162494063">
        <ele>18.399999999999999</ele>
        <time>2014-11-23T13:36:34Z</time>
      </trkpt>
      <trkpt lat="51.388472020626068" lon="4.41021035425365">
        <ele>17.920000000000002</ele>
        <time>2014-11-23T13:36:20Z</time>
      </trkpt>
      <trkpt lat="51.388590540736914" lon="4.410436246544123">
        <ele>18.399999999999999</ele>
        <time>2014-11-23T13:36:07Z</time>
      </trkpt>
      <trkpt lat="51.388745773583651" lon="4.410666916519404">
        <ele>18.399999999999999</ele>
        <time>2014-11-23T13:35:54Z</time>
      </trkpt>
      <trkpt lat="51.388901090249419" lon="4.410937735810876">
        <ele>18.879999999999999</ele>
        <time>2014-11-23T13:35:41Z</time>
      </trkpt>
      <trkpt lat="51.389030003920197" lon="4.41120914183557">
        <ele>18.879999999999999</ele>
        <time>2014-11-23T13:35:27Z</time>
      </trkpt>
      <trkpt lat="51.389034362509847" lon="4.411230767145753">
        <ele>19.359999999999999</ele>
        <time>2014-11-23T13:35:26Z</time>
      </trkpt>
      <trkpt lat="51.389038972556591" lon="4.411252643913031">
        <ele>19.359999999999999</ele>
        <time>2014-11-23T13:35:25Z</time>
      </trkpt>
      <trkpt lat="51.389047019183636" lon="4.411274772137404">
        <ele>19.359999999999999</ele>
        <time>2014-11-23T13:35:24Z</time>
      </trkpt>
      <trkpt lat="51.389057664200664" lon="4.411299414932728">
        <ele>19.359999999999999</ele>
        <time>2014-11-23T13:35:23Z</time>
      </trkpt>
      <trkpt lat="51.389110973104835" lon="4.411444673314691">
        <ele>18.879999999999999</ele>
        <time>2014-11-23T13:35:18Z</time>
      </trkpt>
      <trkpt lat="51.389117343351245" lon="4.41146956756711">
        <ele>19.359999999999999</ele>
        <time>2014-11-23T13:35:17Z</time>
      </trkpt>
      <trkpt lat="51.389124384149909" lon="4.411497227847576">
        <ele>19.84</ele>
        <time>2014-11-23T13:35:16Z</time>
      </trkpt>
      <trkpt lat="51.38914056122303" lon="4.411536874249578">
        <ele>19.84</ele>
        <time>2014-11-23T13:35:14Z</time>
      </trkpt>
      <trkpt lat="51.38927198946476" lon="4.41176419146359">
        <ele>20.809999999999999</ele>
        <time>2014-11-23T13:35:01Z</time>
      </trkpt>
      <trkpt lat="51.38928079046309" lon="4.411783637478948">
        <ele>17.920000000000002</ele>
        <time>2014-11-23T13:35:00Z</time>
      </trkpt>
      <trkpt lat="51.389399142935872" lon="4.412044482305646">
        <ele>21.289999999999999</ele>
        <time>2014-11-23T13:34:48Z</time>
      </trkpt>
      <trkpt lat="51.389518668875098" lon="4.41229828633368">
        <ele>19.84</ele>
        <time>2014-11-23T13:34:37Z</time>
      </trkpt>
      <trkpt lat="51.389587735757232" lon="4.412503559142351">
        <ele>19.359999999999999</ele>
        <time>2014-11-23T13:34:26Z</time>
      </trkpt>
      <trkpt lat="51.389715140685439" lon="4.412797009572387">
        <ele>19.84</ele>
        <time>2014-11-23T13:34:11Z</time>
      </trkpt>
      <trkpt lat="51.389728300273418" lon="4.412814946845174">
        <ele>19.84</ele>
        <time>2014-11-23T13:34:10Z</time>
      </trkpt>
      <trkpt lat="51.389757804572582" lon="4.41284847445786">
        <ele>19.84</ele>
        <time>2014-11-23T13:34:08Z</time>
      </trkpt>
      <trkpt lat="51.389924520626664" lon="4.413072606548667">
        <ele>20.32</ele>
        <time>2014-11-23T13:33:53Z</time>
      </trkpt>
      <trkpt lat="51.39014177955687" lon="4.413272682577372">
        <ele>20.809999999999999</ele>
        <time>2014-11-23T13:33:41Z</time>
      </trkpt>
      <trkpt lat="51.390158543363214" lon="4.413295984268189">
        <ele>20.809999999999999</ele>
        <time>2014-11-23T13:33:40Z</time>
      </trkpt>
      <trkpt lat="51.390172792598605" lon="4.413322554901242">
        <ele>21.289999999999999</ele>
        <time>2014-11-23T13:33:39Z</time>
      </trkpt>
      <trkpt lat="51.390186538919806" lon="4.413393968716264">
        <ele>21.289999999999999</ele>
        <time>2014-11-23T13:33:36Z</time>
      </trkpt>
      <trkpt lat="51.390332132577896" lon="4.413230856880546">
        <ele>22.73</ele>
        <time>2014-11-23T13:33:23Z</time>
      </trkpt>
      <trkpt lat="51.390476217493415" lon="4.413016028702259">
        <ele>25.609999999999999</ele>
        <time>2014-11-23T13:33:08Z</time>
      </trkpt>
      <trkpt lat="51.390668833628297" lon="4.412836488336325">
        <ele>27.050000000000001</ele>
        <time>2014-11-23T13:32:51Z</time>
      </trkpt>
      <trkpt lat="51.390792382881045" lon="4.412646051496267">
        <ele>26.09</ele>
        <time>2014-11-23T13:32:39Z</time>
      </trkpt>
      <trkpt lat="51.390969073399901" lon="4.41244195215404">
        <ele>25.129999999999999</ele>
        <time>2014-11-23T13:32:23Z</time>
      </trkpt>
      <trkpt lat="51.391162527725101" lon="4.41219175234437">
        <ele>23.690000000000001</ele>
        <time>2014-11-23T13:32:05Z</time>
      </trkpt>
      <trkpt lat="51.391346342861652" lon="4.411952532827854">
        <ele>23.690000000000001</ele>
        <time>2014-11-23T13:31:47Z</time>
      </trkpt>
      <trkpt lat="51.391518088057637" lon="4.411709373816848">
        <ele>22.73</ele>
        <time>2014-11-23T13:31:31Z</time>
      </trkpt>
      <trkpt lat="51.391691509634256" lon="4.411515332758427">
        <ele>22.25</ele>
        <time>2014-11-23T13:31:16Z</time>
      </trkpt>
      <trkpt lat="51.391740795224905" lon="4.411478200927377">
        <ele>21.289999999999999</ele>
        <time>2014-11-23T13:31:12Z</time>
      </trkpt>
      <trkpt lat="51.391925364732742" lon="4.411292709410191">
        <ele>20.32</ele>
        <time>2014-11-23T13:30:57Z</time>
      </trkpt>
      <trkpt lat="51.391936177387834" lon="4.411278627812862">
        <ele>20.32</ele>
        <time>2014-11-23T13:30:56Z</time>
      </trkpt>
      <trkpt lat="51.391946906223893" lon="4.411259181797504">
        <ele>20.32</ele>
        <time>2014-11-23T13:30:55Z</time>
      </trkpt>
      <trkpt lat="51.39195797033608" lon="4.41124233417213">
        <ele>20.32</ele>
        <time>2014-11-23T13:30:54Z</time>
      </trkpt>
      <trkpt lat="51.391968363896012" lon="4.411225821822882">
        <ele>20.32</ele>
        <time>2014-11-23T13:30:53Z</time>
      </trkpt>
      <trkpt lat="51.39197900891304" lon="4.411215931177139">
        <ele>20.32</ele>
        <time>2014-11-23T13:30:52Z</time>
      </trkpt>
      <trkpt lat="51.392099540680647" lon="4.411058267578483">
        <ele>20.32</ele>
        <time>2014-11-23T13:30:38Z</time>
      </trkpt>
      <trkpt lat="51.39226826839149" lon="4.410848636180162">
        <ele>20.809999999999999</ele>
        <time>2014-11-23T13:30:21Z</time>
      </trkpt>
      <trkpt lat="51.392323253676295" lon="4.41079918295145">
        <ele>20.809999999999999</ele>
        <time>2014-11-23T13:30:15Z</time>
      </trkpt>
      <trkpt lat="51.392410509288311" lon="4.410684099420905">
        <ele>21.289999999999999</ele>
        <time>2014-11-23T13:30:04Z</time>
      </trkpt>
      <trkpt lat="51.392421908676624" lon="4.410668341442943">
        <ele>21.289999999999999</ele>
        <time>2014-11-23T13:30:03Z</time>
      </trkpt>
      <trkpt lat="51.392433727160096" lon="4.410655098035932">
        <ele>21.289999999999999</ele>
        <time>2014-11-23T13:30:02Z</time>
      </trkpt>
      <trkpt lat="51.392444120720029" lon="4.410644117742777">
        <ele>21.289999999999999</ele>
        <time>2014-11-23T13:30:01Z</time>
      </trkpt>
      <trkpt lat="51.392453256994486" lon="4.410628946498036">
        <ele>21.289999999999999</ele>
        <time>2014-11-23T13:30:00Z</time>
      </trkpt>
      <trkpt lat="51.392484353855252" lon="4.410577649250627">
        <ele>21.289999999999999</ele>
        <time>2014-11-23T13:29:55Z</time>
      </trkpt>
      <trkpt lat="51.392494747415185" lon="4.410558035597205">
        <ele>21.289999999999999</ele>
        <time>2014-11-23T13:29:54Z</time>
      </trkpt>
      <trkpt lat="51.392506649717689" lon="4.410539343953133">
        <ele>21.289999999999999</ele>
        <time>2014-11-23T13:29:53Z</time>
      </trkpt>
      <trkpt lat="51.392519474029541" lon="4.410518724471331">
        <ele>21.289999999999999</ele>
        <time>2014-11-23T13:29:52Z</time>
      </trkpt>
      <trkpt lat="51.392533974722028" lon="4.410493914037943">
        <ele>21.289999999999999</ele>
        <time>2014-11-23T13:29:51Z</time>
      </trkpt>
      <trkpt lat="51.392549145966768" lon="4.410473881289363">
        <ele>21.289999999999999</ele>
        <time>2014-11-23T13:29:50Z</time>
      </trkpt>
      <trkpt lat="51.392565155401826" lon="4.410460889339447">
        <ele>21.289999999999999</ele>
        <time>2014-11-23T13:29:49Z</time>
      </trkpt>
      <trkpt lat="51.392581751570106" lon="4.410449825227261">
        <ele>21.289999999999999</ele>
        <time>2014-11-23T13:29:48Z</time>
      </trkpt>
      <trkpt lat="51.392594827339053" lon="4.410432474687696">
        <ele>21.77</ele>
        <time>2014-11-23T13:29:47Z</time>
      </trkpt>
      <trkpt lat="51.392610166221857" lon="4.410420153290033">
        <ele>21.289999999999999</ele>
        <time>2014-11-23T13:29:46Z</time>
      </trkpt>
      <trkpt lat="51.392625337466598" lon="4.410413447767496">
        <ele>21.289999999999999</ele>
        <time>2014-11-23T13:29:45Z</time>
      </trkpt>
      <trkpt lat="51.392672192305326" lon="4.410344799980521">
        <ele>20.809999999999999</ele>
        <time>2014-11-23T13:29:41Z</time>
      </trkpt>
      <trkpt lat="51.39281652867794" lon="4.410167941823602">
        <ele>20.32</ele>
        <time>2014-11-23T13:29:31Z</time>
      </trkpt>
      <trkpt lat="51.392960194498301" lon="4.4100178219378">
        <ele>20.809999999999999</ele>
        <time>2014-11-23T13:29:26Z</time>
      </trkpt>
      <trkpt lat="51.393186924979091" lon="4.409752953797579">
        <ele>17.920000000000002</ele>
        <time>2014-11-23T13:29:21Z</time>
      </trkpt>
      <trkpt lat="51.393597470596433" lon="4.409239813685417">
        <ele>17.440000000000001</ele>
        <time>2014-11-23T13:29:13Z</time>
      </trkpt>
      <trkpt lat="51.393644157797098" lon="4.409178290516138">
        <ele>17.440000000000001</ele>
        <time>2014-11-23T13:29:12Z</time>
      </trkpt>
      <trkpt lat="51.393689922988415" lon="4.409121293574572">
        <ele>17.440000000000001</ele>
        <time>2014-11-23T13:29:11Z</time>
      </trkpt>
      <trkpt lat="51.393735101446509" lon="4.409072175621986">
        <ele>16.960000000000001</ele>
        <time>2014-11-23T13:29:10Z</time>
      </trkpt>
      <trkpt lat="51.393780866637826" lon="4.409017106518149">
        <ele>16.960000000000001</ele>
        <time>2014-11-23T13:29:09Z</time>
      </trkpt>
      <trkpt lat="51.393826548010111" lon="4.408958181738854">
        <ele>17.920000000000002</ele>
        <time>2014-11-23T13:29:08Z</time>
      </trkpt>
      <trkpt lat="51.394023187458515" lon="4.408680908381939">
        <ele>18.399999999999999</ele>
        <time>2014-11-23T13:29:03Z</time>
      </trkpt>
      <trkpt lat="51.394332563504577" lon="4.408258711919189">
        <ele>19.359999999999999</ele>
        <time>2014-11-23T13:28:56Z</time>
      </trkpt>
      <trkpt lat="51.394665827974677" lon="4.407889405265451">
        <ele>17.920000000000002</ele>
        <time>2014-11-23T13:28:49Z</time>
      </trkpt>
      <trkpt lat="51.394716706126928" lon="4.407840790227056">
        <ele>17.440000000000001</ele>
        <time>2014-11-23T13:28:48Z</time>
      </trkpt>
      <trkpt lat="51.39476808719337" lon="4.407789995893836">
        <ele>17.440000000000001</ele>
        <time>2014-11-23T13:28:47Z</time>
      </trkpt>
      <trkpt lat="51.394900185987353" lon="4.407606432214379">
        <ele>16.960000000000001</ele>
        <time>2014-11-23T13:28:44Z</time>
      </trkpt>
      <trkpt lat="51.395148960873485" lon="4.407300995662808">
        <ele>16.960000000000001</ele>
        <time>2014-11-23T13:28:38Z</time>
      </trkpt>
      <trkpt lat="51.395183745771646" lon="4.407246764749289">
        <ele>16.960000000000001</ele>
        <time>2014-11-23T13:28:37Z</time>
      </trkpt>
      <trkpt lat="51.395225906744599" lon="4.407190019264817">
        <ele>16.960000000000001</ele>
        <time>2014-11-23T13:28:36Z</time>
      </trkpt>
      <trkpt lat="51.395274773240089" lon="4.407133609056473">
        <ele>16.960000000000001</ele>
        <time>2014-11-23T13:28:35Z</time>
      </trkpt>
      <trkpt lat="51.39533051289618" lon="4.407076947391033">
        <ele>17.440000000000001</ele>
        <time>2014-11-23T13:28:34Z</time>
      </trkpt>
      <trkpt lat="51.395383905619383" lon="4.407019279897213">
        <ele>17.920000000000002</ele>
        <time>2014-11-23T13:28:33Z</time>
      </trkpt>
      <trkpt lat="51.39543704688549" lon="4.406961360946298">
        <ele>17.920000000000002</ele>
        <time>2014-11-23T13:28:32Z</time>
      </trkpt>
      <trkpt lat="51.395742483437061" lon="4.406553246080875">
        <ele>18.879999999999999</ele>
        <time>2014-11-23T13:28:25Z</time>
      </trkpt>
      <trkpt lat="51.395821524783969" lon="4.40645718947053">
        <ele>18.399999999999999</ele>
        <time>2014-11-23T13:28:23Z</time>
      </trkpt>
      <trkpt lat="51.395863685756922" lon="4.406408909708262">
        <ele>18.399999999999999</ele>
        <time>2014-11-23T13:28:22Z</time>
      </trkpt>
      <trkpt lat="51.395904337987304" lon="4.406358534470201">
        <ele>18.399999999999999</ele>
        <time>2014-11-23T13:28:21Z</time>
      </trkpt>
      <trkpt lat="51.395944487303495" lon="4.406300950795412">
        <ele>18.399999999999999</ele>
        <time>2014-11-23T13:28:20Z</time>
      </trkpt>
      <trkpt lat="51.395988659933209" lon="4.406239008530974">
        <ele>17.440000000000001</ele>
        <time>2014-11-23T13:28:19Z</time>
      </trkpt>
      <trkpt lat="51.396038867533207" lon="4.406189722940326">
        <ele>17.920000000000002</ele>
        <time>2014-11-23T13:28:18Z</time>
      </trkpt>
      <trkpt lat="51.396087314933538" lon="4.406154854223132">
        <ele>17.440000000000001</ele>
        <time>2014-11-23T13:28:17Z</time>
      </trkpt>
      <trkpt lat="51.396130733191967" lon="4.406116213649511">
        <ele>17.440000000000001</ele>
        <time>2014-11-23T13:28:16Z</time>
      </trkpt>
      <trkpt lat="51.396259143948555" lon="4.405986797064543">
        <ele>17.920000000000002</ele>
        <time>2014-11-23T13:28:13Z</time>
      </trkpt>
      <trkpt lat="51.396300718188286" lon="4.405942037701607">
        <ele>18.399999999999999</ele>
        <time>2014-11-23T13:28:12Z</time>
      </trkpt>
      <trkpt lat="51.396341621875763" lon="4.405893506482244">
        <ele>17.920000000000002</ele>
        <time>2014-11-23T13:28:11Z</time>
      </trkpt>
      <trkpt lat="51.396383782848716" lon="4.405834749341011">
        <ele>17.920000000000002</ele>
        <time>2014-11-23T13:28:10Z</time>
      </trkpt>
      <trkpt lat="51.396426782011986" lon="4.405770292505622">
        <ele>17.920000000000002</ele>
        <time>2014-11-23T13:28:09Z</time>
      </trkpt>
      <trkpt lat="51.396475397050381" lon="4.405711954459548">
        <ele>18.399999999999999</ele>
        <time>2014-11-23T13:28:08Z</time>
      </trkpt>
      <trkpt lat="51.396522838622332" lon="4.405652023851872">
        <ele>18.399999999999999</ele>
        <time>2014-11-23T13:28:07Z</time>
      </trkpt>
      <trkpt lat="51.396661475300789" lon="4.405502658337355">
        <ele>17.920000000000002</ele>
        <time>2014-11-23T13:28:04Z</time>
      </trkpt>
      <trkpt lat="51.396711599081755" lon="4.405445577576757">
        <ele>17.920000000000002</ele>
        <time>2014-11-23T13:28:03Z</time>
      </trkpt>
      <trkpt lat="51.396765578538179" lon="4.405390257015824">
        <ele>17.920000000000002</ele>
        <time>2014-11-23T13:28:02Z</time>
      </trkpt>
      <trkpt lat="51.396813187748194" lon="4.405336948111653">
        <ele>18.399999999999999</ele>
        <time>2014-11-23T13:28:01Z</time>
      </trkpt>
      <trkpt lat="51.396854342892766" lon="4.405286991968751">
        <ele>18.399999999999999</ele>
        <time>2014-11-23T13:28:00Z</time>
      </trkpt>
      <trkpt lat="51.39689315110445" lon="4.405246926471591">
        <ele>18.879999999999999</ele>
        <time>2014-11-23T13:27:59Z</time>
      </trkpt>
      <trkpt lat="51.396929612383246" lon="4.405201748013496">
        <ele>18.879999999999999</ele>
        <time>2014-11-23T13:27:58Z</time>
      </trkpt>
      <trkpt lat="51.396959200501442" lon="4.405147014185786">
        <ele>18.399999999999999</ele>
        <time>2014-11-23T13:27:57Z</time>
      </trkpt>
      <trkpt lat="51.396991889923811" lon="4.405099069699645">
        <ele>18.399999999999999</ele>
        <time>2014-11-23T13:27:56Z</time>
      </trkpt>
      <trkpt lat="51.397029859945178" lon="4.405051963403821">
        <ele>18.399999999999999</ele>
        <time>2014-11-23T13:27:55Z</time>
      </trkpt>
      <trkpt lat="51.397071266546845" lon="4.404995385557413">
        <ele>17.920000000000002</ele>
        <time>2014-11-23T13:27:54Z</time>
      </trkpt>
      <trkpt lat="51.397113930433989" lon="4.404942328110337">
        <ele>18.879999999999999</ele>
        <time>2014-11-23T13:27:53Z</time>
      </trkpt>
      <trkpt lat="51.397159527987242" lon="4.404887426644564">
        <ele>18.399999999999999</ele>
        <time>2014-11-23T13:27:52Z</time>
      </trkpt>
      <trkpt lat="51.397209651768208" lon="4.404831854626536">
        <ele>18.399999999999999</ele>
        <time>2014-11-23T13:27:51Z</time>
      </trkpt>
      <trkpt lat="51.397266061976552" lon="4.40478416159749">
        <ele>18.399999999999999</ele>
        <time>2014-11-23T13:27:50Z</time>
      </trkpt>
      <trkpt lat="51.397319370880723" lon="4.40473236143589">
        <ele>18.399999999999999</ele>
        <time>2014-11-23T13:27:49Z</time>
      </trkpt>
      <trkpt lat="51.397371087223291" lon="4.404679890722036">
        <ele>19.359999999999999</ele>
        <time>2014-11-23T13:27:48Z</time>
      </trkpt>
      <trkpt lat="51.397420624271035" lon="4.404629599303007">
        <ele>20.32</ele>
        <time>2014-11-23T13:27:47Z</time>
      </trkpt>
      <trkpt lat="51.397458594292402" lon="4.404580146074295">
        <ele>20.809999999999999</ele>
        <time>2014-11-23T13:27:46Z</time>
      </trkpt>
      <trkpt lat="51.397492289543152" lon="4.404526501893997">
        <ele>20.809999999999999</ele>
        <time>2014-11-23T13:27:45Z</time>
      </trkpt>
      <trkpt lat="51.3975312653929" lon="4.404473276808858">
        <ele>20.809999999999999</ele>
        <time>2014-11-23T13:27:44Z</time>
      </trkpt>
      <trkpt lat="51.39757233671844" lon="4.404420722275972">
        <ele>20.809999999999999</ele>
        <time>2014-11-23T13:27:43Z</time>
      </trkpt>
      <trkpt lat="51.397613156586885" lon="4.404372107237577">
        <ele>20.32</ele>
        <time>2014-11-23T13:27:42Z</time>
      </trkpt>
      <trkpt lat="51.397660179063678" lon="4.40433070063591">
        <ele>20.809999999999999</ele>
        <time>2014-11-23T13:27:41Z</time>
      </trkpt>
      <trkpt lat="51.397748440504074" lon="4.404225507751107">
        <ele>20.32</ele>
        <time>2014-11-23T13:27:39Z</time>
      </trkpt>
      <trkpt lat="51.397785488516092" lon="4.40417043864727">
        <ele>20.32</ele>
        <time>2014-11-23T13:27:38Z</time>
      </trkpt>
      <trkpt lat="51.397825218737125" lon="4.404110843315721">
        <ele>20.32</ele>
        <time>2014-11-23T13:27:37Z</time>
      </trkpt>
      <trkpt lat="51.397904511541128" lon="4.404001962393522">
        <ele>20.809999999999999</ele>
        <time>2014-11-23T13:27:35Z</time>
      </trkpt>
      <trkpt lat="51.397945247590542" lon="4.403944294899702">
        <ele>21.289999999999999</ele>
        <time>2014-11-23T13:27:34Z</time>
      </trkpt>
      <trkpt lat="51.397984139621258" lon="4.403894925490022">
        <ele>21.289999999999999</ele>
        <time>2014-11-23T13:27:33Z</time>
      </trkpt>
      <trkpt lat="51.398025630041957" lon="4.403853435069323">
        <ele>21.77</ele>
        <time>2014-11-23T13:27:32Z</time>
      </trkpt>
      <trkpt lat="51.398065276443958" lon="4.403815297409892">
        <ele>21.289999999999999</ele>
        <time>2014-11-23T13:27:31Z</time>
      </trkpt>
      <trkpt lat="51.398099726065993" lon="4.403781099244952">
        <ele>21.77</ele>
        <time>2014-11-23T13:27:30Z</time>
      </trkpt>
      <trkpt lat="51.398139288648963" lon="4.403747236356139">
        <ele>20.809999999999999</ele>
        <time>2014-11-23T13:27:29Z</time>
      </trkpt>
      <trkpt lat="51.398182287812233" lon="4.403711780905724">
        <ele>19.359999999999999</ele>
        <time>2014-11-23T13:27:28Z</time>
      </trkpt>
      <trkpt lat="51.398276332765818" lon="4.403602313250303">
        <ele>18.399999999999999</ele>
        <time>2014-11-23T13:27:26Z</time>
      </trkpt>
      <trkpt lat="51.398324277251959" lon="4.403534000739455">
        <ele>18.879999999999999</ele>
        <time>2014-11-23T13:27:25Z</time>
      </trkpt>
      <trkpt lat="51.39837171882391" lon="4.403467951342464">
        <ele>18.879999999999999</ele>
        <time>2014-11-23T13:27:24Z</time>
      </trkpt>
      <trkpt lat="51.398416478186846" lon="4.403420258313417">
        <ele>18.879999999999999</ele>
        <time>2014-11-23T13:27:23Z</time>
      </trkpt>
      <trkpt lat="51.398462159559131" lon="4.403366278856993">
        <ele>18.879999999999999</ele>
        <time>2014-11-23T13:27:22Z</time>
      </trkpt>
      <trkpt lat="51.398503063246608" lon="4.403298804536462">
        <ele>18.399999999999999</ele>
        <time>2014-11-23T13:27:21Z</time>
      </trkpt>
      <trkpt lat="51.398542039096355" lon="4.403244657441974">
        <ele>18.879999999999999</ele>
        <time>2014-11-23T13:27:20Z</time>
      </trkpt>
      <trkpt lat="51.398580260574818" lon="4.403196377679706">
        <ele>18.879999999999999</ele>
        <time>2014-11-23T13:27:19Z</time>
      </trkpt>
      <trkpt lat="51.39861504547298" lon="4.403138374909759">
        <ele>18.879999999999999</ele>
        <time>2014-11-23T13:27:18Z</time>
      </trkpt>
      <trkpt lat="51.398691907525063" lon="4.403029410168529">
        <ele>19.84</ele>
        <time>2014-11-23T13:27:16Z</time>
      </trkpt>
      <trkpt lat="51.39884278178215" lon="4.4028599280864">
        <ele>19.359999999999999</ele>
        <time>2014-11-23T13:27:11Z</time>
      </trkpt>
      <trkpt lat="51.399067249149084" lon="4.402600089088082">
        <ele>19.84</ele>
        <time>2014-11-23T13:27:02Z</time>
      </trkpt>
      <trkpt lat="51.399287274107337" lon="4.402328180149198">
        <ele>20.32</ele>
        <time>2014-11-23T13:26:53Z</time>
      </trkpt>
      <trkpt lat="51.399316024035215" lon="4.402283001691103">
        <ele>19.359999999999999</ele>
        <time>2014-11-23T13:26:52Z</time>
      </trkpt>
      <trkpt lat="51.399349132552743" lon="4.402232291176915">
        <ele>19.359999999999999</ele>
        <time>2014-11-23T13:26:51Z</time>
      </trkpt>
      <trkpt lat="51.399389700964093" lon="4.402175294235349">
        <ele>19.359999999999999</ele>
        <time>2014-11-23T13:26:50Z</time>
      </trkpt>
      <trkpt lat="51.399429766461253" lon="4.402127098292112">
        <ele>19.359999999999999</ele>
        <time>2014-11-23T13:26:49Z</time>
      </trkpt>
      <trkpt lat="51.399469999596477" lon="4.402085021138191">
        <ele>19.84</ele>
        <time>2014-11-23T13:26:48Z</time>
      </trkpt>
      <trkpt lat="51.399509394541383" lon="4.402036322280765">
        <ele>19.84</ele>
        <time>2014-11-23T13:26:47Z</time>
      </trkpt>
      <trkpt lat="51.399547280743718" lon="4.401986030861735">
        <ele>19.359999999999999</ele>
        <time>2014-11-23T13:26:46Z</time>
      </trkpt>
      <trkpt lat="51.399645935744047" lon="4.401869438588619">
        <ele>19.84</ele>
        <time>2014-11-23T13:26:43Z</time>
      </trkpt>
      <trkpt lat="51.399875935167074" lon="4.4015630800277">
        <ele>20.32</ele>
        <time>2014-11-23T13:26:34Z</time>
      </trkpt>
      <trkpt lat="51.399951288476586" lon="4.401477752253413">
        <ele>20.32</ele>
        <time>2014-11-23T13:26:31Z</time>
      </trkpt>
      <trkpt lat="51.400267453864217" lon="4.401028817519546">
        <ele>21.289999999999999</ele>
        <time>2014-11-23T13:26:19Z</time>
      </trkpt>
      <trkpt lat="51.400411706417799" lon="4.400865538045764">
        <ele>21.289999999999999</ele>
        <time>2014-11-23T13:26:13Z</time>
      </trkpt>
      <trkpt lat="51.400554953143001" lon="4.400651883333921">
        <ele>20.809999999999999</ele>
        <time>2014-11-23T13:26:05Z</time>
      </trkpt>
      <trkpt lat="51.401265906170011" lon="4.399716630578041">
        <ele>22.25</ele>
        <time>2014-11-23T13:23:44Z</time>
      </trkpt>
      <trkpt lat="51.401494313031435" lon="4.399439608678222">
        <ele>25.609999999999999</ele>
        <time>2014-11-23T13:23:17Z</time>
      </trkpt>
      <trkpt lat="51.402025809511542" lon="4.398888666182756">
        <ele>24.649999999999999</ele>
        <time>2014-11-23T13:22:34Z</time>
      </trkpt>
      <trkpt lat="51.402032179757953" lon="4.398873997852206">
        <ele>27.050000000000001</ele>
        <time>2014-11-23T13:22:33Z</time>
      </trkpt>
      <trkpt lat="51.40205548144877" lon="4.398852456361055">
        <ele>23.210000000000001</ele>
        <time>2014-11-23T13:22:31Z</time>
      </trkpt>
      <trkpt lat="51.402068473398685" lon="4.39884047023952">
        <ele>28.02</ele>
        <time>2014-11-23T13:22:30Z</time>
      </trkpt>
      <trkpt lat="51.40212538652122" lon="4.398780958727002">
        <ele>27.050000000000001</ele>
        <time>2014-11-23T13:22:26Z</time>
      </trkpt>
      <trkpt lat="51.402645064517856" lon="4.398020468652248">
        <ele>23.210000000000001</ele>
        <time>2014-11-23T13:21:34Z</time>
      </trkpt>
      <trkpt lat="51.402742797508836" lon="4.397900942713022">
        <ele>23.210000000000001</ele>
        <time>2014-11-23T13:21:23Z</time>
      </trkpt>
      <trkpt lat="51.403009844943881" lon="4.397606067359448">
        <ele>23.210000000000001</ele>
        <time>2014-11-23T13:21:06Z</time>
      </trkpt>
      <trkpt lat="51.403096681460738" lon="4.397472208365798">
        <ele>23.690000000000001</ele>
        <time>2014-11-23T13:20:52Z</time>
      </trkpt>
      <trkpt lat="51.403401782736182" lon="4.397231312468648">
        <ele>22.73</ele>
        <time>2014-11-23T13:20:26Z</time>
      </trkpt>
      <trkpt lat="51.40356439165771" lon="4.397039115428925">
        <ele>22.25</ele>
        <time>2014-11-23T13:20:12Z</time>
      </trkpt>
      <trkpt lat="51.403596913442016" lon="4.396959906443954">
        <ele>22.25</ele>
        <time>2014-11-23T13:20:08Z</time>
      </trkpt>
      <trkpt lat="51.403734544292092" lon="4.396826382726431">
        <ele>22.25</ele>
        <time>2014-11-23T13:19:58Z</time>
      </trkpt>
      <trkpt lat="51.403746698051691" lon="4.396806517615914">
        <ele>22.25</ele>
        <time>2014-11-23T13:19:57Z</time>
      </trkpt>
      <trkpt lat="51.403867397457361" lon="4.396693361923099">
        <ele>23.210000000000001</ele>
        <time>2014-11-23T13:19:43Z</time>
      </trkpt>
      <trkpt lat="51.40402858145535" lon="4.396495129913092">
        <ele>23.210000000000001</ele>
        <time>2014-11-23T13:19:28Z</time>
      </trkpt>
      <trkpt lat="51.404090356081724" lon="4.396415753290057">
        <ele>22.25</ele>
        <time>2014-11-23T13:19:22Z</time>
      </trkpt>
      <trkpt lat="51.404228489845991" lon="4.396258508786559">
        <ele>21.289999999999999</ele>
        <time>2014-11-23T13:19:08Z</time>
      </trkpt>
      <trkpt lat="51.404365617781878" lon="4.396043764427304">
        <ele>21.289999999999999</ele>
        <time>2014-11-23T13:18:52Z</time>
      </trkpt>
      <trkpt lat="51.404481958597898" lon="4.395889872685075">
        <ele>21.289999999999999</ele>
        <time>2014-11-23T13:18:38Z</time>
      </trkpt>
      <trkpt lat="51.404617745429277" lon="4.395751236006618">
        <ele>20.32</ele>
        <time>2014-11-23T13:18:24Z</time>
      </trkpt>
      <trkpt lat="51.405050503090024" lon="4.395282436162233">
        <ele>19.359999999999999</ele>
        <time>2014-11-23T13:17:43Z</time>
      </trkpt>
      <trkpt lat="51.405094675719738" lon="4.395185457542539">
        <ele>19.359999999999999</ele>
        <time>2014-11-23T13:17:38Z</time>
      </trkpt>
      <trkpt lat="51.405165670439601" lon="4.395095184445381">
        <ele>19.359999999999999</ele>
        <time>2014-11-23T13:17:30Z</time>
      </trkpt>
      <trkpt lat="51.405321070924401" lon="4.394914973527193">
        <ele>19.84</ele>
        <time>2014-11-23T13:17:17Z</time>
      </trkpt>
      <trkpt lat="51.405455097556114" lon="4.394757142290473">
        <ele>19.359999999999999</ele>
        <time>2014-11-23T13:17:03Z</time>
      </trkpt>
      <trkpt lat="51.405615024268627" lon="4.39457424916327">
        <ele>18.399999999999999</ele>
        <time>2014-11-23T13:16:45Z</time>
      </trkpt>
      <trkpt lat="51.405633464455605" lon="4.394548684358597">
        <ele>18.879999999999999</ele>
        <time>2014-11-23T13:16:43Z</time>
      </trkpt>
      <trkpt lat="51.405778806656599" lon="4.394380208104849">
        <ele>19.359999999999999</ele>
        <time>2014-11-23T13:16:29Z</time>
      </trkpt>
      <trkpt lat="51.405957592651248" lon="4.394207373261452">
        <ele>19.84</ele>
        <time>2014-11-23T13:16:12Z</time>
      </trkpt>
      <trkpt lat="51.406135121360421" lon="4.393978714942932">
        <ele>19.359999999999999</ele>
        <time>2014-11-23T13:15:56Z</time>
      </trkpt>
      <trkpt lat="51.4062933716923" lon="4.393805963918567">
        <ele>19.359999999999999</ele>
        <time>2014-11-23T13:15:40Z</time>
      </trkpt>
      <trkpt lat="51.40658657066524" lon="4.393468927592039">
        <ele>19.84</ele>
        <time>2014-11-23T13:15:12Z</time>
      </trkpt>
      <trkpt lat="51.406781701371074" lon="4.393248902633786">
        <ele>19.84</ele>
        <time>2014-11-23T13:14:55Z</time>
      </trkpt>
      <trkpt lat="51.40688362531364" lon="4.393105404451489">
        <ele>18.879999999999999</ele>
        <time>2014-11-23T13:14:41Z</time>
      </trkpt>
      <trkpt lat="51.406899131834507" lon="4.393079504370689">
        <ele>19.359999999999999</ele>
        <time>2014-11-23T13:14:39Z</time>
      </trkpt>
      <trkpt lat="51.407110607251525" lon="4.392766943201423">
        <ele>18.879999999999999</ele>
        <time>2014-11-23T13:14:17Z</time>
      </trkpt>
      <trkpt lat="51.407183948904276" lon="4.392712377011776">
        <ele>18.879999999999999</ele>
        <time>2014-11-23T13:14:10Z</time>
      </trkpt>
      <trkpt lat="51.40733658336103" lon="4.392537027597427">
        <ele>18.879999999999999</ele>
        <time>2014-11-23T13:13:57Z</time>
      </trkpt>
      <trkpt lat="51.407475555315614" lon="4.39240668900311">
        <ele>19.359999999999999</ele>
        <time>2014-11-23T13:13:46Z</time>
      </trkpt>
      <trkpt lat="51.407635817304254" lon="4.392266795039177">
        <ele>19.359999999999999</ele>
        <time>2014-11-23T13:13:31Z</time>
      </trkpt>
      <trkpt lat="51.407787529751658" lon="4.392054565250874">
        <ele>18.879999999999999</ele>
        <time>2014-11-23T13:13:14Z</time>
      </trkpt>
      <trkpt lat="51.407980732619762" lon="4.391799001023173">
        <ele>18.399999999999999</ele>
        <time>2014-11-23T13:12:55Z</time>
      </trkpt>
      <trkpt lat="51.408096821978688" lon="4.391642259433866">
        <ele>17.920000000000002</ele>
        <time>2014-11-23T13:12:42Z</time>
      </trkpt>
      <trkpt lat="51.408198494464159" lon="4.391495324671269">
        <ele>17.920000000000002</ele>
        <time>2014-11-23T13:12:28Z</time>
      </trkpt>
      <trkpt lat="51.408220790326595" lon="4.391431035473943">
        <ele>17.920000000000002</ele>
        <time>2014-11-23T13:12:26Z</time>
      </trkpt>
      <trkpt lat="51.408282984048128" lon="4.391283765435219">
        <ele>17.920000000000002</ele>
        <time>2014-11-23T13:12:20Z</time>
      </trkpt>
      <trkpt lat="51.408312572166324" lon="4.391190391033888">
        <ele>17.440000000000001</ele>
        <time>2014-11-23T13:12:13Z</time>
      </trkpt>
      <trkpt lat="51.408394044265151" lon="4.390886630862951">
        <ele>17.440000000000001</ele>
        <time>2014-11-23T13:11:56Z</time>
      </trkpt>
      <trkpt lat="51.408430757001042" lon="4.390810523182154">
        <ele>16.48</ele>
        <time>2014-11-23T13:11:51Z</time>
      </trkpt>
      <trkpt lat="51.408448694273829" lon="4.390675323083997">
        <ele>16.960000000000001</ele>
        <time>2014-11-23T13:11:42Z</time>
      </trkpt>
      <trkpt lat="51.408501751720905" lon="4.390370054170489">
        <ele>16.960000000000001</ele>
        <time>2014-11-23T13:11:27Z</time>
      </trkpt>
      <trkpt lat="51.408531507477164" lon="4.390164446085692">
        <ele>16.960000000000001</ele>
        <time>2014-11-23T13:11:19Z</time>
      </trkpt>
      <trkpt lat="51.408549277111888" lon="4.390074592083693">
        <ele>16.960000000000001</ele>
        <time>2014-11-23T13:11:15Z</time>
      </trkpt>
      <trkpt lat="51.408587666228414" lon="4.389780387282372">
        <ele>16.960000000000001</ele>
        <time>2014-11-23T13:11:00Z</time>
      </trkpt>
      <trkpt lat="51.408606944605708" lon="4.389455672353506">
        <ele>16.48</ele>
        <time>2014-11-23T13:10:43Z</time>
      </trkpt>
      <trkpt lat="51.408966360613704" lon="4.388027982786298">
        <ele>18.879999999999999</ele>
        <time>2014-11-23T13:09:29Z</time>
      </trkpt>
      <trkpt lat="51.408987063914537" lon="4.38789613544941">
        <ele>19.359999999999999</ele>
        <time>2014-11-23T13:09:27Z</time>
      </trkpt>
      <trkpt lat="51.409034505486488" lon="4.387722294777632">
        <ele>19.359999999999999</ele>
        <time>2014-11-23T13:09:14Z</time>
      </trkpt>
      <trkpt lat="51.40907951630652" lon="4.387380229309201">
        <ele>18.879999999999999</ele>
        <time>2014-11-23T13:08:58Z</time>
      </trkpt>
      <trkpt lat="51.409288644790649" lon="4.386502560228109">
        <ele>18.879999999999999</ele>
        <time>2014-11-23T13:08:18Z</time>
      </trkpt>
      <trkpt lat="51.409411104395986" lon="4.386565592139959">
        <ele>18.399999999999999</ele>
        <time>2014-11-23T13:08:12Z</time>
      </trkpt>
      <trkpt lat="51.409618388861418" lon="4.386495184153318">
        <ele>18.399999999999999</ele>
        <time>2014-11-23T13:08:03Z</time>
      </trkpt>
      <trkpt lat="51.409981492906809" lon="4.386432990431786">
        <ele>17.920000000000002</ele>
        <time>2014-11-23T13:07:32Z</time>
      </trkpt>
      <trkpt lat="51.410014601424336" lon="4.386432571336627">
        <ele>17.920000000000002</ele>
        <time>2014-11-23T13:07:30Z</time>
      </trkpt>
      <trkpt lat="51.410082746297121" lon="4.386428464204073">
        <ele>17.920000000000002</ele>
        <time>2014-11-23T13:07:24Z</time>
      </trkpt>
      <trkpt lat="51.410275865346193" lon="4.386432068422437">
        <ele>18.399999999999999</ele>
        <time>2014-11-23T13:07:09Z</time>
      </trkpt>
      <trkpt lat="51.41054785810411" lon="4.386363169178367">
        <ele>18.399999999999999</ele>
        <time>2014-11-23T13:06:49Z</time>
      </trkpt>
      <trkpt lat="51.411033170297742" lon="4.386340286582708">
        <ele>23.210000000000001</ele>
        <time>2014-11-23T13:06:11Z</time>
      </trkpt>
      <trkpt lat="51.4110491797328" lon="4.386339113116264">
        <ele>16.48</ele>
        <time>2014-11-23T13:06:10Z</time>
      </trkpt>
      <trkpt lat="51.411083629354835" lon="4.386336514726281">
        <ele>19.359999999999999</ele>
        <time>2014-11-23T13:06:08Z</time>
      </trkpt>
      <trkpt lat="51.411292422562838" lon="4.386308435350657">
        <ele>19.359999999999999</ele>
        <time>2014-11-23T13:05:52Z</time>
      </trkpt>
      <trkpt lat="51.411402141675353" lon="4.38627733848989">
        <ele>19.84</ele>
        <time>2014-11-23T13:05:43Z</time>
      </trkpt>
      <trkpt lat="51.411579670384526" lon="4.386239955201745">
        <ele>20.32</ele>
        <time>2014-11-23T13:05:29Z</time>
      </trkpt>
      <trkpt lat="51.411770107224584" lon="4.386173989623785">
        <ele>20.32</ele>
        <time>2014-11-23T13:05:12Z</time>
      </trkpt>
      <trkpt lat="51.4119868632406" lon="4.386122189462185">
        <ele>19.84</ele>
        <time>2014-11-23T13:04:55Z</time>
      </trkpt>
      <trkpt lat="51.412035645917058" lon="4.386107102036476">
        <ele>20.809999999999999</ele>
        <time>2014-11-23T13:04:50Z</time>
      </trkpt>
      <trkpt lat="51.412210743874311" lon="4.386066198348999">
        <ele>20.809999999999999</ele>
        <time>2014-11-23T13:04:36Z</time>
      </trkpt>
      <trkpt lat="51.412424230948091" lon="4.386032503098249">
        <ele>21.289999999999999</ele>
        <time>2014-11-23T13:04:20Z</time>
      </trkpt>
      <trkpt lat="51.412456417456269" lon="4.38603300601244">
        <ele>21.289999999999999</ele>
        <time>2014-11-23T13:04:17Z</time>
      </trkpt>
      <trkpt lat="51.412645764648914" lon="4.38598413951695">
        <ele>20.809999999999999</ele>
        <time>2014-11-23T13:04:04Z</time>
      </trkpt>
      <trkpt lat="51.412856485694647" lon="4.385973075404763">
        <ele>21.289999999999999</ele>
        <time>2014-11-23T13:03:47Z</time>
      </trkpt>
      <trkpt lat="51.412882972508669" lon="4.385955641046166">
        <ele>21.77</ele>
        <time>2014-11-23T13:03:45Z</time>
      </trkpt>
      <trkpt lat="51.413007443770766" lon="4.385899063199759">
        <ele>21.77</ele>
        <time>2014-11-23T13:03:35Z</time>
      </trkpt>
      <trkpt lat="51.413166783750057" lon="4.385878946632147">
        <ele>20.809999999999999</ele>
        <time>2014-11-23T13:03:22Z</time>
      </trkpt>
      <trkpt lat="51.413341797888279" lon="4.38585564494133">
        <ele>19.359999999999999</ele>
        <time>2014-11-23T13:03:07Z</time>
      </trkpt>
      <trkpt lat="51.413554865866899" lon="4.385783141478896">
        <ele>19.359999999999999</ele>
        <time>2014-11-23T13:02:51Z</time>
      </trkpt>
      <trkpt lat="51.413605911657214" lon="4.385764701291919">
        <ele>19.359999999999999</ele>
        <time>2014-11-23T13:02:48Z</time>
      </trkpt>
      <trkpt lat="51.413574311882257" lon="4.385614413768053">
        <ele>18.879999999999999</ele>
        <time>2014-11-23T13:02:38Z</time>
      </trkpt>
      <trkpt lat="51.413554027676582" lon="4.385283328592777">
        <ele>19.84</ele>
        <time>2014-11-23T13:02:24Z</time>
      </trkpt>
      <trkpt lat="51.413547322154045" lon="4.385213423520327">
        <ele>19.359999999999999</ele>
        <time>2014-11-23T13:02:20Z</time>
      </trkpt>
      <trkpt lat="51.413568193092942" lon="4.384870771318674">
        <ele>19.84</ele>
        <time>2014-11-23T13:02:06Z</time>
      </trkpt>
      <trkpt lat="51.413524271920323" lon="4.384495848789811">
        <ele>19.359999999999999</ele>
        <time>2014-11-23T13:01:50Z</time>
      </trkpt>
      <trkpt lat="51.41354363411665" lon="4.383456828072667">
        <ele>19.359999999999999</ele>
        <time>2014-11-23T13:01:41Z</time>
      </trkpt>
      <trkpt lat="51.413833647966385" lon="4.383049886673689">
        <ele>18.879999999999999</ele>
        <time>2014-11-23T13:01:26Z</time>
      </trkpt>
      <trkpt lat="51.413977146148682" lon="4.382527191191912">
        <ele>18.879999999999999</ele>
        <time>2014-11-23T13:01:10Z</time>
      </trkpt>
      <trkpt lat="51.414002375677228" lon="4.38169009052217">
        <ele>22.73</ele>
        <time>2014-11-23T12:57:26Z</time>
      </trkpt>
      <trkpt lat="51.414087787270546" lon="4.381346935406327">
        <ele>18.399999999999999</ele>
        <time>2014-11-23T12:57:12Z</time>
      </trkpt>
      <trkpt lat="51.414238158613443" lon="4.381571402773261">
        <ele>17.440000000000001</ele>
        <time>2014-11-23T12:57:00Z</time>
      </trkpt>
      <trkpt lat="51.41443345695734" lon="4.381741136312485">
        <ele>17.440000000000001</ele>
        <time>2014-11-23T12:56:50Z</time>
      </trkpt>
      <trkpt lat="51.414554491639137" lon="4.381826464086771">
        <ele>17.920000000000002</ele>
        <time>2014-11-23T12:56:45Z</time>
      </trkpt>
      <trkpt lat="51.414813911542296" lon="4.381735939532518">
        <ele>16.960000000000001</ele>
        <time>2014-11-23T12:56:34Z</time>
      </trkpt>
      <trkpt lat="51.414836291223764" lon="4.3816954549402">
        <ele>16.960000000000001</ele>
        <time>2014-11-23T12:56:33Z</time>
      </trkpt>
      <trkpt lat="51.414984902366996" lon="4.381185080856085">
        <ele>16.960000000000001</ele>
        <time>2014-11-23T12:56:22Z</time>
      </trkpt>
      <trkpt lat="51.414994960650802" lon="4.381123222410679">
        <ele>17.440000000000001</ele>
        <time>2014-11-23T12:56:20Z</time>
      </trkpt>
      <trkpt lat="51.415006527677178" lon="4.381068320944905">
        <ele>17.440000000000001</ele>
        <time>2014-11-23T12:56:18Z</time>
      </trkpt>
      <trkpt lat="51.415012395009398" lon="4.380825664848089">
        <ele>16.960000000000001</ele>
        <time>2014-11-23T12:56:06Z</time>
      </trkpt>
      <trkpt lat="51.415018429979682" lon="4.380490640178323">
        <ele>16.960000000000001</ele>
        <time>2014-11-23T12:55:53Z</time>
      </trkpt>
      <trkpt lat="51.415099902078509" lon="4.380371198058128">
        <ele>16.960000000000001</ele>
        <time>2014-11-23T12:55:47Z</time>
      </trkpt>
      <trkpt lat="51.415131585672498" lon="4.380286373198032">
        <ele>16.960000000000001</ele>
        <time>2014-11-23T12:55:43Z</time>
      </trkpt>
      <trkpt lat="51.415192186832428" lon="4.380202051252127">
        <ele>16.48</ele>
        <time>2014-11-23T12:55:36Z</time>
      </trkpt>
      <trkpt lat="51.415335014462471" lon="4.380084704607725">
        <ele>16.960000000000001</ele>
        <time>2014-11-23T12:55:23Z</time>
      </trkpt>
      <trkpt lat="51.415376672521234" lon="4.380063414573669">
        <ele>17.440000000000001</ele>
        <time>2014-11-23T12:55:20Z</time>
      </trkpt>
      <trkpt lat="51.415416905656457" lon="4.380050003528595">
        <ele>17.440000000000001</ele>
        <time>2014-11-23T12:55:17Z</time>
      </trkpt>
      <trkpt lat="51.415587393566966" lon="4.38002091832459">
        <ele>17.440000000000001</ele>
        <time>2014-11-23T12:55:03Z</time>
      </trkpt>
      <trkpt lat="51.415776154026389" lon="4.379788069054484">
        <ele>17.440000000000001</ele>
        <time>2014-11-23T12:54:47Z</time>
      </trkpt>
      <trkpt lat="51.415795935317874" lon="4.379759319126606">
        <ele>17.440000000000001</ele>
        <time>2014-11-23T12:54:45Z</time>
      </trkpt>
      <trkpt lat="51.415828205645084" lon="4.379624873399735">
        <ele>17.440000000000001</ele>
        <time>2014-11-23T12:54:38Z</time>
      </trkpt>
      <trkpt lat="51.415837677195668" lon="4.379579778760672">
        <ele>16.960000000000001</ele>
        <time>2014-11-23T12:54:36Z</time>
      </trkpt>
      <trkpt lat="51.415860643610358" lon="4.379429323598743">
        <ele>16.960000000000001</ele>
        <time>2014-11-23T12:54:30Z</time>
      </trkpt>
      <trkpt lat="51.415923591703176" lon="4.379302756860852">
        <ele>16.960000000000001</ele>
        <time>2014-11-23T12:54:20Z</time>
      </trkpt>
      <trkpt lat="51.415922585874796" lon="4.379302756860852">
        <ele>16.960000000000001</ele>
        <time>2014-11-23T12:54:19Z</time>
      </trkpt>
      <trkpt lat="51.416056863963604" lon="4.379375595599413">
        <ele>16.960000000000001</ele>
        <time>2014-11-23T12:54:05Z</time>
      </trkpt>
      <trkpt lat="51.416141521185637" lon="4.379366375505924">
        <ele>17.440000000000001</ele>
        <time>2014-11-23T12:53:58Z</time>
      </trkpt>
      <trkpt lat="51.416241098195314" lon="4.379283981397748">
        <ele>17.440000000000001</ele>
        <time>2014-11-23T12:53:51Z</time>
      </trkpt>
      <trkpt lat="51.416279906406999" lon="4.379234109073877">
        <ele>16.960000000000001</ele>
        <time>2014-11-23T12:53:46Z</time>
      </trkpt>
      <trkpt lat="51.416401192545891" lon="4.379158588126302">
        <ele>17.440000000000001</ele>
        <time>2014-11-23T12:53:37Z</time>
      </trkpt>
      <trkpt lat="51.416581738740206" lon="4.379055239260197">
        <ele>17.440000000000001</ele>
        <time>2014-11-23T12:53:23Z</time>
      </trkpt>
      <trkpt lat="51.416619876399636" lon="4.379031769931316">
        <ele>17.440000000000001</ele>
        <time>2014-11-23T12:53:20Z</time>
      </trkpt>
      <trkpt lat="51.416672766208649" lon="4.378992626443505">
        <ele>17.440000000000001</ele>
        <time>2014-11-23T12:53:15Z</time>
      </trkpt>
      <trkpt lat="51.416865047067404" lon="4.37898307107389">
        <ele>17.920000000000002</ele>
        <time>2014-11-23T12:53:02Z</time>
      </trkpt>
      <trkpt lat="51.416944926604629" lon="4.378971168771386">
        <ele>17.440000000000001</ele>
        <time>2014-11-23T12:52:55Z</time>
      </trkpt>
      <trkpt lat="51.417032014578581" lon="4.378930348902941">
        <ele>17.440000000000001</ele>
        <time>2014-11-23T12:52:47Z</time>
      </trkpt>
      <trkpt lat="51.417141230776906" lon="4.37890687957406">
        <ele>17.440000000000001</ele>
        <time>2014-11-23T12:52:39Z</time>
      </trkpt>
      <trkpt lat="51.417243992909789" lon="4.378875195980072">
        <ele>17.440000000000001</ele>
        <time>2014-11-23T12:52:33Z</time>
      </trkpt>
      <trkpt lat="51.417357148602605" lon="4.378801770508289">
        <ele>17.440000000000001</ele>
        <time>2014-11-23T12:52:25Z</time>
      </trkpt>
      <trkpt lat="51.417558984830976" lon="4.37873974442482">
        <ele>17.920000000000002</ele>
        <time>2014-11-23T12:52:11Z</time>
      </trkpt>
      <trkpt lat="51.417641127482057" lon="4.378731111064553">
        <ele>17.920000000000002</ele>
        <time>2014-11-23T12:52:06Z</time>
      </trkpt>
      <trkpt lat="51.41767306253314" lon="4.37873924151063">
        <ele>17.920000000000002</ele>
        <time>2014-11-23T12:52:04Z</time>
      </trkpt>
      <trkpt lat="51.417696950957179" lon="4.378745947033167">
        <ele>17.920000000000002</ele>
        <time>2014-11-23T12:52:02Z</time>
      </trkpt>
      <trkpt lat="51.417930219322443" lon="4.378836220130324">
        <ele>17.920000000000002</ele>
        <time>2014-11-23T12:51:45Z</time>
      </trkpt>
      <trkpt lat="51.417986210435629" lon="4.378865975886583">
        <ele>18.399999999999999</ele>
        <time>2014-11-23T12:51:42Z</time>
      </trkpt>
      <trkpt lat="51.418142868205905" lon="4.379064375534654">
        <ele>17.920000000000002</ele>
        <time>2014-11-23T12:51:29Z</time>
      </trkpt>
      <trkpt lat="51.418269351124763" lon="4.379357742145658">
        <ele>17.440000000000001</ele>
        <time>2014-11-23T12:51:13Z</time>
      </trkpt>
      <trkpt lat="51.418357864022255" lon="4.379460420459509">
        <ele>18.399999999999999</ele>
        <time>2014-11-23T12:51:05Z</time>
      </trkpt>
      <trkpt lat="51.418509492650628" lon="4.379655299708247">
        <ele>18.399999999999999</ele>
        <time>2014-11-23T12:50:51Z</time>
      </trkpt>
      <trkpt lat="51.418694397434592" lon="4.379812963306904">
        <ele>17.920000000000002</ele>
        <time>2014-11-23T12:50:36Z</time>
      </trkpt>
      <trkpt lat="51.418771091848612" lon="4.37986895442009">
        <ele>17.920000000000002</ele>
        <time>2014-11-23T12:50:30Z</time>
      </trkpt>
      <trkpt lat="51.418945603072643" lon="4.380106162279844">
        <ele>17.920000000000002</ele>
        <time>2014-11-23T12:50:14Z</time>
      </trkpt>
      <trkpt lat="51.418972928076982" lon="4.38014212064445">
        <ele>17.920000000000002</ele>
        <time>2014-11-23T12:50:11Z</time>
      </trkpt>
      <trkpt lat="51.419026991352439" lon="4.380227951332927">
        <ele>17.920000000000002</ele>
        <time>2014-11-23T12:50:05Z</time>
      </trkpt>
      <trkpt lat="51.419082647189498" lon="4.380307998508215">
        <ele>17.920000000000002</ele>
        <time>2014-11-23T12:50:00Z</time>
      </trkpt>
      <trkpt lat="51.419124975800514" lon="4.380364241078496">
        <ele>17.440000000000001</ele>
        <time>2014-11-23T12:49:56Z</time>
      </trkpt>
      <trkpt lat="51.419232096523046" lon="4.380591306835413">
        <ele>16.960000000000001</ele>
        <time>2014-11-23T12:49:42Z</time>
      </trkpt>
      <trkpt lat="51.419392693787813" lon="4.380880566313863">
        <ele>17.440000000000001</ele>
        <time>2014-11-23T12:49:28Z</time>
      </trkpt>
      <trkpt lat="51.419476261362433" lon="4.380986429750919">
        <ele>17.440000000000001</ele>
        <time>2014-11-23T12:49:21Z</time>
      </trkpt>
      <trkpt lat="51.419539377093315" lon="4.38111299648881">
        <ele>17.440000000000001</ele>
        <time>2014-11-23T12:49:13Z</time>
      </trkpt>
      <trkpt lat="51.419616406783462" lon="4.381251633167267">
        <ele>17.920000000000002</ele>
        <time>2014-11-23T12:49:04Z</time>
      </trkpt>
      <trkpt lat="51.419703913852572" lon="4.381413655355573">
        <ele>18.399999999999999</ele>
        <time>2014-11-23T12:48:53Z</time>
      </trkpt>
      <trkpt lat="51.419815979897976" lon="4.381694197654724">
        <ele>18.399999999999999</ele>
        <time>2014-11-23T12:48:37Z</time>
      </trkpt>
      <trkpt lat="51.419966099783778" lon="4.381847837939858">
        <ele>18.399999999999999</ele>
        <time>2014-11-23T12:48:25Z</time>
      </trkpt>
      <trkpt lat="51.420111693441868" lon="4.381884215399623">
        <ele>18.399999999999999</ele>
        <time>2014-11-23T12:48:14Z</time>
      </trkpt>
      <trkpt lat="51.420189142227173" lon="4.381831157952547">
        <ele>17.920000000000002</ele>
        <time>2014-11-23T12:48:07Z</time>
      </trkpt>
      <trkpt lat="51.420357199385762" lon="4.381691431626678">
        <ele>16.960000000000001</ele>
        <time>2014-11-23T12:47:53Z</time>
      </trkpt>
      <trkpt lat="51.420511174947023" lon="4.381649354472756">
        <ele>16.960000000000001</ele>
        <time>2014-11-23T12:47:41Z</time>
      </trkpt>
      <trkpt lat="51.420688033103943" lon="4.3816436547786">
        <ele>17.440000000000001</ele>
        <time>2014-11-23T12:47:28Z</time>
      </trkpt>
      <trkpt lat="51.420886684209108" lon="4.381579952314496">
        <ele>17.440000000000001</ele>
        <time>2014-11-23T12:47:14Z</time>
      </trkpt>
      <trkpt lat="51.420981232076883" lon="4.381418684497476">
        <ele>17.440000000000001</ele>
        <time>2014-11-23T12:47:03Z</time>
      </trkpt>
      <trkpt lat="51.421097153797746" lon="4.381176698952913">
        <ele>16.960000000000001</ele>
        <time>2014-11-23T12:46:49Z</time>
      </trkpt>
      <trkpt lat="51.42117653042078" lon="4.380908310413361">
        <ele>16.960000000000001</ele>
        <time>2014-11-23T12:46:36Z</time>
      </trkpt>
      <trkpt lat="51.421296559274197" lon="4.380673952400684">
        <ele>17.440000000000001</ele>
        <time>2014-11-23T12:46:23Z</time>
      </trkpt>
      <trkpt lat="51.421450115740299" lon="4.380501955747604">
        <ele>16.960000000000001</ele>
        <time>2014-11-23T12:46:10Z</time>
      </trkpt>
      <trkpt lat="51.42162412405014" lon="4.380263239145279">
        <ele>16.960000000000001</ele>
        <time>2014-11-23T12:45:56Z</time>
      </trkpt>
      <trkpt lat="51.421768460422754" lon="4.38011328689754">
        <ele>16.960000000000001</ele>
        <time>2014-11-23T12:45:44Z</time>
      </trkpt>
      <trkpt lat="51.421942552551627" lon="4.379978757351637">
        <ele>16.960000000000001</ele>
        <time>2014-11-23T12:45:30Z</time>
      </trkpt>
      <trkpt lat="51.421978175640106" lon="4.379949755966663">
        <ele>16.960000000000001</ele>
        <time>2014-11-23T12:45:27Z</time>
      </trkpt>
      <trkpt lat="51.422058055177331" lon="4.379894603043795">
        <ele>16.960000000000001</ele>
        <time>2014-11-23T12:45:21Z</time>
      </trkpt>
      <trkpt lat="51.422212030738592" lon="4.379994682967663">
        <ele>16.48</ele>
        <time>2014-11-23T12:45:09Z</time>
      </trkpt>
      <trkpt lat="51.422246731817722" lon="4.380036257207394">
        <ele>16.960000000000001</ele>
        <time>2014-11-23T12:45:06Z</time>
      </trkpt>
      <trkpt lat="51.422306159511209" lon="4.380104569718242">
        <ele>16</ele>
        <time>2014-11-23T12:45:00Z</time>
      </trkpt>
      <trkpt lat="51.422545211389661" lon="4.380177827551961">
        <ele>16</ele>
        <time>2014-11-23T12:44:45Z</time>
      </trkpt>
      <trkpt lat="51.422678986564279" lon="4.380277572199702">
        <ele>16</ele>
        <time>2014-11-23T12:44:33Z</time>
      </trkpt>
      <trkpt lat="51.422778479754925" lon="4.38037371262908">
        <ele>16</ele>
        <time>2014-11-23T12:44:25Z</time>
      </trkpt>
      <trkpt lat="51.422829441726208" lon="4.380394918844104">
        <ele>16.48</ele>
        <time>2014-11-23T12:44:21Z</time>
      </trkpt>
      <trkpt lat="51.422960702329874" lon="4.380488712340593">
        <ele>16.48</ele>
        <time>2014-11-23T12:44:09Z</time>
      </trkpt>
      <trkpt lat="51.423138147220016" lon="4.38062977977097">
        <ele>16.48</ele>
        <time>2014-11-23T12:43:52Z</time>
      </trkpt>
      <trkpt lat="51.423336882144213" lon="4.380784593522549">
        <ele>16.48</ele>
        <time>2014-11-23T12:43:36Z</time>
      </trkpt>
      <trkpt lat="51.423391615971923" lon="4.380864053964615">
        <ele>16.48</ele>
        <time>2014-11-23T12:43:31Z</time>
      </trkpt>
      <trkpt lat="51.423401590436697" lon="4.380883583799005">
        <ele>16.48</ele>
        <time>2014-11-23T12:43:30Z</time>
      </trkpt>
      <trkpt lat="51.42351851798594" lon="4.381130011752248">
        <ele>16</ele>
        <time>2014-11-23T12:43:16Z</time>
      </trkpt>
      <trkpt lat="51.423541149124503" lon="4.381161276251078">
        <ele>16</ele>
        <time>2014-11-23T12:43:14Z</time>
      </trkpt>
      <trkpt lat="51.423692023381591" lon="4.381410134956241">
        <ele>15.52</ele>
        <time>2014-11-23T12:43:00Z</time>
      </trkpt>
      <trkpt lat="51.423853794112802" lon="4.381658239290118">
        <ele>15.52</ele>
        <time>2014-11-23T12:42:45Z</time>
      </trkpt>
      <trkpt lat="51.424002321437001" lon="4.381905253976584">
        <ele>16</ele>
        <time>2014-11-23T12:42:29Z</time>
      </trkpt>
      <trkpt lat="51.424071472138166" lon="4.382077334448695">
        <ele>15.52</ele>
        <time>2014-11-23T12:42:17Z</time>
      </trkpt>
      <trkpt lat="51.424200301989913" lon="4.382245140150189">
        <ele>16</ele>
        <time>2014-11-23T12:42:05Z</time>
      </trkpt>
      <trkpt lat="51.424264591187239" lon="4.382411353290081">
        <ele>15.52</ele>
        <time>2014-11-23T12:41:58Z</time>
      </trkpt>
      <trkpt lat="51.424311613664031" lon="4.382630623877049">
        <ele>15.52</ele>
        <time>2014-11-23T12:41:47Z</time>
      </trkpt>
      <trkpt lat="51.424327036365867" lon="4.382732128724456">
        <ele>15.039999999999999</ele>
        <time>2014-11-23T12:41:27Z</time>
      </trkpt>
      <trkpt lat="51.424334831535816" lon="4.382715867832303">
        <ele>15.039999999999999</ele>
        <time>2014-11-23T12:41:02Z</time>
      </trkpt>
      <trkpt lat="51.424349835142493" lon="4.382722489535809">
        <ele>15.039999999999999</ele>
        <time>2014-11-23T12:40:46Z</time>
      </trkpt>
      <trkpt lat="51.424328042194247" lon="4.382735816761851">
        <ele>15.039999999999999</ele>
        <time>2014-11-23T12:40:31Z</time>
      </trkpt>
      <trkpt lat="51.424339525401592" lon="4.382730200886726">
        <ele>14.56</ele>
        <time>2014-11-23T12:40:21Z</time>
      </trkpt>
      <trkpt lat="51.424359725788236" lon="4.382733553647995">
        <ele>15.039999999999999</ele>
        <time>2014-11-23T12:40:09Z</time>
      </trkpt>
      <trkpt lat="51.424363497644663" lon="4.382740175351501">
        <ele>15.039999999999999</ele>
        <time>2014-11-23T12:39:51Z</time>
      </trkpt>
      <trkpt lat="51.424369448795915" lon="4.382734140381217">
        <ele>15.039999999999999</ele>
        <time>2014-11-23T12:39:19Z</time>
      </trkpt>
      <trkpt lat="51.424383530393243" lon="4.382721148431301">
        <ele>15.039999999999999</ele>
        <time>2014-11-23T12:38:50Z</time>
      </trkpt>
      <trkpt lat="51.42438679933548" lon="4.382708072662354">
        <ele>15.52</ele>
        <time>2014-11-23T12:38:27Z</time>
      </trkpt>
      <trkpt lat="51.424388810992241" lon="4.382692566141486">
        <ele>15.52</ele>
        <time>2014-11-23T12:38:01Z</time>
      </trkpt>
      <trkpt lat="51.424387553706765" lon="4.382672030478716">
        <ele>15.52</ele>
        <time>2014-11-23T12:37:38Z</time>
      </trkpt>
      <trkpt lat="51.424393756315112" lon="4.382648225873709">
        <ele>16.48</ele>
        <time>2014-11-23T12:37:21Z</time>
      </trkpt>
      <trkpt lat="51.424390822649002" lon="4.382654931396246">
        <ele>16</ele>
        <time>2014-11-23T12:37:06Z</time>
      </trkpt>
      <trkpt lat="51.424356205388904" lon="4.382677227258682">
        <ele>16</ele>
        <time>2014-11-23T12:36:47Z</time>
      </trkpt>
      <trkpt lat="51.424287306144834" lon="4.382745372131467">
        <ele>16</ele>
        <time>2014-11-23T12:36:25Z</time>
      </trkpt>
      <trkpt lat="51.424223184585571" lon="4.38274696469307">
        <ele>15.52</ele>
        <time>2014-11-23T12:36:03Z</time>
      </trkpt>
      <trkpt lat="51.424073986709118" lon="4.382837740704417">
        <ele>15.52</ele>
        <time>2014-11-23T12:35:49Z</time>
      </trkpt>
      <trkpt lat="51.423976924270391" lon="4.382900940254331">
        <ele>16</ele>
        <time>2014-11-23T12:35:35Z</time>
      </trkpt>
      <trkpt lat="51.424010368064046" lon="4.382807062938809">
        <ele>16.960000000000001</ele>
        <time>2014-11-23T12:35:29Z</time>
      </trkpt>
      <trkpt lat="51.4241112023592" lon="4.383095819503069">
        <ele>14.56</ele>
        <time>2014-11-23T12:33:36Z</time>
      </trkpt>
      <trkpt lat="51.423947252333164" lon="4.383058520033956">
        <ele>16.48</ele>
        <time>2014-11-23T12:33:20Z</time>
      </trkpt>
      <trkpt lat="51.423990251496434" lon="4.383097244426608">
        <ele>16.48</ele>
        <time>2014-11-23T12:33:02Z</time>
      </trkpt>
      <trkpt lat="51.424005758017302" lon="4.383113589137793">
        <ele>16.48</ele>
        <time>2014-11-23T12:32:37Z</time>
      </trkpt>
      <trkpt lat="51.424000142142177" lon="4.383075283840299">
        <ele>16.48</ele>
        <time>2014-11-23T12:32:17Z</time>
      </trkpt>
      <trkpt lat="51.423940043896437" lon="4.383028177544475">
        <ele>16</ele>
        <time>2014-11-23T12:31:52Z</time>
      </trkpt>
      <trkpt lat="51.423960663378239" lon="4.383061286062002">
        <ele>16.48</ele>
        <time>2014-11-23T12:31:26Z</time>
      </trkpt>
      <trkpt lat="51.423977678641677" lon="4.383065057918429">
        <ele>16</ele>
        <time>2014-11-23T12:31:24Z</time>
      </trkpt>
      <trkpt lat="51.423982791602612" lon="4.383084252476692">
        <ele>16.48</ele>
        <time>2014-11-23T12:31:19Z</time>
      </trkpt>
      <trkpt lat="51.423980612307787" lon="4.383167987689376">
        <ele>15.039999999999999</ele>
        <time>2014-11-23T12:30:56Z</time>
      </trkpt>
      <trkpt lat="51.423962423577905" lon="4.383249962702394">
        <ele>18.879999999999999</ele>
        <time>2014-11-23T12:30:47Z</time>
      </trkpt>
      <trkpt lat="51.423962088301778" lon="4.383250214159489">
        <ele>9.75</ele>
        <time>2014-11-23T12:30:46Z</time>
      </trkpt>
      <trkpt lat="51.423961333930492" lon="4.38325222581625">
        <ele>16.48</ele>
        <time>2014-11-23T12:30:44Z</time>
      </trkpt>
      <trkpt lat="51.423960663378239" lon="4.383254321292043">
        <ele>12.15</ele>
        <time>2014-11-23T12:30:43Z</time>
      </trkpt>
      <trkpt lat="51.423952616751194" lon="4.383256835862994">
        <ele>16</ele>
        <time>2014-11-23T12:30:36Z</time>
      </trkpt>
      <trkpt lat="51.423952784389257" lon="4.383256668224931">
        <ele>16.960000000000001</ele>
        <time>2014-11-23T12:30:35Z</time>
      </trkpt>
      <trkpt lat="51.423968626186252" lon="4.38323169015348">
        <ele>16.960000000000001</ele>
        <time>2014-11-23T12:30:29Z</time>
      </trkpt>
      <trkpt lat="51.423968877643347" lon="4.383230851963162">
        <ele>15.52</ele>
        <time>2014-11-23T12:30:28Z</time>
      </trkpt>
      <trkpt lat="51.423968793824315" lon="4.383232025429606">
        <ele>18.399999999999999</ele>
        <time>2014-11-23T12:30:27Z</time>
      </trkpt>
      <trkpt lat="51.423969715833664" lon="4.383234037086368">
        <ele>13.6</ele>
        <time>2014-11-23T12:30:26Z</time>
      </trkpt>
      <trkpt lat="51.423971895128489" lon="4.383229007944465">
        <ele>16.960000000000001</ele>
        <time>2014-11-23T12:30:22Z</time>
      </trkpt>
      <trkpt lat="51.423973320052028" lon="4.383223475888372">
        <ele>15.039999999999999</ele>
        <time>2014-11-23T12:30:21Z</time>
      </trkpt>
      <trkpt lat="51.423976002261043" lon="4.383204784244299">
        <ele>16.48</ele>
        <time>2014-11-23T12:30:18Z</time>
      </trkpt>
      <trkpt lat="51.423976169899106" lon="4.383198246359825">
        <ele>19.84</ele>
        <time>2014-11-23T12:30:17Z</time>
      </trkpt>
      <trkpt lat="51.423977008089423" lon="4.383192211389542">
        <ele>14.08</ele>
        <time>2014-11-23T12:30:16Z</time>
      </trkpt>
      <trkpt lat="51.423979690298438" lon="4.383178800344467">
        <ele>16.960000000000001</ele>
        <time>2014-11-23T12:30:14Z</time>
      </trkpt>
      <trkpt lat="51.423981282860041" lon="4.383172346279025">
        <ele>23.690000000000001</ele>
        <time>2014-11-23T12:30:13Z</time>
      </trkpt>
      <trkpt lat="51.423982288688421" lon="4.383166981860995">
        <ele>9.27</ele>
        <time>2014-11-23T12:30:12Z</time>
      </trkpt>
      <trkpt lat="51.423984384164214" lon="4.383167903870344">
        <ele>16</ele>
        <time>2014-11-23T12:30:07Z</time>
      </trkpt>
      <trkpt lat="51.424042470753193" lon="4.383070841431618">
        <ele>18.879999999999999</ele>
        <time>2014-11-23T12:29:47Z</time>
      </trkpt>
      <trkpt lat="51.424047248438001" lon="4.383072517812252">
        <ele>12.630000000000001</ele>
        <time>2014-11-23T12:29:46Z</time>
      </trkpt>
      <trkpt lat="51.424047332257032" lon="4.383073439821601">
        <ele>21.77</ele>
        <time>2014-11-23T12:29:45Z</time>
      </trkpt>
      <trkpt lat="51.424048086628318" lon="4.383075116202235">
        <ele>9.75</ele>
        <time>2014-11-23T12:29:44Z</time>
      </trkpt>
      <trkpt lat="51.424047751352191" lon="4.383076708763838">
        <ele>16</ele>
        <time>2014-11-23T12:29:41Z</time>
      </trkpt>
      <trkpt lat="51.424017995595932" lon="4.383110571652651">
        <ele>16.48</ele>
        <time>2014-11-23T12:29:20Z</time>
      </trkpt>
      <trkpt lat="51.42401740886271" lon="4.383110320195556">
        <ele>19.84</ele>
        <time>2014-11-23T12:29:19Z</time>
      </trkpt>
      <trkpt lat="51.42401690594852" lon="4.383110320195556">
        <ele>12.630000000000001</ele>
        <time>2014-11-23T12:29:18Z</time>
      </trkpt>
      <trkpt lat="51.424015983939171" lon="4.383109482005239">
        <ele>18.399999999999999</ele>
        <time>2014-11-23T12:29:16Z</time>
      </trkpt>
      <trkpt lat="51.424015397205949" lon="4.383108643814921">
        <ele>15.039999999999999</ele>
        <time>2014-11-23T12:29:15Z</time>
      </trkpt>
      <trkpt lat="51.42401497811079" lon="4.383107470348477">
        <ele>18.879999999999999</ele>
        <time>2014-11-23T12:29:14Z</time>
      </trkpt>
      <trkpt lat="51.424014139920473" lon="4.383106548339129">
        <ele>13.6</ele>
        <time>2014-11-23T12:29:13Z</time>
      </trkpt>
      <trkpt lat="51.424011122435331" lon="4.383104620501399">
        <ele>24.170000000000002</ele>
        <time>2014-11-23T12:29:12Z</time>
      </trkpt>
      <trkpt lat="51.424007685855031" lon="4.383105458691716">
        <ele>7.83</ele>
        <time>2014-11-23T12:29:11Z</time>
      </trkpt>
      <trkpt lat="51.424001650884748" lon="4.383116019889712">
        <ele>16.960000000000001</ele>
        <time>2014-11-23T12:29:08Z</time>
      </trkpt>
      <trkpt lat="51.423993436619639" lon="4.383125239983201">
        <ele>23.210000000000001</ele>
        <time>2014-11-23T12:29:07Z</time>
      </trkpt>
      <trkpt lat="51.423983545973897" lon="4.383136052638292">
        <ele>9.75</ele>
        <time>2014-11-23T12:29:06Z</time>
      </trkpt>
      <trkpt lat="51.423954796046019" lon="4.383116522803903">
        <ele>16.48</ele>
        <time>2014-11-23T12:29:00Z</time>
      </trkpt>
      <trkpt lat="51.423970637843013" lon="4.38311249949038">
        <ele>16.960000000000001</ele>
        <time>2014-11-23T12:28:58Z</time>
      </trkpt>
      <trkpt lat="51.42397440969944" lon="4.383103363215923">
        <ele>22.73</ele>
        <time>2014-11-23T12:28:57Z</time>
      </trkpt>
      <trkpt lat="51.423990083858371" lon="4.383119456470013">
        <ele>15.039999999999999</ele>
        <time>2014-11-23T12:28:50Z</time>
      </trkpt>
      <trkpt lat="51.423995867371559" lon="4.383117277175188">
        <ele>18.879999999999999</ele>
        <time>2014-11-23T12:28:48Z</time>
      </trkpt>
      <trkpt lat="51.424019336700439" lon="4.383067991584539">
        <ele>14.56</ele>
        <time>2014-11-23T12:28:42Z</time>
      </trkpt>
      <trkpt lat="51.424021180719137" lon="4.383067907765508">
        <ele>17.440000000000001</ele>
        <time>2014-11-23T12:28:41Z</time>
      </trkpt>
      <trkpt lat="51.424024365842342" lon="4.383067321032286">
        <ele>14.56</ele>
        <time>2014-11-23T12:28:40Z</time>
      </trkpt>
      <trkpt lat="51.424024365842342" lon="4.383066482841969">
        <ele>18.879999999999999</ele>
        <time>2014-11-23T12:28:39Z</time>
      </trkpt>
      <trkpt lat="51.42402377910912" lon="4.383064806461334">
        <ele>13.6</ele>
        <time>2014-11-23T12:28:38Z</time>
      </trkpt>
      <trkpt lat="51.424025036394596" lon="4.383066650480032">
        <ele>13.119999999999999</ele>
        <time>2014-11-23T12:28:37Z</time>
      </trkpt>
      <trkpt lat="51.424032328650355" lon="4.383054161444306">
        <ele>17.920000000000002</ele>
        <time>2014-11-23T12:28:33Z</time>
      </trkpt>
      <trkpt lat="51.424030149355531" lon="4.383058687672019">
        <ele>13.6</ele>
        <time>2014-11-23T12:28:32Z</time>
      </trkpt>
      <trkpt lat="51.424028389155865" lon="4.383064638823271">
        <ele>20.32</ele>
        <time>2014-11-23T12:28:31Z</time>
      </trkpt>
      <trkpt lat="51.424027550965548" lon="4.383069919422269">
        <ele>12.630000000000001</ele>
        <time>2014-11-23T12:28:30Z</time>
      </trkpt>
      <trkpt lat="51.424027634784579" lon="4.383074948564172">
        <ele>20.809999999999999</ele>
        <time>2014-11-23T12:28:29Z</time>
      </trkpt>
      <trkpt lat="51.424028221517801" lon="4.383079977706075">
        <ele>11.19</ele>
        <time>2014-11-23T12:28:28Z</time>
      </trkpt>
      <trkpt lat="51.424040040001273" lon="4.383102525025606">
        <ele>17.440000000000001</ele>
        <time>2014-11-23T12:28:20Z</time>
      </trkpt>
      <trkpt lat="51.424041464924812" lon="4.383102944120765">
        <ele>13.119999999999999</ele>
        <time>2014-11-23T12:28:19Z</time>
      </trkpt>
      <trkpt lat="51.424023443832994" lon="4.383110404014587">
        <ele>18.399999999999999</ele>
        <time>2014-11-23T12:28:14Z</time>
      </trkpt>
      <trkpt lat="51.424030568450689" lon="4.383131945505738">
        <ele>15.52</ele>
        <time>2014-11-23T12:28:02Z</time>
      </trkpt>
      <trkpt lat="51.424030233174562" lon="4.383132951334119">
        <ele>18.879999999999999</ele>
        <time>2014-11-23T12:28:01Z</time>
      </trkpt>
      <trkpt lat="51.424030065536499" lon="4.383133957162499">
        <ele>12.15</ele>
        <time>2014-11-23T12:28:00Z</time>
      </trkpt>
      <trkpt lat="51.424035765230656" lon="4.383149044588208">
        <ele>15.52</ele>
        <time>2014-11-23T12:27:53Z</time>
      </trkpt>
      <trkpt lat="51.424043057486415" lon="4.383151810616255">
        <ele>16</ele>
        <time>2014-11-23T12:27:48Z</time>
      </trkpt>
      <trkpt lat="51.424079602584243" lon="4.383143428713083">
        <ele>16.48</ele>
        <time>2014-11-23T12:27:38Z</time>
      </trkpt>
      <trkpt lat="51.424140287563205" lon="4.38317846506834">
        <ele>16</ele>
        <time>2014-11-23T12:27:29Z</time>
      </trkpt>
      <trkpt lat="51.424144646152854" lon="4.38318626023829">
        <ele>19.359999999999999</ele>
        <time>2014-11-23T12:27:28Z</time>
      </trkpt>
      <trkpt lat="51.424313625320792" lon="4.383142171427608">
        <ele>14.08</ele>
        <time>2014-11-23T12:15:52Z</time>
      </trkpt>
      <trkpt lat="51.424206169322133" lon="4.383153989911079">
        <ele>13.6</ele>
        <time>2014-11-23T12:15:16Z</time>
      </trkpt>
      <trkpt lat="51.423566713929176" lon="4.383572246879339">
        <ele>12.15</ele>
        <time>2014-11-23T12:03:21Z</time>
      </trkpt>
      <trkpt lat="51.423597140237689" lon="4.3836001586169">
        <ele>12.15</ele>
        <time>2014-11-23T12:03:02Z</time>
      </trkpt>
      <trkpt lat="51.423631254583597" lon="4.383573839440942">
        <ele>12.15</ele>
        <time>2014-11-23T12:02:39Z</time>
      </trkpt>
      <trkpt lat="51.423627398908138" lon="4.383602924644947">
        <ele>12.15</ele>
        <time>2014-11-23T12:02:16Z</time>
      </trkpt>
      <trkpt lat="51.423714989796281" lon="4.383609630167484">
        <ele>12.630000000000001</ele>
        <time>2014-11-23T12:01:58Z</time>
      </trkpt>
      <trkpt lat="51.423901738598943" lon="4.383462024852634">
        <ele>12.15</ele>
        <time>2014-11-23T12:01:33Z</time>
      </trkpt>
      <trkpt lat="51.423926884308457" lon="4.383313916623592">
        <ele>12.15</ele>
        <time>2014-11-23T12:01:13Z</time>
      </trkpt>
      <trkpt lat="51.42400081269443" lon="4.383212244138122">
        <ele>12.15</ele>
        <time>2014-11-23T12:00:51Z</time>
      </trkpt>
      <trkpt lat="51.424070969223976" lon="4.383201263844967">
        <ele>12.630000000000001</ele>
        <time>2014-11-23T12:00:29Z</time>
      </trkpt>
      <trkpt lat="51.42407457344234" lon="4.383171088993549">
        <ele>12.630000000000001</ele>
        <time>2014-11-23T12:00:09Z</time>
      </trkpt>
      <trkpt lat="51.424013637006283" lon="4.383211908861995">
        <ele>13.119999999999999</ele>
        <time>2014-11-23T11:59:51Z</time>
      </trkpt>
      <trkpt lat="51.424031239002943" lon="4.383181566372514">
        <ele>12.630000000000001</ele>
        <time>2014-11-23T11:59:32Z</time>
      </trkpt>
      <trkpt lat="51.424043476581573" lon="4.383164802566171">
        <ele>12.630000000000001</ele>
        <time>2014-11-23T11:59:14Z</time>
      </trkpt>
      <trkpt lat="51.424099635332823" lon="4.38305483199656">
        <ele>12.630000000000001</ele>
        <time>2014-11-23T11:58:54Z</time>
      </trkpt>
      <trkpt lat="51.424095444381237" lon="4.383023316040635">
        <ele>11.19</ele>
        <time>2014-11-23T11:58:41Z</time>
      </trkpt>
      <trkpt lat="51.424163924530149" lon="4.382924577221274">
        <ele>11.19</ele>
        <time>2014-11-23T11:58:29Z</time>
      </trkpt>
      <trkpt lat="51.424175072461367" lon="4.382915105670691">
        <ele>11.67</ele>
        <time>2014-11-23T11:58:28Z</time>
      </trkpt>
      <trkpt lat="51.424269955605268" lon="4.382802285254002">
        <ele>11.67</ele>
        <time>2014-11-23T11:58:19Z</time>
      </trkpt>
      <trkpt lat="51.424334663897753" lon="4.382718969136477">
        <ele>12.15</ele>
        <time>2014-11-23T11:58:08Z</time>
      </trkpt>
      <trkpt lat="51.424344973638654" lon="4.382706647738814">
        <ele>12.15</ele>
        <time>2014-11-23T11:58:03Z</time>
      </trkpt>
      <trkpt lat="51.424343045800924" lon="4.382709246128798">
        <ele>13.119999999999999</ele>
        <time>2014-11-23T11:57:44Z</time>
      </trkpt>
      <trkpt lat="51.424345895648003" lon="4.382709162309766">
        <ele>11.67</ele>
        <time>2014-11-23T11:57:35Z</time>
      </trkpt>
      <trkpt lat="51.424346817657351" lon="4.382710168138146">
        <ele>12.15</ele>
        <time>2014-11-23T11:57:09Z</time>
      </trkpt>
      <trkpt lat="51.424353439360857" lon="4.382723663002253">
        <ele>12.630000000000001</ele>
        <time>2014-11-23T11:56:43Z</time>
      </trkpt>
      <trkpt lat="51.424353271722794" lon="4.382724668830633">
        <ele>16</ele>
        <time>2014-11-23T11:56:42Z</time>
      </trkpt>
      <trkpt lat="51.424353439360857" lon="4.382725171744824">
        <ele>9.75</ele>
        <time>2014-11-23T11:56:41Z</time>
      </trkpt>
      <trkpt lat="51.424353858456016" lon="4.382725926116109">
        <ele>17.440000000000001</ele>
        <time>2014-11-23T11:56:40Z</time>
      </trkpt>
      <trkpt lat="51.424354193732142" lon="4.382726261392236">
        <ele>8.310000000000001</ele>
        <time>2014-11-23T11:56:39Z</time>
      </trkpt>
      <trkpt lat="51.424349080771208" lon="4.382725087925792">
        <ele>12.15</ele>
        <time>2014-11-23T11:56:27Z</time>
      </trkpt>
      <trkpt lat="51.424349499866366" lon="4.38272450119257">
        <ele>16</ele>
        <time>2014-11-23T11:56:26Z</time>
      </trkpt>
      <trkpt lat="51.424349918961525" lon="4.382723411545157">
        <ele>7.35</ele>
        <time>2014-11-23T11:56:25Z</time>
      </trkpt>
      <trkpt lat="51.42434673383832" lon="4.382724585011601">
        <ele>12.630000000000001</ele>
        <time>2014-11-23T11:56:20Z</time>
      </trkpt>
      <trkpt lat="51.424345895648003" lon="4.382724752649665">
        <ele>9.27</ele>
        <time>2014-11-23T11:56:19Z</time>
      </trkpt>
      <trkpt lat="51.424345476552844" lon="4.38272550702095">
        <ele>17.920000000000002</ele>
        <time>2014-11-23T11:56:18Z</time>
      </trkpt>
      <trkpt lat="51.424345476552844" lon="4.382725339382887">
        <ele>3.5</ele>
        <time>2014-11-23T11:56:17Z</time>
      </trkpt>
      <trkpt lat="51.424346482381225" lon="4.382725590839982">
        <ele>11.67</ele>
        <time>2014-11-23T11:56:15Z</time>
      </trkpt>
      <trkpt lat="51.424352349713445" lon="4.382726429030299">
        <ele>12.630000000000001</ele>
        <time>2014-11-23T11:56:01Z</time>
      </trkpt>
      <trkpt lat="51.424351343885064" lon="4.382727686315775">
        <ele>18.399999999999999</ele>
        <time>2014-11-23T11:56:00Z</time>
      </trkpt>
      <trkpt lat="51.424350757151842" lon="4.382729027420282">
        <ele>4.94</ele>
        <time>2014-11-23T11:55:59Z</time>
      </trkpt>
      <trkpt lat="51.424350421875715" lon="4.3827333021909">
        <ele>11.67</ele>
        <time>2014-11-23T11:55:43Z</time>
      </trkpt>
      <trkpt lat="51.424343297258019" lon="4.382735816761851">
        <ele>11.67</ele>
        <time>2014-11-23T11:55:22Z</time>
      </trkpt>
      <trkpt lat="51.424348074942827" lon="4.382721986621618">
        <ele>11.67</ele>
        <time>2014-11-23T11:55:06Z</time>
      </trkpt>
      <trkpt lat="51.424350421875715" lon="4.382691225036979">
        <ele>11.19</ele>
        <time>2014-11-23T11:54:43Z</time>
      </trkpt>
      <trkpt lat="51.424342375248671" lon="4.382637077942491">
        <ele>11.67</ele>
        <time>2014-11-23T11:54:29Z</time>
      </trkpt>
      <trkpt lat="51.424348074942827" lon="4.382537333294749">
        <ele>11.67</ele>
        <time>2014-11-23T11:54:15Z</time>
      </trkpt>
      <trkpt lat="51.42434723675251" lon="4.382515624165535">
        <ele>11.19</ele>
        <time>2014-11-23T11:53:56Z</time>
      </trkpt>
      <trkpt lat="51.424350421875715" lon="4.382457789033651">
        <ele>11.67</ele>
        <time>2014-11-23T11:53:41Z</time>
      </trkpt>
      <trkpt lat="51.424245899543166" lon="4.382218737155199">
        <ele>12.630000000000001</ele>
        <time>2014-11-23T11:53:29Z</time>
      </trkpt>
      <trkpt lat="51.424128971993923" lon="4.381997706368566">
        <ele>12.15</ele>
        <time>2014-11-23T11:53:14Z</time>
      </trkpt>
      <trkpt lat="51.42403744161129" lon="4.381872061640024">
        <ele>12.15</ele>
        <time>2014-11-23T11:53:06Z</time>
      </trkpt>
      <trkpt lat="51.424021348357201" lon="4.381847586482763">
        <ele>12.15</ele>
        <time>2014-11-23T11:53:05Z</time>
      </trkpt>
      <trkpt lat="51.423907354474068" lon="4.381665531545878">
        <ele>11.67</ele>
        <time>2014-11-23T11:52:52Z</time>
      </trkpt>
      <trkpt lat="51.423898050561547" lon="4.381647761911154">
        <ele>11.67</ele>
        <time>2014-11-23T11:52:51Z</time>
      </trkpt>
      <trkpt lat="51.423887154087424" lon="4.38162705861032">
        <ele>11.67</ele>
        <time>2014-11-23T11:52:50Z</time>
      </trkpt>
      <trkpt lat="51.423786990344524" lon="4.381524715572596">
        <ele>12.15</ele>
        <time>2014-11-23T11:52:42Z</time>
      </trkpt>
      <trkpt lat="51.423764023929834" lon="4.381520776078105">
        <ele>12.15</ele>
        <time>2014-11-23T11:52:41Z</time>
      </trkpt>
      <trkpt lat="51.423729741945863" lon="4.381467048078775">
        <ele>12.15</ele>
        <time>2014-11-23T11:52:38Z</time>
      </trkpt>
      <trkpt lat="51.423718174919486" lon="4.381445338949561">
        <ele>12.15</ele>
        <time>2014-11-23T11:52:37Z</time>
      </trkpt>
      <trkpt lat="51.423703506588936" lon="4.381424216553569">
        <ele>12.15</ele>
        <time>2014-11-23T11:52:36Z</time>
      </trkpt>
      <trkpt lat="51.42362748272717" lon="4.381236713379622">
        <ele>12.15</ele>
        <time>2014-11-23T11:52:25Z</time>
      </trkpt>
      <trkpt lat="51.423620693385601" lon="4.381217183545232">
        <ele>12.15</ele>
        <time>2014-11-23T11:52:24Z</time>
      </trkpt>
      <trkpt lat="51.423613484948874" lon="4.38119756989181">
        <ele>12.15</ele>
        <time>2014-11-23T11:52:23Z</time>
      </trkpt>
      <trkpt lat="51.423574509099126" lon="4.381088688969612">
        <ele>12.15</ele>
        <time>2014-11-23T11:52:17Z</time>
      </trkpt>
      <trkpt lat="51.4235585834831" lon="4.381070164963603">
        <ele>12.15</ele>
        <time>2014-11-23T11:52:16Z</time>
      </trkpt>
      <trkpt lat="51.423543663695455" lon="4.381049545481801">
        <ele>12.15</ele>
        <time>2014-11-23T11:52:15Z</time>
      </trkpt>
      <trkpt lat="51.423459844663739" lon="4.380887858569622">
        <ele>12.15</ele>
        <time>2014-11-23T11:52:06Z</time>
      </trkpt>
      <trkpt lat="51.423363452777267" lon="4.380759531632066">
        <ele>12.630000000000001</ele>
        <time>2014-11-23T11:51:56Z</time>
      </trkpt>
      <trkpt lat="51.423351382836699" lon="4.380747796967626">
        <ele>12.630000000000001</ele>
        <time>2014-11-23T11:51:55Z</time>
      </trkpt>
      <trkpt lat="51.423340402543545" lon="4.380739834159613">
        <ele>12.15</ele>
        <time>2014-11-23T11:51:54Z</time>
      </trkpt>
      <trkpt lat="51.423312406986952" lon="4.380705468356609">
        <ele>12.15</ele>
        <time>2014-11-23T11:51:51Z</time>
      </trkpt>
      <trkpt lat="51.423024488613009" lon="4.380558030679822">
        <ele>12.630000000000001</ele>
        <time>2014-11-23T11:51:36Z</time>
      </trkpt>
      <trkpt lat="51.422999175265431" lon="4.38054914586246">
        <ele>12.630000000000001</ele>
        <time>2014-11-23T11:51:35Z</time>
      </trkpt>
      <trkpt lat="51.422972353175282" lon="4.380546882748604">
        <ele>12.630000000000001</ele>
        <time>2014-11-23T11:51:34Z</time>
      </trkpt>
      <trkpt lat="51.422929773107171" lon="4.380534728989005">
        <ele>12.630000000000001</ele>
        <time>2014-11-23T11:51:32Z</time>
      </trkpt>
      <trkpt lat="51.422817623242736" lon="4.380393074825406">
        <ele>12.15</ele>
        <time>2014-11-23T11:51:19Z</time>
      </trkpt>
      <trkpt lat="51.422766325995326" lon="4.380328534170985">
        <ele>12.630000000000001</ele>
        <time>2014-11-23T11:51:13Z</time>
      </trkpt>
      <trkpt lat="51.422542277723551" lon="4.380193334072828">
        <ele>12.15</ele>
        <time>2014-11-23T11:50:58Z</time>
      </trkpt>
      <trkpt lat="51.422506906092167" lon="4.38014748506248">
        <ele>12.15</ele>
        <time>2014-11-23T11:50:53Z</time>
      </trkpt>
      <trkpt lat="51.422350583598018" lon="4.380082106217742">
        <ele>12.15</ele>
        <time>2014-11-23T11:50:38Z</time>
      </trkpt>
      <trkpt lat="51.422253604978323" lon="4.380251588299871">
        <ele>12.15</ele>
        <time>2014-11-23T11:50:28Z</time>
      </trkpt>
      <trkpt lat="51.422239858657122" lon="4.380275225266814">
        <ele>11.67</ele>
        <time>2014-11-23T11:50:27Z</time>
      </trkpt>
      <trkpt lat="51.422229465097189" lon="4.380304729565978">
        <ele>11.67</ele>
        <time>2014-11-23T11:50:26Z</time>
      </trkpt>
      <trkpt lat="51.422223094850779" lon="4.380333814769983">
        <ele>11.67</ele>
        <time>2014-11-23T11:50:25Z</time>
      </trkpt>
      <trkpt lat="51.422215383499861" lon="4.380358876660466">
        <ele>11.67</ele>
        <time>2014-11-23T11:50:24Z</time>
      </trkpt>
      <trkpt lat="51.422173138707876" lon="4.380411095917225">
        <ele>12.15</ele>
        <time>2014-11-23T11:50:20Z</time>
      </trkpt>
      <trkpt lat="51.422071801498532" lon="4.380645621567965">
        <ele>12.15</ele>
        <time>2014-11-23T11:50:05Z</time>
      </trkpt>
      <trkpt lat="51.422059563919902" lon="4.380663642659783">
        <ele>11.67</ele>
        <time>2014-11-23T11:50:04Z</time>
      </trkpt>
      <trkpt lat="51.422046907246113" lon="4.380684429779649">
        <ele>12.15</ele>
        <time>2014-11-23T11:50:03Z</time>
      </trkpt>
      <trkpt lat="51.422039698809385" lon="4.38070161268115">
        <ele>12.15</ele>
        <time>2014-11-23T11:50:02Z</time>
      </trkpt>
      <trkpt lat="51.42203307710588" lon="4.380720974877477">
        <ele>12.15</ele>
        <time>2014-11-23T11:50:01Z</time>
      </trkpt>
      <trkpt lat="51.422016061842442" lon="4.380757352337241">
        <ele>12.15</ele>
        <time>2014-11-23T11:49:58Z</time>
      </trkpt>
      <trkpt lat="51.421859320253134" lon="4.381000846624374">
        <ele>12.15</ele>
        <time>2014-11-23T11:49:43Z</time>
      </trkpt>
      <trkpt lat="51.421849513426423" lon="4.381020460277796">
        <ele>12.15</ele>
        <time>2014-11-23T11:49:42Z</time>
      </trkpt>
      <trkpt lat="51.421722108498216" lon="4.381211483851075">
        <ele>11.67</ele>
        <time>2014-11-23T11:49:29Z</time>
      </trkpt>
      <trkpt lat="51.421707356348634" lon="4.381224643439055">
        <ele>11.67</ele>
        <time>2014-11-23T11:49:28Z</time>
      </trkpt>
      <trkpt lat="51.421694532036781" lon="4.381239144131541">
        <ele>11.67</ele>
        <time>2014-11-23T11:49:27Z</time>
      </trkpt>
      <trkpt lat="51.421566791832447" lon="4.381403345614672">
        <ele>11.67</ele>
        <time>2014-11-23T11:49:15Z</time>
      </trkpt>
      <trkpt lat="51.42155765555799" lon="4.38142036087811">
        <ele>11.67</ele>
        <time>2014-11-23T11:49:14Z</time>
      </trkpt>
      <trkpt lat="51.421552123501897" lon="4.381441567093134">
        <ele>11.67</ele>
        <time>2014-11-23T11:49:13Z</time>
      </trkpt>
      <trkpt lat="51.421544244512916" lon="4.381459252908826">
        <ele>11.67</ele>
        <time>2014-11-23T11:49:12Z</time>
      </trkpt>
      <trkpt lat="51.421539969742298" lon="4.381477776914835">
        <ele>11.67</ele>
        <time>2014-11-23T11:49:11Z</time>
      </trkpt>
      <trkpt lat="51.421516751870513" lon="4.381586909294128">
        <ele>11.67</ele>
        <time>2014-11-23T11:49:05Z</time>
      </trkpt>
      <trkpt lat="51.421500071883202" lon="4.381741471588612">
        <ele>11.67</ele>
        <time>2014-11-23T11:49:00Z</time>
      </trkpt>
      <trkpt lat="51.421484313905239" lon="4.381850771605969">
        <ele>11.67</ele>
        <time>2014-11-23T11:48:55Z</time>
      </trkpt>
      <trkpt lat="51.421385575085878" lon="4.382027294486761">
        <ele>11.67</ele>
        <time>2014-11-23T11:48:45Z</time>
      </trkpt>
      <trkpt lat="51.421320699155331" lon="4.382105581462383">
        <ele>11.67</ele>
        <time>2014-11-23T11:48:39Z</time>
      </trkpt>
      <trkpt lat="51.421242747455835" lon="4.382228795439005">
        <ele>11.67</ele>
        <time>2014-11-23T11:48:31Z</time>
      </trkpt>
      <trkpt lat="51.421131771057844" lon="4.382486790418625">
        <ele>12.15</ele>
        <time>2014-11-23T11:48:18Z</time>
      </trkpt>
      <trkpt lat="51.420996570959687" lon="4.382763728499413">
        <ele>12.630000000000001</ele>
        <time>2014-11-23T11:48:05Z</time>
      </trkpt>
      <trkpt lat="51.420971341431141" lon="4.382815612480044">
        <ele>14.08</ele>
        <time>2014-11-23T11:48:02Z</time>
      </trkpt>
      <trkpt lat="51.420959774404764" lon="4.38284276984632">
        <ele>9.75</ele>
        <time>2014-11-23T11:48:01Z</time>
      </trkpt>
      <trkpt lat="51.420951224863529" lon="4.382866909727454">
        <ele>13.119999999999999</ele>
        <time>2014-11-23T11:48:00Z</time>
      </trkpt>
      <trkpt lat="51.420936472713947" lon="4.382892809808254">
        <ele>12.15</ele>
        <time>2014-11-23T11:47:59Z</time>
      </trkpt>
      <trkpt lat="51.420845026150346" lon="4.383071595802903">
        <ele>12.15</ele>
        <time>2014-11-23T11:47:50Z</time>
      </trkpt>
      <trkpt lat="51.42072256654501" lon="4.383340571075678">
        <ele>12.630000000000001</ele>
        <time>2014-11-23T11:47:34Z</time>
      </trkpt>
      <trkpt lat="51.420685769990087" lon="4.383396143093705">
        <ele>13.119999999999999</ele>
        <time>2014-11-23T11:47:31Z</time>
      </trkpt>
      <trkpt lat="51.420617457479239" lon="4.383518686518073">
        <ele>15.039999999999999</ele>
        <time>2014-11-23T11:47:25Z</time>
      </trkpt>
      <trkpt lat="51.420609578490257" lon="4.383539808914065">
        <ele>11.19</ele>
        <time>2014-11-23T11:47:24Z</time>
      </trkpt>
      <trkpt lat="51.420565070584416" lon="4.383610971271992">
        <ele>16</ele>
        <time>2014-11-23T11:47:21Z</time>
      </trkpt>
      <trkpt lat="51.420252593234181" lon="4.383929735049605">
        <ele>12.630000000000001</ele>
        <time>2014-11-23T11:47:10Z</time>
      </trkpt>
      <trkpt lat="51.420199032872915" lon="4.383976170793176">
        <ele>13.119999999999999</ele>
        <time>2014-11-23T11:47:09Z</time>
      </trkpt>
      <trkpt lat="51.419900301843882" lon="4.38428957015276">
        <ele>13.6</ele>
        <time>2014-11-23T11:47:03Z</time>
      </trkpt>
      <trkpt lat="51.419818243011832" lon="4.384379256516695">
        <ele>14.08</ele>
        <time>2014-11-23T11:47:01Z</time>
      </trkpt>
      <trkpt lat="51.419766023755074" lon="4.384429296478629">
        <ele>14.08</ele>
        <time>2014-11-23T11:47:00Z</time>
      </trkpt>
      <trkpt lat="51.419716235250235" lon="4.384492663666606">
        <ele>14.08</ele>
        <time>2014-11-23T11:46:59Z</time>
      </trkpt>
      <trkpt lat="51.419616742059588" lon="4.384569609537721">
        <ele>14.56</ele>
        <time>2014-11-23T11:46:57Z</time>
      </trkpt>
      <trkpt lat="51.419221200048923" lon="4.384829699993134">
        <ele>14.08</ele>
        <time>2014-11-23T11:46:48Z</time>
      </trkpt>
      <trkpt lat="51.419176692143083" lon="4.384864065796137">
        <ele>14.08</ele>
        <time>2014-11-23T11:46:47Z</time>
      </trkpt>
      <trkpt lat="51.419136794283986" lon="4.384895078837872">
        <ele>15.039999999999999</ele>
        <time>2014-11-23T11:46:46Z</time>
      </trkpt>
      <trkpt lat="51.419092789292336" lon="4.384920140728355">
        <ele>15.039999999999999</ele>
        <time>2014-11-23T11:46:45Z</time>
      </trkpt>
      <trkpt lat="51.418962366878986" lon="4.385007228702307">
        <ele>16</ele>
        <time>2014-11-23T11:46:42Z</time>
      </trkpt>
      <trkpt lat="51.418912913650274" lon="4.385034302249551">
        <ele>15.52</ele>
        <time>2014-11-23T11:46:41Z</time>
      </trkpt>
      <trkpt lat="51.418861448764801" lon="4.385060453787446">
        <ele>15.039999999999999</ele>
        <time>2014-11-23T11:46:40Z</time>
      </trkpt>
      <trkpt lat="51.418244959786534" lon="4.38536899164319">
        <ele>15.039999999999999</ele>
        <time>2014-11-23T11:46:29Z</time>
      </trkpt>
      <trkpt lat="51.418182346969843" lon="4.385400926694274">
        <ele>15.039999999999999</ele>
        <time>2014-11-23T11:46:28Z</time>
      </trkpt>
      <trkpt lat="51.418126104399562" lon="4.38542221672833">
        <ele>15.52</ele>
        <time>2014-11-23T11:46:27Z</time>
      </trkpt>
      <trkpt lat="51.418081428855658" lon="4.38543789088726">
        <ele>15.039999999999999</ele>
        <time>2014-11-23T11:46:26Z</time>
      </trkpt>
      <trkpt lat="51.418004482984543" lon="4.385470412671566">
        <ele>16</ele>
        <time>2014-11-23T11:46:24Z</time>
      </trkpt>
      <trkpt lat="51.417860481888056" lon="4.385565044358373">
        <ele>16.960000000000001</ele>
        <time>2014-11-23T11:46:20Z</time>
      </trkpt>
      <trkpt lat="51.417661579325795" lon="4.385656155645847">
        <ele>15.52</ele>
        <time>2014-11-23T11:46:16Z</time>
      </trkpt>
      <trkpt lat="51.417608940973878" lon="4.38568314537406">
        <ele>15.039999999999999</ele>
        <time>2014-11-23T11:46:15Z</time>
      </trkpt>
      <trkpt lat="51.4175577275455" lon="4.385716924443841">
        <ele>15.039999999999999</ele>
        <time>2014-11-23T11:46:14Z</time>
      </trkpt>
      <trkpt lat="51.417505256831646" lon="4.385753301903606">
        <ele>15.039999999999999</ele>
        <time>2014-11-23T11:46:13Z</time>
      </trkpt>
      <trkpt lat="51.417456222698092" lon="4.385792529210448">
        <ele>15.039999999999999</ele>
        <time>2014-11-23T11:46:12Z</time>
      </trkpt>
      <trkpt lat="51.41740090213716" lon="4.385824045166373">
        <ele>15.52</ele>
        <time>2014-11-23T11:46:11Z</time>
      </trkpt>
      <trkpt lat="51.417011562734842" lon="4.38598757609725">
        <ele>15.039999999999999</ele>
        <time>2014-11-23T11:46:03Z</time>
      </trkpt>
      <trkpt lat="51.416583582758904" lon="4.386291755363345">
        <ele>15.039999999999999</ele>
        <time>2014-11-23T11:45:53Z</time>
      </trkpt>
      <trkpt lat="51.416257610544562" lon="4.386524185538292">
        <ele>15.039999999999999</ele>
        <time>2014-11-23T11:45:46Z</time>
      </trkpt>
      <trkpt lat="51.416201032698154" lon="4.386562071740627">
        <ele>14.56</ele>
        <time>2014-11-23T11:45:45Z</time>
      </trkpt>
      <trkpt lat="51.416154596954584" lon="4.386593503877521">
        <ele>14.56</ele>
        <time>2014-11-23T11:45:44Z</time>
      </trkpt>
      <trkpt lat="51.416110759600997" lon="4.386622421443462">
        <ele>15.039999999999999</ele>
        <time>2014-11-23T11:45:43Z</time>
      </trkpt>
      <trkpt lat="51.416073124855757" lon="4.386648908257484">
        <ele>15.039999999999999</ele>
        <time>2014-11-23T11:45:42Z</time>
      </trkpt>
      <trkpt lat="51.415907330811024" lon="4.386744881048799">
        <ele>15.039999999999999</ele>
        <time>2014-11-23T11:45:38Z</time>
      </trkpt>
      <trkpt lat="51.415420928969979" lon="4.387040343135595">
        <ele>15.52</ele>
        <time>2014-11-23T11:45:28Z</time>
      </trkpt>
      <trkpt lat="51.415043659508228" lon="4.387309905141592">
        <ele>16.48</ele>
        <time>2014-11-23T11:45:17Z</time>
      </trkpt>
      <trkpt lat="51.414741994813085" lon="4.387529846280813">
        <ele>16</ele>
        <time>2014-11-23T11:45:06Z</time>
      </trkpt>
      <trkpt lat="51.414294736459851" lon="4.387743500992656">
        <ele>16</ele>
        <time>2014-11-23T11:44:54Z</time>
      </trkpt>
      <trkpt lat="51.414063647389412" lon="4.387922454625368">
        <ele>16</ele>
        <time>2014-11-23T11:44:44Z</time>
      </trkpt>
      <trkpt lat="51.413691742345691" lon="4.388198386877775">
        <ele>16</ele>
        <time>2014-11-23T11:44:31Z</time>
      </trkpt>
      <trkpt lat="51.413430562242866" lon="4.3883335031569">
        <ele>16</ele>
        <time>2014-11-23T11:44:18Z</time>
      </trkpt>
      <trkpt lat="51.413210369646549" lon="4.388518910855055">
        <ele>16.48</ele>
        <time>2014-11-23T11:44:04Z</time>
      </trkpt>
      <trkpt lat="51.413197545334697" lon="4.388529807329178">
        <ele>19.84</ele>
        <time>2014-11-23T11:44:03Z</time>
      </trkpt>
      <trkpt lat="51.413184385746717" lon="4.388539865612984">
        <ele>13.6</ele>
        <time>2014-11-23T11:44:02Z</time>
      </trkpt>
      <trkpt lat="51.413169214501977" lon="4.388551684096456">
        <ele>18.399999999999999</ele>
        <time>2014-11-23T11:44:01Z</time>
      </trkpt>
      <trkpt lat="51.413150690495968" lon="4.388558976352215">
        <ele>12.15</ele>
        <time>2014-11-23T11:44:00Z</time>
      </trkpt>
      <trkpt lat="51.413025045767426" lon="4.388608345761895">
        <ele>16.48</ele>
        <time>2014-11-23T11:43:51Z</time>
      </trkpt>
      <trkpt lat="51.413016663864255" lon="4.388612452894449">
        <ele>15.52</ele>
        <time>2014-11-23T11:43:50Z</time>
      </trkpt>
      <trkpt lat="51.41299688257277" lon="4.388616643846035">
        <ele>18.399999999999999</ele>
        <time>2014-11-23T11:43:48Z</time>
      </trkpt>
      <trkpt lat="51.412937454879284" lon="4.388594850897789">
        <ele>15.52</ele>
        <time>2014-11-23T11:43:42Z</time>
      </trkpt>
      <trkpt lat="51.412738971412182" lon="4.38844682648778">
        <ele>15.52</ele>
        <time>2014-11-23T11:43:24Z</time>
      </trkpt>
      <trkpt lat="51.412721704691648" lon="4.388416316360235">
        <ele>15.52</ele>
        <time>2014-11-23T11:43:22Z</time>
      </trkpt>
      <trkpt lat="51.412711394950747" lon="4.388403994962573">
        <ele>19.84</ele>
        <time>2014-11-23T11:43:21Z</time>
      </trkpt>
      <trkpt lat="51.412691781297326" lon="4.388385470956564">
        <ele>16.48</ele>
        <time>2014-11-23T11:43:19Z</time>
      </trkpt>
      <trkpt lat="51.412640484049916" lon="4.38833543099463">
        <ele>15.039999999999999</ele>
        <time>2014-11-23T11:43:13Z</time>
      </trkpt>
      <trkpt lat="51.412631515413523" lon="4.388347836211324">
        <ele>15.52</ele>
        <time>2014-11-23T11:43:00Z</time>
      </trkpt>
      <trkpt lat="51.412631766870618" lon="4.388346830382943">
        <ele>18.399999999999999</ele>
        <time>2014-11-23T11:42:59Z</time>
      </trkpt>
      <trkpt lat="51.412631515413523" lon="4.388344818726182">
        <ele>11.19</ele>
        <time>2014-11-23T11:42:58Z</time>
      </trkpt>
      <trkpt lat="51.412630593404174" lon="4.388341968879104">
        <ele>15.039999999999999</ele>
        <time>2014-11-23T11:42:56Z</time>
      </trkpt>
      <trkpt lat="51.412632688879967" lon="4.388303160667419">
        <ele>15.039999999999999</ele>
        <time>2014-11-23T11:42:40Z</time>
      </trkpt>
      <trkpt lat="51.412634197622538" lon="4.388279104605317">
        <ele>15.039999999999999</ele>
        <time>2014-11-23T11:42:24Z</time>
      </trkpt>
      <trkpt lat="51.412602430209517" lon="4.388176929205656">
        <ele>15.039999999999999</ele>
        <time>2014-11-23T11:42:05Z</time>
      </trkpt>
      <trkpt lat="51.412475360557437" lon="4.387989677488804">
        <ele>14.56</ele>
        <time>2014-11-23T11:41:51Z</time>
      </trkpt>
      <trkpt lat="51.412371592596173" lon="4.387839138507843">
        <ele>14.56</ele>
        <time>2014-11-23T11:41:41Z</time>
      </trkpt>
      <trkpt lat="51.412239409983158" lon="4.387592123821378">
        <ele>15.039999999999999</ele>
        <time>2014-11-23T11:41:25Z</time>
      </trkpt>
      <trkpt lat="51.412106472998857" lon="4.387321723625064">
        <ele>14.08</ele>
        <time>2014-11-23T11:41:10Z</time>
      </trkpt>
      <trkpt lat="51.411969428882003" lon="4.38708552159369">
        <ele>16.48</ele>
        <time>2014-11-23T11:40:54Z</time>
      </trkpt>
      <trkpt lat="51.411960041150451" lon="4.38707428984344">
        <ele>12.630000000000001</ele>
        <time>2014-11-23T11:40:53Z</time>
      </trkpt>
      <trkpt lat="51.411799360066652" lon="4.38688418827951">
        <ele>16.960000000000001</ele>
        <time>2014-11-23T11:40:39Z</time>
      </trkpt>
      <trkpt lat="51.4117865357548" lon="4.38687052577734">
        <ele>11.19</ele>
        <time>2014-11-23T11:40:38Z</time>
      </trkpt>
      <trkpt lat="51.411748146638274" lon="4.38681922852993">
        <ele>15.039999999999999</ele>
        <time>2014-11-23T11:40:35Z</time>
      </trkpt>
      <trkpt lat="51.411739680916071" lon="4.386801542714238">
        <ele>19.359999999999999</ele>
        <time>2014-11-23T11:40:34Z</time>
      </trkpt>
      <trkpt lat="51.411732137203217" lon="4.386778827756643">
        <ele>10.710000000000001</ele>
        <time>2014-11-23T11:40:33Z</time>
      </trkpt>
      <trkpt lat="51.411667931824923" lon="4.386685034260154">
        <ele>14.56</ele>
        <time>2014-11-23T11:40:28Z</time>
      </trkpt>
      <trkpt lat="51.411508759483695" lon="4.386536506935954">
        <ele>15.52</ele>
        <time>2014-11-23T11:40:16Z</time>
      </trkpt>
      <trkpt lat="51.411226037889719" lon="4.386396193876863">
        <ele>15.039999999999999</ele>
        <time>2014-11-23T11:39:53Z</time>
      </trkpt>
      <trkpt lat="51.411099387332797" lon="4.386424524709582">
        <ele>14.08</ele>
        <time>2014-11-23T11:39:47Z</time>
      </trkpt>
      <trkpt lat="51.410436881706119" lon="4.386485712602735">
        <ele>12.630000000000001</ele>
        <time>2014-11-23T11:38:56Z</time>
      </trkpt>
      <trkpt lat="51.410402012988925" lon="4.386487053707242">
        <ele>12.630000000000001</ele>
        <time>2014-11-23T11:38:54Z</time>
      </trkpt>
      <trkpt lat="51.410056008026004" lon="4.386487724259496">
        <ele>12.15</ele>
        <time>2014-11-23T11:38:30Z</time>
      </trkpt>
      <trkpt lat="51.409892644733191" lon="4.386509517207742">
        <ele>12.15</ele>
        <time>2014-11-23T11:38:18Z</time>
      </trkpt>
      <trkpt lat="51.409760797396302" lon="4.386543547734618">
        <ele>12.15</ele>
        <time>2014-11-23T11:38:04Z</time>
      </trkpt>
      <trkpt lat="51.409597685560584" lon="4.386593420058489">
        <ele>12.630000000000001</ele>
        <time>2014-11-23T11:37:51Z</time>
      </trkpt>
      <trkpt lat="51.409542448818684" lon="4.386611441150308">
        <ele>15.039999999999999</ele>
        <time>2014-11-23T11:37:47Z</time>
      </trkpt>
      <trkpt lat="51.409518979489803" lon="4.386611273512244">
        <ele>9.75</ele>
        <time>2014-11-23T11:37:46Z</time>
      </trkpt>
      <trkpt lat="51.409489726647735" lon="4.386612111702561">
        <ele>13.119999999999999</ele>
        <time>2014-11-23T11:37:45Z</time>
      </trkpt>
      <trkpt lat="51.409311611205339" lon="4.386635748669505">
        <ele>12.630000000000001</ele>
        <time>2014-11-23T11:36:53Z</time>
      </trkpt>
      <trkpt lat="51.409279089421034" lon="4.386676484718919">
        <ele>13.6</ele>
        <time>2014-11-23T11:36:20Z</time>
      </trkpt>
      <trkpt lat="51.409119665622711" lon="4.387419959530234">
        <ele>12.15</ele>
        <time>2014-11-23T11:35:49Z</time>
      </trkpt>
      <trkpt lat="51.409091670066118" lon="4.387733694165945">
        <ele>12.15</ele>
        <time>2014-11-23T11:35:34Z</time>
      </trkpt>
      <trkpt lat="51.409087311476469" lon="4.387752637267113">
        <ele>12.15</ele>
        <time>2014-11-23T11:35:33Z</time>
      </trkpt>
      <trkpt lat="51.409023106098175" lon="4.388146167621017">
        <ele>16.48</ele>
        <time>2014-11-23T11:35:14Z</time>
      </trkpt>
      <trkpt lat="51.408898467198014" lon="4.388660313561559">
        <ele>10.710000000000001</ele>
        <time>2014-11-23T11:34:51Z</time>
      </trkpt>
      <trkpt lat="51.408816827461123" lon="4.389087120071054">
        <ele>10.710000000000001</ele>
        <time>2014-11-23T11:34:32Z</time>
      </trkpt>
      <trkpt lat="51.408742479979992" lon="4.389579640701413">
        <ele>10.23</ele>
        <time>2014-11-23T11:34:11Z</time>
      </trkpt>
      <trkpt lat="51.408717501908541" lon="4.389733951538801">
        <ele>10.23</ele>
        <time>2014-11-23T11:34:04Z</time>
      </trkpt>
      <trkpt lat="51.408661091700196" lon="4.390052044764161">
        <ele>10.710000000000001</ele>
        <time>2014-11-23T11:33:50Z</time>
      </trkpt>
      <trkpt lat="51.408643741160631" lon="4.390114322304726">
        <ele>11.19</ele>
        <time>2014-11-23T11:33:47Z</time>
      </trkpt>
      <trkpt lat="51.408594120293856" lon="4.390417914837599">
        <ele>11.19</ele>
        <time>2014-11-23T11:33:34Z</time>
      </trkpt>
      <trkpt lat="51.408533435314894" lon="4.390819407999516">
        <ele>11.19</ele>
        <time>2014-11-23T11:33:19Z</time>
      </trkpt>
      <trkpt lat="51.408516503870487" lon="4.391015712171793">
        <ele>10.710000000000001</ele>
        <time>2014-11-23T11:33:12Z</time>
      </trkpt>
      <trkpt lat="51.408489346504211" lon="4.391088802367449">
        <ele>10.710000000000001</ele>
        <time>2014-11-23T11:33:09Z</time>
      </trkpt>
      <trkpt lat="51.408488340675831" lon="4.39114018343389">
        <ele>10.710000000000001</ele>
        <time>2014-11-23T11:33:07Z</time>
      </trkpt>
      <trkpt lat="51.408427990972996" lon="4.391440926119685">
        <ele>11.67</ele>
        <time>2014-11-23T11:32:51Z</time>
      </trkpt>
      <trkpt lat="51.408345848321915" lon="4.391635805368424">
        <ele>11.67</ele>
        <time>2014-11-23T11:32:42Z</time>
      </trkpt>
      <trkpt lat="51.40830310061574" lon="4.391663214191794">
        <ele>12.15</ele>
        <time>2014-11-23T11:32:37Z</time>
      </trkpt>
      <trkpt lat="51.40817360021174" lon="4.391857506707311">
        <ele>12.15</ele>
        <time>2014-11-23T11:32:19Z</time>
      </trkpt>
      <trkpt lat="51.408127332106233" lon="4.391884664073587">
        <ele>13.6</ele>
        <time>2014-11-23T11:32:16Z</time>
      </trkpt>
      <trkpt lat="51.408109813928604" lon="4.391890615224838">
        <ele>9.75</ele>
        <time>2014-11-23T11:32:15Z</time>
      </trkpt>
      <trkpt lat="51.407964220270514" lon="4.392096307128668">
        <ele>12.630000000000001</ele>
        <time>2014-11-23T11:32:03Z</time>
      </trkpt>
      <trkpt lat="51.407816195860505" lon="4.392314236611128">
        <ele>13.6</ele>
        <time>2014-11-23T11:31:49Z</time>
      </trkpt>
      <trkpt lat="51.407629447057843" lon="4.392435187473893">
        <ele>13.6</ele>
        <time>2014-11-23T11:31:35Z</time>
      </trkpt>
      <trkpt lat="51.407439261674881" lon="4.392594275996089">
        <ele>13.6</ele>
        <time>2014-11-23T11:31:20Z</time>
      </trkpt>
      <trkpt lat="51.407342618331313" lon="4.392642136663199">
        <ele>13.119999999999999</ele>
        <time>2014-11-23T11:31:13Z</time>
      </trkpt>
      <trkpt lat="51.407318059355021" lon="4.39266124740243">
        <ele>13.119999999999999</ele>
        <time>2014-11-23T11:31:11Z</time>
      </trkpt>
      <trkpt lat="51.407068613916636" lon="4.39300088211894">
        <ele>13.119999999999999</ele>
        <time>2014-11-23T11:30:52Z</time>
      </trkpt>
      <trkpt lat="51.40701069496572" lon="4.393027704209089">
        <ele>13.119999999999999</ele>
        <time>2014-11-23T11:30:49Z</time>
      </trkpt>
      <trkpt lat="51.406795028597116" lon="4.393352586776018">
        <ele>13.119999999999999</ele>
        <time>2014-11-23T11:30:26Z</time>
      </trkpt>
      <trkpt lat="51.406636275351048" lon="4.393540173768997">
        <ele>13.6</ele>
        <time>2014-11-23T11:30:04Z</time>
      </trkpt>
      <trkpt lat="51.406462686136365" lon="4.393738154321909">
        <ele>13.119999999999999</ele>
        <time>2014-11-23T11:29:54Z</time>
      </trkpt>
      <trkpt lat="51.406194297596812" lon="4.394031940028071">
        <ele>12.630000000000001</ele>
        <time>2014-11-23T11:29:23Z</time>
      </trkpt>
      <trkpt lat="51.405882993713021" lon="4.394446425139904">
        <ele>13.119999999999999</ele>
        <time>2014-11-23T11:28:52Z</time>
      </trkpt>
      <trkpt lat="51.405728850513697" lon="4.394554635509849">
        <ele>12.630000000000001</ele>
        <time>2014-11-23T11:28:38Z</time>
      </trkpt>
      <trkpt lat="51.405572444200516" lon="4.394801734015346">
        <ele>12.630000000000001</ele>
        <time>2014-11-23T11:28:23Z</time>
      </trkpt>
      <trkpt lat="51.405193833634257" lon="4.395232228562236">
        <ele>12.630000000000001</ele>
        <time>2014-11-23T11:27:52Z</time>
      </trkpt>
      <trkpt lat="51.40420158393681" lon="4.396410975605249">
        <ele>14.56</ele>
        <time>2014-11-23T11:26:28Z</time>
      </trkpt>
      <trkpt lat="51.404052972793579" lon="4.3965810444206">
        <ele>16</ele>
        <time>2014-11-23T11:26:16Z</time>
      </trkpt>
      <trkpt lat="51.404020031914115" lon="4.396652793511748">
        <ele>16.48</ele>
        <time>2014-11-23T11:26:12Z</time>
      </trkpt>
      <trkpt lat="51.403992790728807" lon="4.396676430478692">
        <ele>16.48</ele>
        <time>2014-11-23T11:26:10Z</time>
      </trkpt>
      <trkpt lat="51.403806880116463" lon="4.396895449608564">
        <ele>16</ele>
        <time>2014-11-23T11:25:54Z</time>
      </trkpt>
      <trkpt lat="51.40364695340395" lon="4.397035343572497">
        <ele>15.039999999999999</ele>
        <time>2014-11-23T11:25:42Z</time>
      </trkpt>
      <trkpt lat="51.403585933148861" lon="4.397160988301039">
        <ele>15.039999999999999</ele>
        <time>2014-11-23T11:25:37Z</time>
      </trkpt>
      <trkpt lat="51.403519632294774" lon="4.397202813997865">
        <ele>15.52</ele>
        <time>2014-11-23T11:25:33Z</time>
      </trkpt>
      <trkpt lat="51.403420977294445" lon="4.397368859499693">
        <ele>15.52</ele>
        <time>2014-11-23T11:25:26Z</time>
      </trkpt>
      <trkpt lat="51.402772050350904" lon="4.397990209981799">
        <ele>15.52</ele>
        <time>2014-11-23T11:24:51Z</time>
      </trkpt>
      <trkpt lat="51.402653614059091" lon="4.398131025955081">
        <ele>16</ele>
        <time>2014-11-23T11:24:41Z</time>
      </trkpt>
      <trkpt lat="51.402570297941566" lon="4.398227753117681">
        <ele>16.960000000000001</ele>
        <time>2014-11-23T11:24:33Z</time>
      </trkpt>
      <trkpt lat="51.402269555255771" lon="4.398712562397122">
        <ele>17.440000000000001</ele>
        <time>2014-11-23T11:24:05Z</time>
      </trkpt>
      <trkpt lat="51.402253126725554" lon="4.398733600974083">
        <ele>17.440000000000001</ele>
        <time>2014-11-23T11:24:02Z</time>
      </trkpt>
      <trkpt lat="51.40211901627481" lon="4.398906854912639">
        <ele>16.960000000000001</ele>
        <time>2014-11-23T11:23:47Z</time>
      </trkpt>
      <trkpt lat="51.401923885568976" lon="4.399144817143679">
        <ele>16</ele>
        <time>2014-11-23T11:23:32Z</time>
      </trkpt>
      <trkpt lat="51.401889435946941" lon="4.399191336706281">
        <ele>16</ele>
        <time>2014-11-23T11:23:29Z</time>
      </trkpt>
      <trkpt lat="51.401620293036103" lon="4.39948889426887">
        <ele>16</ele>
        <time>2014-11-23T11:23:06Z</time>
      </trkpt>
      <trkpt lat="51.401599757373333" lon="4.399517895653844">
        <ele>16</ele>
        <time>2014-11-23T11:23:03Z</time>
      </trkpt>
      <trkpt lat="51.401447374373674" lon="4.399689976125956">
        <ele>15.52</ele>
        <time>2014-11-23T11:22:50Z</time>
      </trkpt>
      <trkpt lat="51.401323992758989" lon="4.399855267256498">
        <ele>15.039999999999999</ele>
        <time>2014-11-23T11:22:39Z</time>
      </trkpt>
      <trkpt lat="51.401309324428439" lon="4.399868343025446">
        <ele>15.039999999999999</ele>
        <time>2014-11-23T11:22:38Z</time>
      </trkpt>
      <trkpt lat="51.401167083531618" lon="4.400009661912918">
        <ele>15.52</ele>
        <time>2014-11-23T11:22:27Z</time>
      </trkpt>
      <trkpt lat="51.400641789659858" lon="4.400675017386675">
        <ele>15.039999999999999</ele>
        <time>2014-11-23T11:21:37Z</time>
      </trkpt>
      <trkpt lat="51.400320595130324" lon="4.401057902723551">
        <ele>15.039999999999999</ele>
        <time>2014-11-23T11:21:09Z</time>
      </trkpt>
      <trkpt lat="51.40016058459878" lon="4.401266276836395">
        <ele>14.56</ele>
        <time>2014-11-23T11:20:52Z</time>
      </trkpt>
      <trkpt lat="51.399865206331015" lon="4.401640277355909">
        <ele>14.08</ele>
        <time>2014-11-23T11:20:25Z</time>
      </trkpt>
      <trkpt lat="51.399815334007144" lon="4.401739938184619">
        <ele>14.08</ele>
        <time>2014-11-23T11:20:21Z</time>
      </trkpt>
      <trkpt lat="51.399731347337365" lon="4.401565091684461">
        <ele>13.6</ele>
        <time>2014-11-23T11:20:08Z</time>
      </trkpt>
      <trkpt lat="51.399637050926685" lon="4.401341881603003">
        <ele>13.6</ele>
        <time>2014-11-23T11:19:54Z</time>
      </trkpt>
      <trkpt lat="51.399549124762416" lon="4.400980118662119">
        <ele>13.6</ele>
        <time>2014-11-23T11:19:38Z</time>
      </trkpt>
      <trkpt lat="51.399453151971102" lon="4.400650458410382">
        <ele>13.119999999999999</ele>
        <time>2014-11-23T11:19:21Z</time>
      </trkpt>
      <trkpt lat="51.39932700432837" lon="4.400247456505895">
        <ele>12.630000000000001</ele>
        <time>2014-11-23T11:19:04Z</time>
      </trkpt>
      <trkpt lat="51.399291967973113" lon="4.400024581700563">
        <ele>12.630000000000001</ele>
        <time>2014-11-23T11:18:53Z</time>
      </trkpt>
      <trkpt lat="51.399287525564432" lon="4.399940427392721">
        <ele>12.630000000000001</ele>
        <time>2014-11-23T11:18:49Z</time>
      </trkpt>
      <trkpt lat="51.39928107149899" lon="4.399873120710254">
        <ele>12.630000000000001</ele>
        <time>2014-11-23T11:18:46Z</time>
      </trkpt>
      <trkpt lat="51.399241425096989" lon="4.399558464065194">
        <ele>12.15</ele>
        <time>2014-11-23T11:18:33Z</time>
      </trkpt>
      <trkpt lat="51.399221140891314" lon="4.399217404425144">
        <ele>12.630000000000001</ele>
        <time>2014-11-23T11:18:19Z</time>
      </trkpt>
      <trkpt lat="51.399219296872616" lon="4.399200472980738">
        <ele>12.630000000000001</ele>
        <time>2014-11-23T11:18:18Z</time>
      </trkpt>
      <trkpt lat="51.399141848087311" lon="4.398820688948035">
        <ele>11.67</ele>
        <time>2014-11-23T11:18:01Z</time>
      </trkpt>
      <trkpt lat="51.399146290495992" lon="4.398746425285935">
        <ele>11.67</ele>
        <time>2014-11-23T11:17:58Z</time>
      </trkpt>
      <trkpt lat="51.399098262190819" lon="4.398396229371429">
        <ele>11.67</ele>
        <time>2014-11-23T11:17:43Z</time>
      </trkpt>
      <trkpt lat="51.399093652144074" lon="4.398372592404485">
        <ele>11.67</ele>
        <time>2014-11-23T11:17:42Z</time>
      </trkpt>
      <trkpt lat="51.39902014285326" lon="4.398049889132381">
        <ele>11.67</ele>
        <time>2014-11-23T11:17:28Z</time>
      </trkpt>
      <trkpt lat="51.398905562236905" lon="4.397682175040245">
        <ele>11.67</ele>
        <time>2014-11-23T11:17:10Z</time>
      </trkpt>
      <trkpt lat="51.398869520053267" lon="4.397611934691668">
        <ele>11.67</ele>
        <time>2014-11-23T11:17:06Z</time>
      </trkpt>
      <trkpt lat="51.39880707487464" lon="4.397452091798186">
        <ele>11.67</ele>
        <time>2014-11-23T11:17:00Z</time>
      </trkpt>
      <trkpt lat="51.398792574182153" lon="4.397343546152115">
        <ele>11.67</ele>
        <time>2014-11-23T11:16:56Z</time>
      </trkpt>
      <trkpt lat="51.398708336055279" lon="4.397030314430594">
        <ele>11.67</ele>
        <time>2014-11-23T11:16:43Z</time>
      </trkpt>
      <trkpt lat="51.398651506751776" lon="4.396913135424256">
        <ele>11.67</ele>
        <time>2014-11-23T11:16:36Z</time>
      </trkpt>
      <trkpt lat="51.398586295545101" lon="4.396765111014247">
        <ele>12.15</ele>
        <time>2014-11-23T11:16:29Z</time>
      </trkpt>
      <trkpt lat="51.398487389087677" lon="4.396446598693728">
        <ele>11.67</ele>
        <time>2014-11-23T11:16:13Z</time>
      </trkpt>
      <trkpt lat="51.398459980264306" lon="4.396366970613599">
        <ele>11.67</ele>
        <time>2014-11-23T11:16:09Z</time>
      </trkpt>
      <trkpt lat="51.398413628339767" lon="4.396146442741156">
        <ele>14.08</ele>
        <time>2014-11-23T11:16:00Z</time>
      </trkpt>
      <trkpt lat="51.398350512608886" lon="4.395983666181564">
        <ele>11.19</ele>
        <time>2014-11-23T11:15:50Z</time>
      </trkpt>
      <trkpt lat="51.398345651105046" lon="4.395938236266375">
        <ele>10.710000000000001</ele>
        <time>2014-11-23T11:15:48Z</time>
      </trkpt>
      <trkpt lat="51.398336179554462" lon="4.395861374214292">
        <ele>10.710000000000001</ele>
        <time>2014-11-23T11:15:45Z</time>
      </trkpt>
      <trkpt lat="51.398259568959475" lon="4.395646210759878">
        <ele>10.710000000000001</ele>
        <time>2014-11-23T11:15:34Z</time>
      </trkpt>
      <trkpt lat="51.398161752149463" lon="4.395358543843031">
        <ele>10.710000000000001</ele>
        <time>2014-11-23T11:15:20Z</time>
      </trkpt>
      <trkpt lat="51.398152364417911" lon="4.39533306285739">
        <ele>10.710000000000001</ele>
        <time>2014-11-23T11:15:19Z</time>
      </trkpt>
      <trkpt lat="51.398083884268999" lon="4.39497054554522">
        <ele>10.710000000000001</ele>
        <time>2014-11-23T11:15:04Z</time>
      </trkpt>
      <trkpt lat="51.398049350827932" lon="4.394881362095475">
        <ele>11.19</ele>
        <time>2014-11-23T11:15:00Z</time>
      </trkpt>
      <trkpt lat="51.397977434098721" lon="4.394535776227713">
        <ele>11.19</ele>
        <time>2014-11-23T11:14:45Z</time>
      </trkpt>
      <trkpt lat="51.397891687229276" lon="4.394313655793667">
        <ele>11.19</ele>
        <time>2014-11-23T11:14:33Z</time>
      </trkpt>
      <trkpt lat="51.397782135754824" lon="4.393991623073816">
        <ele>10.710000000000001</ele>
        <time>2014-11-23T11:14:17Z</time>
      </trkpt>
      <trkpt lat="51.397676188498735" lon="4.3936712667346">
        <ele>10.710000000000001</ele>
        <time>2014-11-23T11:14:04Z</time>
      </trkpt>
      <trkpt lat="51.397594967857003" lon="4.393435316160321">
        <ele>10.710000000000001</ele>
        <time>2014-11-23T11:13:48Z</time>
      </trkpt>
      <trkpt lat="51.397473178803921" lon="4.393125269562006">
        <ele>10.710000000000001</ele>
        <time>2014-11-23T11:13:35Z</time>
      </trkpt>
      <trkpt lat="51.397465132176876" lon="4.393102638423443">
        <ele>10.710000000000001</ele>
        <time>2014-11-23T11:13:34Z</time>
      </trkpt>
      <trkpt lat="51.397424479946494" lon="4.393007671460509">
        <ele>10.710000000000001</ele>
        <time>2014-11-23T11:13:29Z</time>
      </trkpt>
      <trkpt lat="51.397349964827299" lon="4.392701731994748">
        <ele>10.710000000000001</ele>
        <time>2014-11-23T11:13:14Z</time>
      </trkpt>
      <trkpt lat="51.397321969270706" lon="4.392609111964703">
        <ele>10.710000000000001</ele>
        <time>2014-11-23T11:13:08Z</time>
      </trkpt>
      <trkpt lat="51.39731090515852" lon="4.39259335398674">
        <ele>10.710000000000001</ele>
        <time>2014-11-23T11:13:07Z</time>
      </trkpt>
      <trkpt lat="51.397301685065031" lon="4.392573572695255">
        <ele>10.710000000000001</ele>
        <time>2014-11-23T11:13:06Z</time>
      </trkpt>
      <trkpt lat="51.397218704223633" lon="4.392310967668891">
        <ele>10.710000000000001</ele>
        <time>2014-11-23T11:12:52Z</time>
      </trkpt>
      <trkpt lat="51.39721124432981" lon="4.392286324873567">
        <ele>10.710000000000001</ele>
        <time>2014-11-23T11:12:51Z</time>
      </trkpt>
      <trkpt lat="51.397201856598258" lon="4.392265537753701">
        <ele>10.710000000000001</ele>
        <time>2014-11-23T11:12:50Z</time>
      </trkpt>
      <trkpt lat="51.397162545472383" lon="4.3921516276896">
        <ele>10.23</ele>
        <time>2014-11-23T11:12:43Z</time>
      </trkpt>
      <trkpt lat="51.397161204367876" lon="4.392124051228166">
        <ele>10.23</ele>
        <time>2014-11-23T11:12:42Z</time>
      </trkpt>
      <trkpt lat="51.397152738645673" lon="4.39207786694169">
        <ele>10.23</ele>
        <time>2014-11-23T11:12:40Z</time>
      </trkpt>
      <trkpt lat="51.397145614027977" lon="4.392056912183762">
        <ele>10.23</ele>
        <time>2014-11-23T11:12:39Z</time>
      </trkpt>
      <trkpt lat="51.397078558802605" lon="4.391872258856893">
        <ele>10.23</ele>
        <time>2014-11-23T11:12:29Z</time>
      </trkpt>
      <trkpt lat="51.397064058110118" lon="4.391827331855893">
        <ele>10.23</ele>
        <time>2014-11-23T11:12:27Z</time>
      </trkpt>
      <trkpt lat="51.396975126117468" lon="4.391483087092638">
        <ele>10.23</ele>
        <time>2014-11-23T11:12:11Z</time>
      </trkpt>
      <trkpt lat="51.396922068670392" lon="4.391334895044565">
        <ele>10.710000000000001</ele>
        <time>2014-11-23T11:12:03Z</time>
      </trkpt>
      <trkpt lat="51.396821066737175" lon="4.391054855659604">
        <ele>10.710000000000001</ele>
        <time>2014-11-23T11:11:49Z</time>
      </trkpt>
      <trkpt lat="51.396810337901115" lon="4.390994505956769">
        <ele>10.710000000000001</ele>
        <time>2014-11-23T11:11:46Z</time>
      </trkpt>
      <trkpt lat="51.396827269345522" lon="4.39074438996613">
        <ele>10.23</ele>
        <time>2014-11-23T11:11:33Z</time>
      </trkpt>
      <trkpt lat="51.396874040365219" lon="4.390447502955794">
        <ele>9.75</ele>
        <time>2014-11-23T11:11:19Z</time>
      </trkpt>
      <trkpt lat="51.396868340671062" lon="4.390376256778836">
        <ele>9.75</ele>
        <time>2014-11-23T11:11:15Z</time>
      </trkpt>
      <trkpt lat="51.396815869957209" lon="4.390159584581852">
        <ele>9.27</ele>
        <time>2014-11-23T11:11:03Z</time>
      </trkpt>
      <trkpt lat="51.396801033988595" lon="4.390087919309735">
        <ele>9.27</ele>
        <time>2014-11-23T11:11:00Z</time>
      </trkpt>
      <trkpt lat="51.396776223555207" lon="4.389984235167503">
        <ele>8.789999999999999</ele>
        <time>2014-11-23T11:10:55Z</time>
      </trkpt>
      <trkpt lat="51.396742779761553" lon="4.389732358977199">
        <ele>9.27</ele>
        <time>2014-11-23T11:10:39Z</time>
      </trkpt>
      <trkpt lat="51.396647393703461" lon="4.389492552727461">
        <ele>9.27</ele>
        <time>2014-11-23T11:10:24Z</time>
      </trkpt>
      <trkpt lat="51.396511103957891" lon="4.389283759519458">
        <ele>8.789999999999999</ele>
        <time>2014-11-23T11:10:09Z</time>
      </trkpt>
      <trkpt lat="51.396484198048711" lon="4.389239083975554">
        <ele>8.789999999999999</ele>
        <time>2014-11-23T11:10:06Z</time>
      </trkpt>
      <trkpt lat="51.396373892202973" lon="4.388990392908454">
        <ele>8.310000000000001</ele>
        <time>2014-11-23T11:09:53Z</time>
      </trkpt>
      <trkpt lat="51.396294264122844" lon="4.388692500069737">
        <ele>7.83</ele>
        <time>2014-11-23T11:09:36Z</time>
      </trkpt>
      <trkpt lat="51.396288815885782" lon="4.388670958578587">
        <ele>7.83</ele>
        <time>2014-11-23T11:09:35Z</time>
      </trkpt>
      <trkpt lat="51.39628236182034" lon="4.38865159638226">
        <ele>7.83</ele>
        <time>2014-11-23T11:09:34Z</time>
      </trkpt>
      <trkpt lat="51.396274650469422" lon="4.388633826747537">
        <ele>8.310000000000001</ele>
        <time>2014-11-23T11:09:33Z</time>
      </trkpt>
      <trkpt lat="51.396250175312161" lon="4.388544140383601">
        <ele>7.83</ele>
        <time>2014-11-23T11:09:28Z</time>
      </trkpt>
      <trkpt lat="51.396245062351227" lon="4.388527628034353">
        <ele>7.83</ele>
        <time>2014-11-23T11:09:27Z</time>
      </trkpt>
      <trkpt lat="51.39623986557126" lon="4.388509690761566">
        <ele>7.83</ele>
        <time>2014-11-23T11:09:26Z</time>
      </trkpt>
      <trkpt lat="51.396205918863416" lon="4.38837013207376">
        <ele>7.83</ele>
        <time>2014-11-23T11:09:19Z</time>
      </trkpt>
      <trkpt lat="51.396123860031366" lon="4.388087410479784">
        <ele>7.83</ele>
        <time>2014-11-23T11:09:04Z</time>
      </trkpt>
      <trkpt lat="51.396077340468764" lon="4.387751715257764">
        <ele>7.83</ele>
        <time>2014-11-23T11:08:48Z</time>
      </trkpt>
      <trkpt lat="51.395968627184629" lon="4.3874632101506">
        <ele>7.83</ele>
        <time>2014-11-23T11:08:32Z</time>
      </trkpt>
      <trkpt lat="51.395962676033378" lon="4.387445775792003">
        <ele>7.83</ele>
        <time>2014-11-23T11:08:31Z</time>
      </trkpt>
      <trkpt lat="51.39595597051084" lon="4.387429766356945">
        <ele>7.83</ele>
        <time>2014-11-23T11:08:30Z</time>
      </trkpt>
      <trkpt lat="51.395945744588971" lon="4.387387773022056">
        <ele>7.35</ele>
        <time>2014-11-23T11:08:14Z</time>
      </trkpt>
      <trkpt lat="51.395945409312844" lon="4.38738358207047">
        <ele>7.83</ele>
        <time>2014-11-23T11:07:50Z</time>
      </trkpt>
      <trkpt lat="51.395951695740223" lon="4.387388695031405">
        <ele>7.83</ele>
        <time>2014-11-23T11:07:28Z</time>
      </trkpt>
      <trkpt lat="51.395956976339221" lon="4.387385090813041">
        <ele>7.83</ele>
        <time>2014-11-23T11:07:08Z</time>
      </trkpt>
      <trkpt lat="51.395955719053745" lon="4.387384504079819">
        <ele>7.83</ele>
        <time>2014-11-23T11:06:49Z</time>
      </trkpt>
      <trkpt lat="51.395958485081792" lon="4.387382660061121">
        <ele>7.83</ele>
        <time>2014-11-23T11:06:28Z</time>
      </trkpt>
      <trkpt lat="51.395962592214346" lon="4.387386180460453">
        <ele>7.35</ele>
        <time>2014-11-23T11:06:11Z</time>
      </trkpt>
      <trkpt lat="51.395957479253411" lon="4.387383162975311">
        <ele>7.83</ele>
        <time>2014-11-23T11:05:54Z</time>
      </trkpt>
      <trkpt lat="51.39593250118196" lon="4.387373523786664">
        <ele>7.83</ele>
        <time>2014-11-23T11:05:38Z</time>
      </trkpt>
      <trkpt lat="51.395777519792318" lon="4.387117708101869">
        <ele>7.35</ele>
        <time>2014-11-23T11:05:22Z</time>
      </trkpt>
      <trkpt lat="51.395649779587984" lon="4.386788550764322">
        <ele>7.35</ele>
        <time>2014-11-23T11:05:06Z</time>
      </trkpt>
      <trkpt lat="51.395685821771622" lon="4.386459225788713">
        <ele>7.35</ele>
        <time>2014-11-23T11:04:52Z</time>
      </trkpt>
      <trkpt lat="51.395696634426713" lon="4.386432068422437">
        <ele>7.35</ele>
        <time>2014-11-23T11:04:51Z</time>
      </trkpt>
      <trkpt lat="51.395767293870449" lon="4.386113891378045">
        <ele>7.83</ele>
        <time>2014-11-23T11:04:37Z</time>
      </trkpt>
      <trkpt lat="51.395772490650415" lon="4.385951953008771">
        <ele>7.35</ele>
        <time>2014-11-23T11:04:29Z</time>
      </trkpt>
      <trkpt lat="51.395769724622369" lon="4.385928986594081">
        <ele>7.83</ele>
        <time>2014-11-23T11:04:28Z</time>
      </trkpt>
      <trkpt lat="51.395698562264442" lon="4.385645175352693">
        <ele>7.83</ele>
        <time>2014-11-23T11:04:15Z</time>
      </trkpt>
      <trkpt lat="51.395606277510524" lon="4.385378463193774">
        <ele>7.35</ele>
        <time>2014-11-23T11:04:04Z</time>
      </trkpt>
      <trkpt lat="51.395600996911526" lon="4.385349210351706">
        <ele>7.35</ele>
        <time>2014-11-23T11:04:03Z</time>
      </trkpt>
      <trkpt lat="51.395586412400007" lon="4.385314006358385">
        <ele>7.35</ele>
        <time>2014-11-23T11:04:01Z</time>
      </trkpt>
      <trkpt lat="51.395547688007355" lon="4.385099932551384">
        <ele>7.83</ele>
        <time>2014-11-23T11:03:52Z</time>
      </trkpt>
      <trkpt lat="51.395542658865452" lon="4.385065399110317">
        <ele>7.83</ele>
        <time>2014-11-23T11:03:51Z</time>
      </trkpt>
      <trkpt lat="51.395534528419375" lon="4.385024579241872">
        <ele>7.83</ele>
        <time>2014-11-23T11:03:50Z</time>
      </trkpt>
      <trkpt lat="51.395506365224719" lon="4.384837243705988">
        <ele>7.83</ele>
        <time>2014-11-23T11:03:39Z</time>
      </trkpt>
      <trkpt lat="51.39550200663507" lon="4.384820563718677">
        <ele>7.83</ele>
        <time>2014-11-23T11:03:38Z</time>
      </trkpt>
      <trkpt lat="51.395497396588326" lon="4.384793993085623">
        <ele>7.83</ele>
        <time>2014-11-23T11:03:37Z</time>
      </trkpt>
      <trkpt lat="51.395492283627391" lon="4.384774379432201">
        <ele>7.83</ele>
        <time>2014-11-23T11:03:36Z</time>
      </trkpt>
      <trkpt lat="51.395490355789661" lon="4.384745713323355">
        <ele>7.83</ele>
        <time>2014-11-23T11:03:35Z</time>
      </trkpt>
      <trkpt lat="51.395486667752266" lon="4.384715622290969">
        <ele>7.83</ele>
        <time>2014-11-23T11:03:34Z</time>
      </trkpt>
      <trkpt lat="51.395483566448092" lon="4.384578242897987">
        <ele>7.83</ele>
        <time>2014-11-23T11:03:27Z</time>
      </trkpt>
      <trkpt lat="51.395484153181314" lon="4.384559635072947">
        <ele>7.83</ele>
        <time>2014-11-23T11:03:26Z</time>
      </trkpt>
      <trkpt lat="51.395483314990997" lon="4.384538596495986">
        <ele>7.83</ele>
        <time>2014-11-23T11:03:25Z</time>
      </trkpt>
      <trkpt lat="51.395481638610363" lon="4.384516384452581">
        <ele>7.83</ele>
        <time>2014-11-23T11:03:24Z</time>
      </trkpt>
      <trkpt lat="51.395481806248426" lon="4.384494591504335">
        <ele>7.83</ele>
        <time>2014-11-23T11:03:23Z</time>
      </trkpt>
      <trkpt lat="51.39546537771821" lon="4.384289821609855">
        <ele>7.83</ele>
        <time>2014-11-23T11:03:14Z</time>
      </trkpt>
      <trkpt lat="51.395463868975639" lon="4.384265346452594">
        <ele>8.310000000000001</ele>
        <time>2014-11-23T11:03:13Z</time>
      </trkpt>
      <trkpt lat="51.395456995815039" lon="4.384089829400182">
        <ele>8.310000000000001</ele>
        <time>2014-11-23T11:03:07Z</time>
      </trkpt>
      <trkpt lat="51.395437801256776" lon="4.383891932666302">
        <ele>8.789999999999999</ele>
        <time>2014-11-23T11:02:58Z</time>
      </trkpt>
      <trkpt lat="51.395300924777985" lon="4.383601499721408">
        <ele>10.710000000000001</ele>
        <time>2014-11-23T11:02:45Z</time>
      </trkpt>
      <trkpt lat="51.395109565928578" lon="4.383153738453984">
        <ele>10.710000000000001</ele>
        <time>2014-11-23T11:02:35Z</time>
      </trkpt>
      <trkpt lat="51.395075367763638" lon="4.383090706542134">
        <ele>10.710000000000001</ele>
        <time>2014-11-23T11:02:34Z</time>
      </trkpt>
      <trkpt lat="51.3948736153543" lon="4.382643196731806">
        <ele>11.19</ele>
        <time>2014-11-23T11:02:28Z</time>
      </trkpt>
      <trkpt lat="51.394721567630768" lon="4.382361061871052">
        <ele>11.19</ele>
        <time>2014-11-23T11:02:23Z</time>
      </trkpt>
      <trkpt lat="51.394690470770001" lon="4.382295431569219">
        <ele>10.710000000000001</ele>
        <time>2014-11-23T11:02:22Z</time>
      </trkpt>
      <trkpt lat="51.394637329503894" lon="4.382150927558541">
        <ele>10.710000000000001</ele>
        <time>2014-11-23T11:02:20Z</time>
      </trkpt>
      <trkpt lat="51.394609166309237" lon="4.382075993344188">
        <ele>11.19</ele>
        <time>2014-11-23T11:02:19Z</time>
      </trkpt>
      <trkpt lat="51.394576644524932" lon="4.382009608671069">
        <ele>10.710000000000001</ele>
        <time>2014-11-23T11:02:18Z</time>
      </trkpt>
      <trkpt lat="51.394490981474519" lon="4.381820512935519">
        <ele>10.23</ele>
        <time>2014-11-23T11:02:15Z</time>
      </trkpt>
      <trkpt lat="51.394316218793392" lon="4.381137974560261">
        <ele>9.27</ele>
        <time>2014-11-23T11:02:06Z</time>
      </trkpt>
      <trkpt lat="51.394306579604745" lon="4.381066476926208">
        <ele>8.789999999999999</ele>
        <time>2014-11-23T11:02:05Z</time>
      </trkpt>
      <trkpt lat="51.394292246550322" lon="4.38099330291152">
        <ele>8.310000000000001</ele>
        <time>2014-11-23T11:02:04Z</time>
      </trkpt>
      <trkpt lat="51.394261065870523" lon="4.380848547443748">
        <ele>8.310000000000001</ele>
        <time>2014-11-23T11:02:02Z</time>
      </trkpt>
      <trkpt lat="51.394245643168688" lon="4.380783000960946">
        <ele>7.83</ele>
        <time>2014-11-23T11:02:01Z</time>
      </trkpt>
      <trkpt lat="51.394221838563681" lon="4.380719801411033">
        <ele>7.83</ele>
        <time>2014-11-23T11:02:00Z</time>
      </trkpt>
      <trkpt lat="51.394123015925288" lon="4.380442528054118">
        <ele>7.35</ele>
        <time>2014-11-23T11:01:56Z</time>
      </trkpt>
      <trkpt lat="51.394014470279217" lon="4.380187299102545">
        <ele>6.87</ele>
        <time>2014-11-23T11:01:52Z</time>
      </trkpt>
      <trkpt lat="51.39392914250493" lon="4.379954785108566">
        <ele>7.35</ele>
        <time>2014-11-23T11:01:49Z</time>
      </trkpt>
      <trkpt lat="51.393905756995082" lon="4.379878509789705">
        <ele>7.35</ele>
        <time>2014-11-23T11:01:48Z</time>
      </trkpt>
      <trkpt lat="51.39388220384717" lon="4.37980349175632">
        <ele>6.87</ele>
        <time>2014-11-23T11:01:47Z</time>
      </trkpt>
      <trkpt lat="51.393835516646504" lon="4.379640631377697">
        <ele>6.87</ele>
        <time>2014-11-23T11:01:45Z</time>
      </trkpt>
      <trkpt lat="51.39370677061379" lon="4.379327902570367">
        <ele>7.35</ele>
        <time>2014-11-23T11:01:41Z</time>
      </trkpt>
      <trkpt lat="51.393640050664544" lon="4.379044258967042">
        <ele>7.35</ele>
        <time>2014-11-23T11:01:37Z</time>
      </trkpt>
      <trkpt lat="51.393619263544679" lon="4.378967229276896">
        <ele>7.83</ele>
        <time>2014-11-23T11:01:36Z</time>
      </trkpt>
      <trkpt lat="51.39351574704051" lon="4.378687273710966">
        <ele>7.83</ele>
        <time>2014-11-23T11:01:32Z</time>
      </trkpt>
      <trkpt lat="51.393448356539011" lon="4.378490801900625">
        <ele>7.35</ele>
        <time>2014-11-23T11:01:29Z</time>
      </trkpt>
      <trkpt lat="51.393428491428494" lon="4.378418130800128">
        <ele>7.35</ele>
        <time>2014-11-23T11:01:28Z</time>
      </trkpt>
      <trkpt lat="51.393358502537012" lon="4.378203554078937">
        <ele>7.83</ele>
        <time>2014-11-23T11:01:25Z</time>
      </trkpt>
      <trkpt lat="51.393331848084927" lon="4.378134654834867">
        <ele>7.83</ele>
        <time>2014-11-23T11:01:24Z</time>
      </trkpt>
      <trkpt lat="51.393254231661558" lon="4.377914546057582">
        <ele>7.83</ele>
        <time>2014-11-23T11:01:21Z</time>
      </trkpt>
      <trkpt lat="51.393232606351376" lon="4.377838773652911">
        <ele>7.83</ele>
        <time>2014-11-23T11:01:20Z</time>
      </trkpt>
      <trkpt lat="51.393210561946034" lon="4.377771131694317">
        <ele>7.83</ele>
        <time>2014-11-23T11:01:19Z</time>
      </trkpt>
      <trkpt lat="51.392993973568082" lon="4.377061603590846">
        <ele>7.83</ele>
        <time>2014-11-23T11:01:09Z</time>
      </trkpt>
      <trkpt lat="51.392973186448216" lon="4.376993458718061">
        <ele>7.83</ele>
        <time>2014-11-23T11:01:08Z</time>
      </trkpt>
      <trkpt lat="51.392923062667251" lon="4.376860102638602">
        <ele>7.83</ele>
        <time>2014-11-23T11:01:06Z</time>
      </trkpt>
      <trkpt lat="51.39289565384388" lon="4.376786928623915">
        <ele>7.35</ele>
        <time>2014-11-23T11:01:05Z</time>
      </trkpt>
      <trkpt lat="51.39286539517343" lon="4.376715430989862">
        <ele>7.83</ele>
        <time>2014-11-23T11:01:04Z</time>
      </trkpt>
      <trkpt lat="51.392696667462587" lon="4.376214193180203">
        <ele>7.35</ele>
        <time>2014-11-23T11:00:57Z</time>
      </trkpt>
      <trkpt lat="51.39248670078814" lon="4.375465521588922">
        <ele>7.83</ele>
        <time>2014-11-23T11:00:46Z</time>
      </trkpt>
      <trkpt lat="51.392405983060598" lon="4.375154301524162">
        <ele>6.87</ele>
        <time>2014-11-23T11:00:42Z</time>
      </trkpt>
      <trkpt lat="51.392152011394501" lon="4.374618949368596">
        <ele>7.83</ele>
        <time>2014-11-23T11:00:32Z</time>
      </trkpt>
      <trkpt lat="51.391902733594179" lon="4.373988630250096">
        <ele>7.35</ele>
        <time>2014-11-23T11:00:21Z</time>
      </trkpt>
      <trkpt lat="51.391882868483663" lon="4.373921491205692">
        <ele>7.35</ele>
        <time>2014-11-23T11:00:20Z</time>
      </trkpt>
      <trkpt lat="51.39185780659318" lon="4.373856447637081">
        <ele>7.35</ele>
        <time>2014-11-23T11:00:19Z</time>
      </trkpt>
      <trkpt lat="51.391668962314725" lon="4.373243981972337">
        <ele>7.35</ele>
        <time>2014-11-23T11:00:09Z</time>
      </trkpt>
      <trkpt lat="51.391518423333764" lon="4.372872412204742">
        <ele>7.35</ele>
        <time>2014-11-23T10:59:53Z</time>
      </trkpt>
      <trkpt lat="51.391440303996205" lon="4.372620787471533">
        <ele>7.35</ele>
        <time>2014-11-23T10:59:40Z</time>
      </trkpt>
      <trkpt lat="51.391330165788531" lon="4.372313255444169">
        <ele>7.83</ele>
        <time>2014-11-23T10:59:23Z</time>
      </trkpt>
      <trkpt lat="51.391270905733109" lon="4.372010752558708">
        <ele>7.35</ele>
        <time>2014-11-23T10:59:10Z</time>
      </trkpt>
      <trkpt lat="51.39117568731308" lon="4.3718246743083">
        <ele>7.35</ele>
        <time>2014-11-23T10:58:56Z</time>
      </trkpt>
      <trkpt lat="51.391082312911749" lon="4.371510604396462">
        <ele>7.83</ele>
        <time>2014-11-23T10:58:40Z</time>
      </trkpt>
      <trkpt lat="51.390983909368515" lon="4.371281191706657">
        <ele>7.83</ele>
        <time>2014-11-23T10:58:24Z</time>
      </trkpt>
      <trkpt lat="51.390903443098068" lon="4.371026130393148">
        <ele>7.35</ele>
        <time>2014-11-23T10:58:10Z</time>
      </trkpt>
      <trkpt lat="51.390827586874366" lon="4.370757071301341">
        <ele>7.35</ele>
        <time>2014-11-23T10:57:57Z</time>
      </trkpt>
      <trkpt lat="51.39069146476686" lon="4.370461273938417">
        <ele>7.83</ele>
        <time>2014-11-23T10:57:40Z</time>
      </trkpt>
      <trkpt lat="51.390612842515111" lon="4.370174109935761">
        <ele>7.83</ele>
        <time>2014-11-23T10:57:25Z</time>
      </trkpt>
      <trkpt lat="51.390514690428972" lon="4.369828691706061">
        <ele>7.35</ele>
        <time>2014-11-23T10:57:06Z</time>
      </trkpt>
      <trkpt lat="51.390438582748175" lon="4.369633728638291">
        <ele>7.35</ele>
        <time>2014-11-23T10:56:52Z</time>
      </trkpt>
      <trkpt lat="51.390305897220969" lon="4.369318652898073">
        <ele>7.35</ele>
        <time>2014-11-23T10:56:37Z</time>
      </trkpt>
      <trkpt lat="51.390237081795931" lon="4.369101645424962">
        <ele>7.35</ele>
        <time>2014-11-23T10:56:28Z</time>
      </trkpt>
      <trkpt lat="51.39010900631547" lon="4.368776343762875">
        <ele>6.87</ele>
        <time>2014-11-23T10:56:12Z</time>
      </trkpt>
      <trkpt lat="51.390044549480081" lon="4.368663104251027">
        <ele>6.87</ele>
        <time>2014-11-23T10:56:03Z</time>
      </trkpt>
      <trkpt lat="51.389974728226662" lon="4.368574339896441">
        <ele>6.87</ele>
        <time>2014-11-23T10:55:55Z</time>
      </trkpt>
      <trkpt lat="51.389953773468733" lon="4.368545254692435">
        <ele>6.87</ele>
        <time>2014-11-23T10:55:53Z</time>
      </trkpt>
      <trkpt lat="51.390053266659379" lon="4.368278626352549">
        <ele>6.87</ele>
        <time>2014-11-23T10:55:39Z</time>
      </trkpt>
      <trkpt lat="51.39011001214385" lon="4.368163542822003">
        <ele>6.39</ele>
        <time>2014-11-23T10:55:33Z</time>
      </trkpt>
      <trkpt lat="51.390252253040671" lon="4.367919713258743">
        <ele>6.39</ele>
        <time>2014-11-23T10:55:19Z</time>
      </trkpt>
      <trkpt lat="51.390386112034321" lon="4.367657778784633">
        <ele>6.87</ele>
        <time>2014-11-23T10:55:05Z</time>
      </trkpt>
      <trkpt lat="51.390510248020291" lon="4.367465749382973">
        <ele>6.87</ele>
        <time>2014-11-23T10:54:54Z</time>
      </trkpt>
      <trkpt lat="51.390700936317444" lon="4.367180680856109">
        <ele>6.87</ele>
        <time>2014-11-23T10:54:37Z</time>
      </trkpt>
      <trkpt lat="51.39085759408772" lon="4.366945652291179">
        <ele>6.87</ele>
        <time>2014-11-23T10:54:21Z</time>
      </trkpt>
      <trkpt lat="51.390957674011588" lon="4.366780612617731">
        <ele>7.35</ele>
        <time>2014-11-23T10:54:08Z</time>
      </trkpt>
      <trkpt lat="51.390978042036295" lon="4.366729483008385">
        <ele>6.87</ele>
        <time>2014-11-23T10:54:05Z</time>
      </trkpt>
      <trkpt lat="51.391222542151809" lon="4.366431757807732">
        <ele>7.83</ele>
        <time>2014-11-23T10:53:46Z</time>
      </trkpt>
      <trkpt lat="51.391345337033272" lon="4.366206787526608">
        <ele>8.789999999999999</ele>
        <time>2014-11-23T10:53:34Z</time>
      </trkpt>
      <trkpt lat="51.391432927921414" lon="4.366058930754662">
        <ele>8.310000000000001</ele>
        <time>2014-11-23T10:53:26Z</time>
      </trkpt>
      <trkpt lat="51.39152797870338" lon="4.365865811705589">
        <ele>9.27</ele>
        <time>2014-11-23T10:53:13Z</time>
      </trkpt>
      <trkpt lat="51.391653288155794" lon="4.365652156993747">
        <ele>10.23</ele>
        <time>2014-11-23T10:52:58Z</time>
      </trkpt>
      <trkpt lat="51.391669884324074" lon="4.365619383752346">
        <ele>10.710000000000001</ele>
        <time>2014-11-23T10:52:56Z</time>
      </trkpt>
      <trkpt lat="51.391680864617229" lon="4.365604128688574">
        <ele>14.08</ele>
        <time>2014-11-23T10:52:55Z</time>
      </trkpt>
      <trkpt lat="51.391692347824574" lon="4.36558929271996">
        <ele>6.87</ele>
        <time>2014-11-23T10:52:54Z</time>
      </trkpt>
      <trkpt lat="51.391722522675991" lon="4.36554092913866">
        <ele>11.19</ele>
        <time>2014-11-23T10:52:51Z</time>
      </trkpt>
      <trkpt lat="51.391732078045607" lon="4.365527601912618">
        <ele>17.440000000000001</ele>
        <time>2014-11-23T10:52:50Z</time>
      </trkpt>
      <trkpt lat="51.391742052510381" lon="4.365514190867543">
        <ele>3.5</ele>
        <time>2014-11-23T10:52:49Z</time>
      </trkpt>
      <trkpt lat="51.391767282038927" lon="4.365459205582738">
        <ele>11.19</ele>
        <time>2014-11-23T10:52:46Z</time>
      </trkpt>
      <trkpt lat="51.391886472702026" lon="4.365185787901282">
        <ele>12.15</ele>
        <time>2014-11-23T10:52:33Z</time>
      </trkpt>
      <trkpt lat="51.391966938972473" lon="4.364986130967736">
        <ele>13.119999999999999</ele>
        <time>2014-11-23T10:52:21Z</time>
      </trkpt>
      <trkpt lat="51.391968615353107" lon="4.364894349128008">
        <ele>13.6</ele>
        <time>2014-11-23T10:52:16Z</time>
      </trkpt>
      <trkpt lat="51.391913294792175" lon="4.364634929224849">
        <ele>12.630000000000001</ele>
        <time>2014-11-23T10:52:02Z</time>
      </trkpt>
      <trkpt lat="51.391877001151443" lon="4.36449134722352">
        <ele>12.630000000000001</ele>
        <time>2014-11-23T10:51:55Z</time>
      </trkpt>
      <trkpt lat="51.391829224303365" lon="4.364337287843227">
        <ele>12.630000000000001</ele>
        <time>2014-11-23T10:51:48Z</time>
      </trkpt>
      <trkpt lat="51.391797205433249" lon="4.364178199321032">
        <ele>12.630000000000001</ele>
        <time>2014-11-23T10:51:39Z</time>
      </trkpt>
      <trkpt lat="51.391789242625237" lon="4.364156909286976">
        <ele>12.630000000000001</ele>
        <time>2014-11-23T10:51:38Z</time>
      </trkpt>
      <trkpt lat="51.39172151684761" lon="4.363835882395506">
        <ele>12.15</ele>
        <time>2014-11-23T10:51:22Z</time>
      </trkpt>
      <trkpt lat="51.39171414077282" lon="4.363747118040919">
        <ele>12.15</ele>
        <time>2014-11-23T10:51:17Z</time>
      </trkpt>
      <trkpt lat="51.391645660623908" lon="4.363423995673657">
        <ele>11.67</ele>
        <time>2014-11-23T10:51:01Z</time>
      </trkpt>
      <trkpt lat="51.39156267978251" lon="4.363070195540786">
        <ele>11.67</ele>
        <time>2014-11-23T10:50:43Z</time>
      </trkpt>
      <trkpt lat="51.391518758609891" lon="4.362922925502062">
        <ele>11.19</ele>
        <time>2014-11-23T10:50:36Z</time>
      </trkpt>
      <trkpt lat="51.391424797475338" lon="4.362618830054998">
        <ele>10.710000000000001</ele>
        <time>2014-11-23T10:50:21Z</time>
      </trkpt>
      <trkpt lat="51.391354305669665" lon="4.362315824255347">
        <ele>10.710000000000001</ele>
        <time>2014-11-23T10:50:06Z</time>
      </trkpt>
      <trkpt lat="51.39133058488369" lon="4.362215660512447">
        <ele>10.23</ele>
        <time>2014-11-23T10:50:01Z</time>
      </trkpt>
      <trkpt lat="51.391253303736448" lon="4.361930256709456">
        <ele>10.23</ele>
        <time>2014-11-23T10:49:48Z</time>
      </trkpt>
      <trkpt lat="51.391205275431275" lon="4.361668657511473">
        <ele>9.75</ele>
        <time>2014-11-23T10:49:35Z</time>
      </trkpt>
      <trkpt lat="51.391114415600896" lon="4.361306391656399">
        <ele>9.27</ele>
        <time>2014-11-23T10:49:20Z</time>
      </trkpt>
      <trkpt lat="51.391110643744469" lon="4.361295495182276">
        <ele>9.27</ele>
        <time>2014-11-23T10:49:19Z</time>
      </trkpt>
      <trkpt lat="51.391031518578529" lon="4.360946975648403">
        <ele>8.789999999999999</ele>
        <time>2014-11-23T10:49:04Z</time>
      </trkpt>
      <trkpt lat="51.391002684831619" lon="4.36070398427546">
        <ele>8.789999999999999</ele>
        <time>2014-11-23T10:48:52Z</time>
      </trkpt>
      <trkpt lat="51.390949375927448" lon="4.360503992065787">
        <ele>12.15</ele>
        <time>2014-11-23T10:48:39Z</time>
      </trkpt>
      <trkpt lat="51.390914171934128" lon="4.360365271568298">
        <ele>8.789999999999999</ele>
        <time>2014-11-23T10:48:32Z</time>
      </trkpt>
      <trkpt lat="51.390852564945817" lon="4.360210709273815">
        <ele>9.27</ele>
        <time>2014-11-23T10:48:21Z</time>
      </trkpt>
      <trkpt lat="51.39070856384933" lon="4.360011806711555">
        <ele>9.27</ele>
        <time>2014-11-23T10:48:04Z</time>
      </trkpt>
      <trkpt lat="51.390685178339481" lon="4.359899237751961">
        <ele>9.27</ele>
        <time>2014-11-23T10:47:57Z</time>
      </trkpt>
      <trkpt lat="51.390613345429301" lon="4.359643673524261">
        <ele>9.27</ele>
        <time>2014-11-23T10:47:40Z</time>
      </trkpt>
      <trkpt lat="51.390523575246334" lon="4.35937243513763">
        <ele>9.27</ele>
        <time>2014-11-23T10:47:26Z</time>
      </trkpt>
      <trkpt lat="51.390467919409275" lon="4.359149727970362">
        <ele>9.75</ele>
        <time>2014-11-23T10:47:11Z</time>
      </trkpt>
      <trkpt lat="51.390395415946841" lon="4.358882931992412">
        <ele>9.75</ele>
        <time>2014-11-23T10:46:57Z</time>
      </trkpt>
      <trkpt lat="51.390304053202271" lon="4.358541201800108">
        <ele>10.23</ele>
        <time>2014-11-23T10:46:39Z</time>
      </trkpt>
      <trkpt lat="51.390229538083076" lon="4.358206763863564">
        <ele>10.23</ele>
        <time>2014-11-23T10:46:21Z</time>
      </trkpt>
      <trkpt lat="51.390171451494098" lon="4.357911385595799">
        <ele>10.710000000000001</ele>
        <time>2014-11-23T10:46:04Z</time>
      </trkpt>
      <trkpt lat="51.390088554471731" lon="4.357562195509672">
        <ele>11.19</ele>
        <time>2014-11-23T10:45:46Z</time>
      </trkpt>
      <trkpt lat="51.390065923333168" lon="4.357489692047238">
        <ele>11.19</ele>
        <time>2014-11-23T10:45:42Z</time>
      </trkpt>
      <trkpt lat="51.389998449012637" lon="4.357267990708351">
        <ele>11.19</ele>
        <time>2014-11-23T10:45:28Z</time>
      </trkpt>
      <trkpt lat="51.389913791790605" lon="4.356949226930738">
        <ele>11.67</ele>
        <time>2014-11-23T10:45:11Z</time>
      </trkpt>
      <trkpt lat="51.389840450137854" lon="4.356680503115058">
        <ele>12.15</ele>
        <time>2014-11-23T10:44:56Z</time>
      </trkpt>
      <trkpt lat="51.389782279729843" lon="4.356390153989196">
        <ele>12.15</ele>
        <time>2014-11-23T10:44:39Z</time>
      </trkpt>
      <trkpt lat="51.389686726033688" lon="4.356081951409578">
        <ele>12.15</ele>
        <time>2014-11-23T10:44:24Z</time>
      </trkpt>
      <trkpt lat="51.389673566445708" lon="4.356088824570179">
        <ele>12.15</ele>
        <time>2014-11-23T10:44:21Z</time>
      </trkpt>
      <trkpt lat="51.38958128169179" lon="4.3562569655478">
        <ele>11.67</ele>
        <time>2014-11-23T10:44:09Z</time>
      </trkpt>
      <trkpt lat="51.389489583671093" lon="4.356296947225928">
        <ele>11.67</ele>
        <time>2014-11-23T10:44:02Z</time>
      </trkpt>
      <trkpt lat="51.389386234804988" lon="4.356328630819917">
        <ele>11.67</ele>
        <time>2014-11-23T10:43:54Z</time>
      </trkpt>
      <trkpt lat="51.389319766312838" lon="4.356384370476008">
        <ele>11.67</ele>
        <time>2014-11-23T10:43:48Z</time>
      </trkpt>
      <trkpt lat="51.389182219281793" lon="4.356461651623249">
        <ele>12.15</ele>
        <time>2014-11-23T10:43:36Z</time>
      </trkpt>
      <trkpt lat="51.389161432161927" lon="4.356471374630928">
        <ele>12.15</ele>
        <time>2014-11-23T10:43:34Z</time>
      </trkpt>
      <trkpt lat="51.388993123546243" lon="4.356541531160474">
        <ele>12.15</ele>
        <time>2014-11-23T10:43:21Z</time>
      </trkpt>
      <trkpt lat="51.388826826587319" lon="4.356646053493023">
        <ele>12.15</ele>
        <time>2014-11-23T10:43:07Z</time>
      </trkpt>
      <trkpt lat="51.388799250125885" lon="4.356673797592521">
        <ele>12.15</ele>
        <time>2014-11-23T10:43:04Z</time>
      </trkpt>
      <trkpt lat="51.388773685321212" lon="4.356703218072653">
        <ele>11.67</ele>
        <time>2014-11-23T10:43:01Z</time>
      </trkpt>
      <trkpt lat="51.388617111369967" lon="4.356771446764469">
        <ele>11.19</ele>
        <time>2014-11-23T10:42:49Z</time>
      </trkpt>
      <trkpt lat="51.388395745307207" lon="4.356883596628904">
        <ele>10.710000000000001</ele>
        <time>2014-11-23T10:42:34Z</time>
      </trkpt>
      <trkpt lat="51.388183431699872" lon="4.35698845423758">
        <ele>10.23</ele>
        <time>2014-11-23T10:42:18Z</time>
      </trkpt>
      <trkpt lat="51.388012776151299" lon="4.357050145044923">
        <ele>9.75</ele>
        <time>2014-11-23T10:42:03Z</time>
      </trkpt>
      <trkpt lat="51.387848993763328" lon="4.357326999306679">
        <ele>9.75</ele>
        <time>2014-11-23T10:41:48Z</time>
      </trkpt>
      <trkpt lat="51.38781052082777" lon="4.357384834438562">
        <ele>9.75</ele>
        <time>2014-11-23T10:41:44Z</time>
      </trkpt>
      <trkpt lat="51.387794427573681" lon="4.357484998181462">
        <ele>9.27</ele>
        <time>2014-11-23T10:41:38Z</time>
      </trkpt>
      <trkpt lat="51.387769700959325" lon="4.357571247965097">
        <ele>9.27</ele>
        <time>2014-11-23T10:41:31Z</time>
      </trkpt>
      <trkpt lat="51.387701304629445" lon="4.35774433426559">
        <ele>9.27</ele>
        <time>2014-11-23T10:41:19Z</time>
      </trkpt>
      <trkpt lat="51.387688815593719" lon="4.357790518552065">
        <ele>9.27</ele>
        <time>2014-11-23T10:41:15Z</time>
      </trkpt>
      <trkpt lat="51.387636009603739" lon="4.357856400310993">
        <ele>9.75</ele>
        <time>2014-11-23T10:41:08Z</time>
      </trkpt>
      <trkpt lat="51.387598626315594" lon="4.357887078076601">
        <ele>9.27</ele>
        <time>2014-11-23T10:41:05Z</time>
      </trkpt>
      <trkpt lat="51.387459151446819" lon="4.358125207945705">
        <ele>7.83</ele>
        <time>2014-11-23T10:40:50Z</time>
      </trkpt>
      <trkpt lat="51.387452529743314" lon="4.358158065006137">
        <ele>8.310000000000001</ele>
        <time>2014-11-23T10:40:48Z</time>
      </trkpt>
      <trkpt lat="51.387351946905255" lon="4.35827013105154">
        <ele>7.35</ele>
        <time>2014-11-23T10:40:35Z</time>
      </trkpt>
      <trkpt lat="51.38722320087254" lon="4.358045663684607">
        <ele>6.39</ele>
        <time>2014-11-23T10:40:19Z</time>
      </trkpt>
      <trkpt lat="51.387088755145669" lon="4.357792614027858">
        <ele>5.42</ele>
        <time>2014-11-23T10:40:01Z</time>
      </trkpt>
      <trkpt lat="51.386938886716962" lon="4.357574516907334">
        <ele>5.42</ele>
        <time>2014-11-23T10:39:44Z</time>
      </trkpt>
      <trkpt lat="51.386759178712964" lon="4.357275115326047">
        <ele>5.42</ele>
        <time>2014-11-23T10:39:27Z</time>
      </trkpt>
      <trkpt lat="51.386644598096609" lon="4.357086354866624">
        <ele>5.91</ele>
        <time>2014-11-23T10:39:12Z</time>
      </trkpt>
      <trkpt lat="51.386518618091941" lon="4.35684185475111">
        <ele>5.91</ele>
        <time>2014-11-23T10:38:54Z</time>
      </trkpt>
      <trkpt lat="51.386361457407475" lon="4.356590397655964">
        <ele>5.91</ele>
        <time>2014-11-23T10:38:37Z</time>
      </trkpt>
      <trkpt lat="51.386199854314327" lon="4.356294348835945">
        <ele>5.91</ele>
        <time>2014-11-23T10:38:19Z</time>
      </trkpt>
      <trkpt lat="51.386025091633201" lon="4.356069462373853">
        <ele>6.39</ele>
        <time>2014-11-23T10:38:05Z</time>
      </trkpt>
      <trkpt lat="51.385917300358415" lon="4.355889251455665">
        <ele>6.39</ele>
        <time>2014-11-23T10:37:52Z</time>
      </trkpt>
      <trkpt lat="51.385832224041224" lon="4.355952870100737">
        <ele>6.39</ele>
        <time>2014-11-23T10:37:38Z</time>
      </trkpt>
      <trkpt lat="51.385820070281625" lon="4.355967119336128">
        <ele>6.39</ele>
        <time>2014-11-23T10:37:37Z</time>
      </trkpt>
      <trkpt lat="51.385776065289974" lon="4.356018668040633">
        <ele>6.39</ele>
        <time>2014-11-23T10:37:32Z</time>
      </trkpt>
      <trkpt lat="51.385749913752079" lon="4.356078011915088">
        <ele>6.39</ele>
        <time>2014-11-23T10:37:21Z</time>
      </trkpt>
      <trkpt lat="51.385623849928379" lon="4.356277668848634">
        <ele>5.91</ele>
        <time>2014-11-23T10:37:08Z</time>
      </trkpt>
      <trkpt lat="51.385527960956097" lon="4.356500878930092">
        <ele>5.91</ele>
        <time>2014-11-23T10:36:55Z</time>
      </trkpt>
      <trkpt lat="51.385525614023209" lon="4.356523426249623">
        <ele>6.39</ele>
        <time>2014-11-23T10:36:54Z</time>
      </trkpt>
      <trkpt lat="51.385516729205847" lon="4.356560306623578">
        <ele>6.39</ele>
        <time>2014-11-23T10:36:52Z</time>
      </trkpt>
      <trkpt lat="51.38549393042922" lon="4.356610346585512">
        <ele>5.91</ele>
        <time>2014-11-23T10:36:49Z</time>
      </trkpt>
      <trkpt lat="51.385412877425551" lon="4.356815200299025">
        <ele>6.39</ele>
        <time>2014-11-23T10:36:37Z</time>
      </trkpt>
      <trkpt lat="51.385406423360109" lon="4.356835735961795">
        <ele>6.39</ele>
        <time>2014-11-23T10:36:36Z</time>
      </trkpt>
      <trkpt lat="51.385400891304016" lon="4.356856690719724">
        <ele>6.39</ele>
        <time>2014-11-23T10:36:35Z</time>
      </trkpt>
      <trkpt lat="51.385393096134067" lon="4.356874208897352">
        <ele>6.39</ele>
        <time>2014-11-23T10:36:34Z</time>
      </trkpt>
      <trkpt lat="51.385384546592832" lon="4.356889883056283">
        <ele>5.91</ele>
        <time>2014-11-23T10:36:33Z</time>
      </trkpt>
      <trkpt lat="51.385377338156104" lon="4.356909412890673">
        <ele>5.91</ele>
        <time>2014-11-23T10:36:32Z</time>
      </trkpt>
      <trkpt lat="51.385367531329393" lon="4.356928104534745">
        <ele>6.39</ele>
        <time>2014-11-23T10:36:31Z</time>
      </trkpt>
      <trkpt lat="51.385359652340412" lon="4.356947466731072">
        <ele>5.91</ele>
        <time>2014-11-23T10:36:30Z</time>
      </trkpt>
      <trkpt lat="51.385350599884987" lon="4.356964062899351">
        <ele>6.39</ele>
        <time>2014-11-23T10:36:29Z</time>
      </trkpt>
      <trkpt lat="51.385307935997844" lon="4.357163216918707">
        <ele>5.91</ele>
        <time>2014-11-23T10:36:18Z</time>
      </trkpt>
      <trkpt lat="51.385304499417543" lon="4.357184255495668">
        <ele>5.91</ele>
        <time>2014-11-23T10:36:17Z</time>
      </trkpt>
      <trkpt lat="51.385299973189831" lon="4.357206048443914">
        <ele>5.91</ele>
        <time>2014-11-23T10:36:16Z</time>
      </trkpt>
      <trkpt lat="51.385291926562786" lon="4.357249215245247">
        <ele>5.91</ele>
        <time>2014-11-23T10:36:14Z</time>
      </trkpt>
      <trkpt lat="51.385206682607532" lon="4.357478292658925">
        <ele>5.91</ele>
        <time>2014-11-23T10:36:00Z</time>
      </trkpt>
      <trkpt lat="51.385191008448601" lon="4.357511904090643">
        <ele>5.91</ele>
        <time>2014-11-23T10:35:58Z</time>
      </trkpt>
      <trkpt lat="51.385133927688003" lon="4.357577618211508">
        <ele>5.91</ele>
        <time>2014-11-23T10:35:51Z</time>
      </trkpt>
      <trkpt lat="51.384961176663637" lon="4.357378799468279">
        <ele>4.94</ele>
        <time>2014-11-23T10:35:33Z</time>
      </trkpt>
      <trkpt lat="51.384951705113053" lon="4.357365723699331">
        <ele>4.94</ele>
        <time>2014-11-23T10:35:32Z</time>
      </trkpt>
      <trkpt lat="51.384929744526744" lon="4.357339320704341">
        <ele>5.91</ele>
        <time>2014-11-23T10:35:26Z</time>
      </trkpt>
      <trkpt lat="51.384931588545442" lon="4.357338817790151">
        <ele>5.42</ele>
        <time>2014-11-23T10:35:21Z</time>
      </trkpt>
      <trkpt lat="51.38492320664227" lon="4.357335967943072">
        <ele>4.94</ele>
        <time>2014-11-23T10:35:07Z</time>
      </trkpt>
      <trkpt lat="51.384899821132421" lon="4.357315851375461">
        <ele>4.94</ele>
        <time>2014-11-23T10:34:53Z</time>
      </trkpt>
      <trkpt lat="51.384814493358135" lon="4.357221135869622">
        <ele>4.94</ele>
        <time>2014-11-23T10:34:38Z</time>
      </trkpt>
      <trkpt lat="51.384714497253299" lon="4.357061544433236">
        <ele>5.91</ele>
        <time>2014-11-23T10:34:24Z</time>
      </trkpt>
      <trkpt lat="51.384554319083691" lon="4.356891810894013">
        <ele>4.94</ele>
        <time>2014-11-23T10:34:07Z</time>
      </trkpt>
      <trkpt lat="51.384543757885695" lon="4.356883596628904">
        <ele>8.789999999999999</ele>
        <time>2014-11-23T10:34:06Z</time>
      </trkpt>
      <trkpt lat="51.384534118697047" lon="4.356874125078321">
        <ele>1.1</ele>
        <time>2014-11-23T10:34:05Z</time>
      </trkpt>
      <trkpt lat="51.384463543072343" lon="4.356783432886004">
        <ele>4.94</ele>
        <time>2014-11-23T10:33:58Z</time>
      </trkpt>
      <trkpt lat="51.384345190599561" lon="4.356613866984844">
        <ele>4.94</ele>
        <time>2014-11-23T10:33:44Z</time>
      </trkpt>
      <trkpt lat="51.384246200323105" lon="4.356494005769491">
        <ele>4.46</ele>
        <time>2014-11-23T10:33:28Z</time>
      </trkpt>
      <trkpt lat="51.384237818419933" lon="4.3564797565341">
        <ele>4.46</ele>
        <time>2014-11-23T10:33:27Z</time>
      </trkpt>
      <trkpt lat="51.384228765964508" lon="4.356466764584184">
        <ele>4.46</ele>
        <time>2014-11-23T10:33:26Z</time>
      </trkpt>
      <trkpt lat="51.384220132604241" lon="4.356454024091363">
        <ele>4.46</ele>
        <time>2014-11-23T10:33:25Z</time>
      </trkpt>
      <trkpt lat="51.384214852005243" lon="4.356438852846623">
        <ele>4.46</ele>
        <time>2014-11-23T10:33:24Z</time>
      </trkpt>
      <trkpt lat="51.384201943874359" lon="4.356407839804888">
        <ele>4.46</ele>
        <time>2014-11-23T10:33:22Z</time>
      </trkpt>
      <trkpt lat="51.384083507582545" lon="4.356266353279352">
        <ele>4.46</ele>
        <time>2014-11-23T10:33:09Z</time>
      </trkpt>
      <trkpt lat="51.384003460407257" lon="4.356108773499727">
        <ele>4.46</ele>
        <time>2014-11-23T10:32:59Z</time>
      </trkpt>
      <trkpt lat="51.383902374655008" lon="4.35576293617487">
        <ele>4.46</ele>
        <time>2014-11-23T10:32:41Z</time>
      </trkpt>
      <trkpt lat="51.383850825950503" lon="4.355413662269712">
        <ele>3.98</ele>
        <time>2014-11-23T10:32:25Z</time>
      </trkpt>
      <trkpt lat="51.383850490674376" lon="4.355389270931482">
        <ele>4.94</ele>
        <time>2014-11-23T10:32:24Z</time>
      </trkpt>
      <trkpt lat="51.383852502331138" lon="4.355358593165875">
        <ele>3.98</ele>
        <time>2014-11-23T10:32:23Z</time>
      </trkpt>
      <trkpt lat="51.383855268359184" lon="4.355326909571886">
        <ele>4.46</ele>
        <time>2014-11-23T10:32:22Z</time>
      </trkpt>
      <trkpt lat="51.383821237832308" lon="4.355003451928496">
        <ele>3.98</ele>
        <time>2014-11-23T10:32:08Z</time>
      </trkpt>
      <trkpt lat="51.383774382993579" lon="4.354750402271748">
        <ele>4.46</ele>
        <time>2014-11-23T10:31:56Z</time>
      </trkpt>
      <trkpt lat="51.383721744641662" lon="4.35448813252151">
        <ele>4.46</ele>
        <time>2014-11-23T10:31:43Z</time>
      </trkpt>
      <trkpt lat="51.382578955963254" lon="4.355097748339176">
        <ele>0.62</ele>
        <time>2014-11-23T10:22:29Z</time>
      </trkpt>
      <trkpt lat="51.382533526048064" lon="4.355965526774526">
        <ele>0.62</ele>
        <time>2014-11-23T10:22:28Z</time>
      </trkpt>
      <trkpt lat="51.378917824476957" lon="4.356807405129075">
        <ele>1.1</ele>
        <time>2014-11-23T10:22:13Z</time>
      </trkpt>
      <trkpt lat="51.377555932849646" lon="4.357326412573457">
        <ele>1.1</ele>
        <time>2014-11-23T10:22:11Z</time>
      </trkpt>
      <trkpt lat="51.376698045060039" lon="4.357753470540047">
        <ele>1.1</ele>
        <time>2014-11-23T10:21:55Z</time>
      </trkpt>
      <trkpt lat="51.375624993816018" lon="4.355296064168215">
        <ele>1.1</ele>
        <time>2014-11-23T10:21:46Z</time>
      </trkpt>
      <trkpt lat="51.375119565054774" lon="4.353382643312216">
        <ele>1.1</ele>
        <time>2014-11-23T10:21:31Z</time>
      </trkpt>
      <trkpt lat="51.375002805143595" lon="4.35159738175571">
        <ele>0.62</ele>
        <time>2014-11-23T10:21:18Z</time>
      </trkpt>
      <trkpt lat="51.37475629337132" lon="4.351605763658881">
        <ele>1.1</ele>
        <time>2014-11-23T10:21:02Z</time>
      </trkpt>
      <trkpt lat="51.374610951170325" lon="4.351553041487932">
        <ele>1.58</ele>
        <time>2014-11-23T10:20:49Z</time>
      </trkpt>
      <trkpt lat="51.37446510605514" lon="4.351373333483934">
        <ele>1.1</ele>
        <time>2014-11-23T10:20:31Z</time>
      </trkpt>
      <trkpt lat="51.37445236556232" lon="4.351325472816825">
        <ele>1.1</ele>
        <time>2014-11-23T10:20:19Z</time>
      </trkpt>
      <trkpt lat="51.374463178217411" lon="4.351152470335364">
        <ele>1.58</ele>
        <time>2014-11-23T10:20:04Z</time>
      </trkpt>
      <trkpt lat="51.374454461038113" lon="4.350753240287304">
        <ele>0.62</ele>
        <time>2014-11-23T10:19:49Z</time>
      </trkpt>
      <trkpt lat="51.374915717169642" lon="4.350714683532715">
        <ele>7.83</ele>
        <time>2014-11-23T10:14:29Z</time>
      </trkpt>
      <trkpt lat="51.375378062948585" lon="4.350588200613856">
        <ele>0.14</ele>
        <time>2014-11-23T10:14:28Z</time>
      </trkpt>
      <trkpt lat="51.3754877820611" lon="4.349965173751116">
        <ele>4.46</ele>
        <time>2014-11-23T10:14:12Z</time>
      </trkpt>
      <trkpt lat="51.375453248620033" lon="4.347810437902808">
        <ele>4.46</ele>
        <time>2014-11-23T10:13:58Z</time>
      </trkpt>
      <trkpt lat="51.375000374391675" lon="4.344531940296292">
        <ele>3.98</ele>
        <time>2014-11-23T10:13:41Z</time>
      </trkpt>
      <trkpt lat="51.374415988102555" lon="4.343579085543752">
        <ele>3.5</ele>
        <time>2014-11-23T10:13:32Z</time>
      </trkpt>
      <trkpt lat="51.373995635658503" lon="4.340809788554907">
        <ele>6.87</ele>
        <time>2014-11-23T10:13:31Z</time>
      </trkpt>
      <trkpt lat="51.372843291610479" lon="4.340186845511198">
        <ele>2.06</ele>
        <time>2014-11-23T10:13:23Z</time>
      </trkpt>
      <trkpt lat="51.372104678303003" lon="4.338781032711268">
        <ele>1.1</ele>
        <time>2014-11-23T10:00:45Z</time>
      </trkpt>
      <trkpt lat="51.372217414900661" lon="4.337693899869919">
        <ele>0.62</ele>
        <time>2014-11-23T10:00:32Z</time>
      </trkpt>
      <trkpt lat="51.372375329956412" lon="4.336990490555763">
        <ele>0.62</ele>
        <time>2014-11-23T10:00:29Z</time>
      </trkpt>
      <trkpt lat="51.372330989688635" lon="4.33670986443758">
        <ele>-0.34</ele>
        <time>2014-11-23T10:00:17Z</time>
      </trkpt>
      <trkpt lat="51.372322188690305" lon="4.336398812010884">
        <ele>0.14</ele>
        <time>2014-11-23T10:00:14Z</time>
      </trkpt>
      <trkpt lat="51.371633866801858" lon="4.336431669071317">
        <ele>-0.82</ele>
        <time>2014-11-23T10:00:00Z</time>
      </trkpt>
      <trkpt lat="51.371654905378819" lon="4.336322704330087">
        <ele>-1.79</ele>
        <time>2014-11-23T09:59:55Z</time>
      </trkpt>
      <trkpt lat="51.371594555675983" lon="4.336105696856976">
        <ele>-2.27</ele>
        <time>2014-11-23T09:59:43Z</time>
      </trkpt>
      <trkpt lat="51.371579049155116" lon="4.335805792361498">
        <ele>-2.75</ele>
        <time>2014-11-23T09:59:36Z</time>
      </trkpt>
      <trkpt lat="51.371529344469309" lon="4.33563094586134">
        <ele>-2.75</ele>
        <time>2014-11-23T09:59:25Z</time>
      </trkpt>
      <trkpt lat="51.37149908579886" lon="4.335571518167853">
        <ele>-2.75</ele>
        <time>2014-11-23T09:59:20Z</time>
      </trkpt>
      <trkpt lat="51.37148592621088" lon="4.335386194288731">
        <ele>-3.23</ele>
        <time>2014-11-23T09:59:07Z</time>
      </trkpt>
      <trkpt lat="51.37143412604928" lon="4.335114620625973">
        <ele>-3.71</ele>
        <time>2014-11-23T09:58:55Z</time>
      </trkpt>
      <trkpt lat="51.371417194604874" lon="4.335029209032655">
        <ele>-3.71</ele>
        <time>2014-11-23T09:58:50Z</time>
      </trkpt>
      <trkpt lat="51.371380984783173" lon="4.334818907082081">
        <ele>-3.71</ele>
        <time>2014-11-23T09:58:38Z</time>
      </trkpt>
      <trkpt lat="51.371370423585176" lon="4.33445974253118">
        <ele>-4.19</ele>
        <time>2014-11-23T09:58:24Z</time>
      </trkpt>
      <trkpt lat="51.371343601495028" lon="4.334303420037031">
        <ele>-3.71</ele>
        <time>2014-11-23T09:58:16Z</time>
      </trkpt>
      <trkpt lat="51.371292052790523" lon="4.334089430049062">
        <ele>-3.71</ele>
        <time>2014-11-23T09:58:05Z</time>
      </trkpt>
      <trkpt lat="51.37125919573009" lon="4.333816850557923">
        <ele>-4.19</ele>
        <time>2014-11-23T09:57:53Z</time>
      </trkpt>
      <trkpt lat="51.371208066120744" lon="4.333628593012691">
        <ele>-3.71</ele>
        <time>2014-11-23T09:57:43Z</time>
      </trkpt>
      <trkpt lat="51.37118392623961" lon="4.333422984927893">
        <ele>-3.71</ele>
        <time>2014-11-23T09:57:31Z</time>
      </trkpt>
      <trkpt lat="51.371154002845287" lon="4.333141520619392">
        <ele>-4.19</ele>
        <time>2014-11-23T09:57:19Z</time>
      </trkpt>
      <trkpt lat="51.37113899923861" lon="4.33294010348618">
        <ele>-4.19</ele>
        <time>2014-11-23T09:57:10Z</time>
      </trkpt>
      <trkpt lat="51.371080577373505" lon="4.33274949900806">
        <ele>-4.67</ele>
        <time>2014-11-23T09:56:58Z</time>
      </trkpt>
      <trkpt lat="51.371047804132104" lon="4.332558810710907">
        <ele>-5.15</ele>
        <time>2014-11-23T09:56:46Z</time>
      </trkpt>
      <trkpt lat="51.370863066986203" lon="4.332432746887207">
        <ele>-4.67</ele>
        <time>2014-11-23T09:56:33Z</time>
      </trkpt>
      <trkpt lat="51.37084336951375" lon="4.332415396347642">
        <ele>-5.15</ele>
        <time>2014-11-23T09:56:31Z</time>
      </trkpt>
      <trkpt lat="51.370767932385206" lon="4.332336103543639">
        <ele>-5.15</ele>
        <time>2014-11-23T09:56:23Z</time>
      </trkpt>
      <trkpt lat="51.370616387575865" lon="4.33219201862812">
        <ele>-5.15</ele>
        <time>2014-11-23T09:56:10Z</time>
      </trkpt>
      <trkpt lat="51.370378760620952" lon="4.332003174349666">
        <ele>-5.63</ele>
        <time>2014-11-23T09:55:52Z</time>
      </trkpt>
      <trkpt lat="51.370361745357513" lon="4.331991858780384">
        <ele>-5.63</ele>
        <time>2014-11-23T09:55:50Z</time>
      </trkpt>
      <trkpt lat="51.370254624634981" lon="4.331898903474212">
        <ele>-5.63</ele>
        <time>2014-11-23T09:55:38Z</time>
      </trkpt>
      <trkpt lat="51.370061924681067" lon="4.331810725852847">
        <ele>-2.27</ele>
        <time>2014-11-23T09:55:24Z</time>
      </trkpt>
      <trkpt lat="51.370042311027646" lon="4.331799577921629">
        <ele>-9</ele>
        <time>2014-11-23T09:55:23Z</time>
      </trkpt>
      <trkpt lat="51.369993779808283" lon="4.331779209896922">
        <ele>-5.15</ele>
        <time>2014-11-23T09:55:20Z</time>
      </trkpt>
      <trkpt lat="51.369918929412961" lon="4.331711735576391">
        <ele>-5.63</ele>
        <time>2014-11-23T09:55:15Z</time>
      </trkpt>
      <trkpt lat="51.369737377390265" lon="4.331564381718636">
        <ele>-6.11</ele>
        <time>2014-11-23T09:54:58Z</time>
      </trkpt>
      <trkpt lat="51.369695635512471" lon="4.33148936368525">
        <ele>-6.59</ele>
        <time>2014-11-23T09:54:50Z</time>
      </trkpt>
      <trkpt lat="51.3696906901896" lon="4.331477964296937">
        <ele>-2.75</ele>
        <time>2014-11-23T09:54:49Z</time>
      </trkpt>
      <trkpt lat="51.369685158133507" lon="4.331465139985085">
        <ele>-9.48</ele>
        <time>2014-11-23T09:54:48Z</time>
      </trkpt>
      <trkpt lat="51.369654648005962" lon="4.331380985677242">
        <ele>-5.63</ele>
        <time>2014-11-23T09:54:43Z</time>
      </trkpt>
      <trkpt lat="51.369624137878418" lon="4.331239918246865">
        <ele>-6.11</ele>
        <time>2014-11-23T09:54:36Z</time>
      </trkpt>
      <trkpt lat="51.369618941098452" lon="4.331187112256885">
        <ele>-6.11</ele>
        <time>2014-11-23T09:54:33Z</time>
      </trkpt>
      <trkpt lat="51.369629083201289" lon="4.331156769767404">
        <ele>-6.11</ele>
        <time>2014-11-23T09:54:31Z</time>
      </trkpt>
      <trkpt lat="51.369646601378918" lon="4.331142269074917">
        <ele>-6.11</ele>
        <time>2014-11-23T09:54:29Z</time>
      </trkpt>
      <trkpt lat="51.36967359110713" lon="4.331134641543031">
        <ele>-6.11</ele>
        <time>2014-11-23T09:54:26Z</time>
      </trkpt>
      <trkpt lat="51.369679709896445" lon="4.331139083951712">
        <ele>-6.11</ele>
        <time>2014-11-23T09:54:21Z</time>
      </trkpt>
      <trkpt lat="51.369702257215977" lon="4.331213515251875">
        <ele>-6.59</ele>
        <time>2014-11-23T09:54:13Z</time>
      </trkpt>
      <trkpt lat="51.369706531986594" lon="4.331222316250205">
        <ele>-7.07</ele>
        <time>2014-11-23T09:53:59Z</time>
      </trkpt>
      <trkpt lat="51.369714746251702" lon="4.331207145005465">
        <ele>-7.07</ele>
        <time>2014-11-23T09:53:46Z</time>
      </trkpt>
      <trkpt lat="51.369713572785258" lon="4.331210078671575">
        <ele>-7.55</ele>
        <time>2014-11-23T09:53:32Z</time>
      </trkpt>
      <trkpt lat="51.369786579161882" lon="4.331155177205801">
        <ele>-8.51</ele>
        <time>2014-11-23T09:53:18Z</time>
      </trkpt>
      <trkpt lat="51.369809126481414" lon="4.331112513318658">
        <ele>-7.55</ele>
        <time>2014-11-23T09:53:15Z</time>
      </trkpt>
      <trkpt lat="51.369840474799275" lon="4.331087535247207">
        <ele>-7.55</ele>
        <time>2014-11-23T09:53:12Z</time>
      </trkpt>
      <trkpt lat="51.369852125644684" lon="4.331085691228509">
        <ele>-7.55</ele>
        <time>2014-11-23T09:53:11Z</time>
      </trkpt>
      <trkpt lat="51.369811557233334" lon="4.331110920757055">
        <ele>-8.029999999999999</ele>
        <time>2014-11-23T09:52:58Z</time>
      </trkpt>
      <trkpt lat="51.369793117046356" lon="4.331133803352714">
        <ele>-8.51</ele>
        <time>2014-11-23T09:52:40Z</time>
      </trkpt>
      <trkpt lat="51.369793200865388" lon="4.331134054809809">
        <ele>-4.19</ele>
        <time>2014-11-23T09:52:39Z</time>
      </trkpt>
      <trkpt lat="51.369793536141515" lon="4.331134306266904">
        <ele>-11.880000000000001</ele>
        <time>2014-11-23T09:52:38Z</time>
      </trkpt>
      <trkpt lat="51.369788087904453" lon="4.331138581037521">
        <ele>-8.029999999999999</ele>
        <time>2014-11-23T09:52:30Z</time>
      </trkpt>
      <trkpt lat="51.3697874173522" lon="4.331140844151378">
        <ele>-3.71</ele>
        <time>2014-11-23T09:52:29Z</time>
      </trkpt>
      <trkpt lat="51.369787501171231" lon="4.33114537037909">
        <ele>-10.92</ele>
        <time>2014-11-23T09:52:28Z</time>
      </trkpt>
      <trkpt lat="51.36978892609477" lon="4.331151656806469">
        <ele>-4.67</ele>
        <time>2014-11-23T09:52:26Z</time>
      </trkpt>
      <trkpt lat="51.369789177551866" lon="4.331154506653547">
        <ele>-11.4</ele>
        <time>2014-11-23T09:52:25Z</time>
      </trkpt>
      <trkpt lat="51.369790099561214" lon="4.331161128357053">
        <ele>-6.11</ele>
        <time>2014-11-23T09:52:23Z</time>
      </trkpt>
      <trkpt lat="51.369789261370897" lon="4.331169845536351">
        <ele>-4.19</ele>
        <time>2014-11-23T09:52:22Z</time>
      </trkpt>
      <trkpt lat="51.369785405695438" lon="4.331187028437853">
        <ele>-12.84</ele>
        <time>2014-11-23T09:52:21Z</time>
      </trkpt>
    </trkseg>
  </trk>

</gpx>